[[{"header":{"parameterUnit":"m.s-1","parameterCategory":1,"la1":31.0,"la2":29.5877,"lo1":-88.7671,"lo2":-86.6584,"dy":0.0162,"dx":0.0185,"nx":115,"ny":88,"refTime":"2024-03-10T18:00:00:Z","depth":0,"parameterNumber":2,"parameterNumberName":"U-component_of_WINDS"},"data":[0.0,0.0,0.0,0.0,0.0,0.0,0.0,0.0,0.0,0.0,0.0,0.0,0.0,0.0,0.0,0.0,0.0,0.0,0.0,0.0,0.0,0.0,0.0,0.0,0.0,0.0,0.0,0.0,0.0,0.0,0.0,0.0,0.0,0.0,0.0,0.0,0.0,0.0,0.0,0.0,0.0,0.0,0.0,0.0,0.0,0.0,0.0,0.0,0.0,0.0,0.0,0.0,0.0,0.0,0.0,0.0,0.0,0.0,0.0,0.0,0.0,0.0,0.0,0.0,0.0,0.0,0.0,0.0,0.0,0.0,0.0,0.0,0.0,0.0,0.0,0.0,0.0,0.0,0.0,0.0,0.0,0.0,0.0,0.0,0.0,0.0,0.0,0.0,0.0,0.0,0.0,0.0,0.0,0.0,0.0,0.0,0.0,0.0,0.0,0.0,0.0,0.0,0.0,0.0,0.0,0.0,0.0,0.0,0.0,0.0,0.0,0.0,0.0,0.0,0.0,0.0,0.0,0.0,0.0,0.0,0.0,0.0,0.0,0.0,0.0,0.0,0.0,0.0,0.0,0.0,0.0,0.0,0.0,0.0,0.0,0.0,0.0,0.0,0.0,0.0,0.0,0.0,0.0,0.0,0.0,0.0,0.0,0.0,0.0,0.0,0.0,0.0,0.0,0.0,0.0,0.0,0.0,0.0,0.0,0.0,0.0,0.0,0.0,0.0,0.0,0.0,0.0,0.0,0.0,0.0,0.0,0.0,0.0,0.0,0.0,0.0,0.0,0.0,0.0,0.0,0.0,0.0,0.0,0.0,0.0,0.0,0.0,0.0,0.0,0.0,0.0,0.0,0.0,0.0,0.0,0.0,0.0,0.0,0.0,0.0,0.0,0.0,0.0,0.0,0.0,0.0,0.0,0.0,0.0,0.0,0.0,0.0,0.0,0.0,0.0,0.0,0.0,0.0,0.0,0.0,0.0,0.0,0.0,0.0,0.0,0.0,0.0,0.0,0.0,0.0,0.0,0.0,0.0,0.0,0.0,0.0,0.0,0.0,0.0,0.0,0.0,0.0,0.0,0.0,0.0,0.0,0.0,0.0,0.0,0.0,0.0,0.0,0.0,0.0,0.0,0.0,0.0,0.0,0.0,0.0,0.0,0.0,0.0,0.0,0.0,0.0,0.0,0.0,0.0,0.0,0.0,0.0,0.0,0.0,0.0,0.0,0.0,0.0,0.0,0.0,0.0,0.0,0.0,0.0,0.0,0.0,0.0,0.0,0.0,0.0,0.0,0.0,0.0,0.0,0.0,0.0,0.0,0.0,0.0,0.0,0.0,0.0,0.0,0.0,0.0,0.0,0.0,0.0,0.0,0.0,0.0,0.0,0.0,0.0,0.0,0.0,0.0,0.0,0.0,0.0,0.0,0.0,0.0,0.0,0.0,0.0,0.0,0.0,0.0,0.0,0.0,0.0,0.0,0.0,0.0,0.0,0.0,0.0,0.0,0.0,0.0,0.0,0.0,0.0,0.0,0.0,0.0,0.0,0.0,0.0,0.0,0.0,0.0,0.0,0.0,0.0,0.0,0.0,0.0,0.0,0.0,0.0,0.0,0.0,0.0,0.0,0.0,0.0,0.0,0.0,0.0,0.0,0.0,0.0,0.0,0.0,0.0,0.0,0.0,0.0,0.0,0.0,0.0,0.0,0.0,0.0,0.0,0.0,0.0,0.0,0.0,0.0,0.0,0.0,0.0,0.0,0.0,0.0,0.0,0.0,0.0,0.0,0.0,0.0,0.0,0.0,0.0,0.0,0.0,0.0,0.0,0.0,0.0,0.0,0.0,0.0,0.0,0.0,0.0,0.0,0.0,0.0,0.0,0.0,0.0,0.0,0.0,0.0,0.0,0.0,0.0,0.0,0.0,0.0,0.0,0.0,0.0,0.0,0.0,0.0,0.0,0.0,0.0,0.0,0.0,0.0,0.0,0.0,0.0,0.0,0.0,0.0,0.0,0.0,0.0,0.0,0.0,0.0,0.0,0.0,0.0,0.0,0.0,0.0,0.0,0.0,0.0,0.0,0.0,0.0,0.0,0.0,0.0,0.0,0.0,0.0,0.0,0.0,0.0,0.0,0.0,0.0,0.0,0.0,0.0,0.0,0.0,0.0,0.0,0.0,0.0,0.0,0.0,0.0,0.0,0.0,0.0,0.0,0.0,0.0,0.0,0.0,0.0,0.0,0.0,0.0,0.0,0.0,0.0,0.0,0.0,0.0,0.0,0.0,0.0,0.0,0.0,0.0,0.0,0.0,0.0,0.0,0.0,0.0,0.0,0.0,0.0,0.0,0.0,0.0,0.0,0.0,0.0,0.0,0.0,0.0,0.0,0.0,0.0,0.0,0.0,0.0,0.0,0.0,0.0,0.0,0.0,0.0,0.0,0.0,0.0,0.0,0.0,0.0,0.0,0.0,0.0,0.0,0.0,0.0,0.0,0.0,0.0,0.0,0.0,0.0,0.0,0.0,0.0,0.0,0.0,0.0,0.0,0.0,0.0,0.0,0.0,0.0,0.0,0.0,0.0,0.0,0.0,0.0,0.0,0.0,0.0,0.0,0.0,0.0,0.0,0.0,0.0,0.0,0.0,0.0,0.0,0.0,0.0,0.0,0.0,0.0,0.0,0.0,0.0,0.0,0.0,0.0,0.0,0.0,0.0,0.0,0.0,0.0,0.0,0.0,0.0,0.0,0.0,0.0,0.0,0.0,0.0,0.0,0.0,0.0,0.0,0.0,0.0,0.0,0.0,0.0,0.0,0.0,0.0,0.0,0.0,0.0,0.0,0.0,0.0,0.0,0.0,0.0,0.0,0.0,0.0,0.0,0.0,0.0,0.0,0.0,0.0,0.0,0.0,0.0,0.0,0.0,0.0,0.0,0.0,0.0,0.0,0.0,0.0,0.0,0.0,0.0,0.0,0.0,0.0,0.0,0.0,0.0,0.0,0.0,0.0,0.0,0.0,0.0,0.0,0.0,0.0,0.0,0.0,0.0,0.0,0.0,0.0,0.0,0.0,0.0,0.0,0.0,0.0,0.0,0.0,0.0,0.0,0.0,0.0,0.0,0.0,0.0,0.0,0.0,0.0,0.0,0.0,0.0,0.0,0.0,0.0,0.0,0.0,0.0,0.0,0.0,0.0,0.0,0.0,0.0,0.0,0.0,0.0,0.0,0.0,0.0,0.0,0.0,0.0,0.0,0.0,0.0,0.0,0.0,0.0,0.0,0.0,0.0,0.0,0.0,0.0,0.0,0.0,0.0,0.0,0.0,0.0,0.0,0.0,0.0,0.0,0.0,0.0,0.0,0.0,0.0,0.0,0.0,0.0,0.0,0.0,0.0,0.0,0.0,0.0,0.0,0.0,0.0,0.0,0.0,0.0,0.0,0.0,0.0,0.0,0.0,0.0,0.0,0.0,0.0,0.0,0.0,0.0,0.0,0.0,0.0,0.0,0.0,0.0,0.0,0.0,0.0,0.0,0.0,0.0,0.0,0.0,0.0,0.0,0.0,0.0,0.0,0.0,0.0,0.0,0.0,0.0,0.0,0.0,0.0,0.0,0.0,0.0,0.0,0.0,0.0,0.0,0.0,0.0,0.0,0.0,0.0,0.0,0.0,0.0,0.0,0.0,0.0,0.0,0.0,0.0,0.0,0.0,0.0,0.0,0.0,0.0,0.0,0.0,0.0,0.0,0.0,0.0,0.0,0.0,0.0,0.0,0.0,0.0,0.0,0.0,0.0,0.0,0.0,0.0,0.0,0.0,0.0,0.0,0.0,0.0,0.0,0.0,0.0,0.0,0.0,0.0,0.0,0.0,0.0,0.0,0.0,0.0,0.0,0.0,0.0,0.0,0.0,0.0,0.0,0.0,0.0,0.0,0.0,0.0,0.0,0.0,0.0,0.0,0.0,0.0,0.0,0.0,0.0,0.0,0.0,0.0,0.0,0.0,0.0,0.0,0.0,0.0,0.0,0.0,0.0,0.0,0.0,0.0,0.0,0.0,0.0,0.0,0.0,0.0,0.0,0.0,0.0,0.0,0.0,0.0,0.0,0.0,0.0,0.0,0.0,0.0,0.0,0.0,0.0,0.0,0.0,0.0,0.0,0.0,0.0,0.0,0.0,0.0,0.0,0.0,0.0,0.0,0.0,0.0,0.0,0.0,0.0,0.0,0.0,0.0,0.0,0.0,0.0,0.0,0.0,0.0,0.0,0.0,0.0,0.0,0.0,0.0,0.0,-3.756,0.0,0.0,0.0,0.0,0.0,0.0,0.0,0.0,0.0,0.0,0.0,0.0,0.0,0.0,0.0,0.0,0.0,0.0,0.0,0.0,0.0,0.0,0.0,0.0,0.0,0.0,0.0,0.0,0.0,0.0,0.0,0.0,0.0,0.0,0.0,0.0,0.0,0.0,0.0,0.0,0.0,0.0,0.0,0.0,0.0,0.0,0.0,0.0,0.0,0.0,0.0,0.0,0.0,0.0,0.0,0.0,0.0,0.0,0.0,0.0,0.0,0.0,0.0,0.0,0.0,0.0,0.0,0.0,0.0,0.0,0.0,0.0,0.0,0.0,0.0,0.0,0.0,0.0,0.0,0.0,0.0,0.0,0.0,0.0,0.0,0.0,0.0,0.0,0.0,0.0,0.0,0.0,0.0,0.0,0.0,0.0,0.0,0.0,0.0,0.0,0.0,0.0,0.0,0.0,0.0,0.0,0.0,0.0,0.0,0.0,-3.92,-3.8971,-3.8294,-3.7898,-3.7922,0.0,0.0,0.0,0.0,0.0,0.0,0.0,0.0,0.0,0.0,0.0,0.0,0.0,0.0,0.0,0.0,0.0,0.0,0.0,0.0,0.0,0.0,0.0,0.0,0.0,0.0,0.0,0.0,0.0,0.0,0.0,0.0,0.0,0.0,0.0,0.0,0.0,0.0,0.0,0.0,0.0,0.0,0.0,0.0,0.0,0.0,0.0,0.0,0.0,0.0,0.0,0.0,0.0,0.0,0.0,0.0,0.0,0.0,0.0,0.0,0.0,0.0,0.0,0.0,0.0,0.0,0.0,0.0,0.0,0.0,0.0,0.0,0.0,0.0,0.0,0.0,0.0,0.0,0.0,0.0,0.0,0.0,0.0,0.0,0.0,0.0,0.0,0.0,0.0,0.0,0.0,0.0,0.0,0.0,0.0,0.0,0.0,0.0,0.0,0.0,0.0,0.0,0.0,0.0,0.0,0.0,0.0,0.0,0.0,0.0,0.0,0.0,-3.87,-3.8396,-3.8396,0.0,0.0,0.0,0.0,0.0,0.0,0.0,0.0,0.0,0.0,0.0,0.0,0.0,0.0,0.0,0.0,0.0,0.0,0.0,0.0,0.0,0.0,0.0,0.0,0.0,0.0,0.0,0.0,0.0,0.0,0.0,0.0,0.0,0.0,0.0,0.0,0.0,0.0,0.0,0.0,0.0,0.0,0.0,0.0,0.0,0.0,0.0,0.0,0.0,0.0,0.0,0.0,0.0,0.0,0.0,0.0,0.0,0.0,0.0,0.0,0.0,0.0,0.0,0.0,0.0,0.0,0.0,0.0,0.0,0.0,0.0,0.0,0.0,0.0,0.0,0.0,0.0,0.0,0.0,0.0,0.0,0.0,0.0,0.0,0.0,0.0,0.0,0.0,0.0,0.0,0.0,0.0,0.0,0.0,0.0,0.0,0.0,0.0,0.0,0.0,0.0,0.0,0.0,0.0,0.0,0.0,0.0,0.0,0.0,0.0,-4.0136,-4.0011,-3.9943,0.0,-3.9876,0.0,0.0,0.0,0.0,0.0,0.0,0.0,0.0,0.0,0.0,0.0,0.0,0.0,0.0,0.0,0.0,0.0,0.0,0.0,0.0,0.0,0.0,0.0,0.0,0.0,0.0,0.0,0.0,0.0,0.0,0.0,0.0,0.0,0.0,0.0,0.0,0.0,0.0,0.0,0.0,0.0,0.0,0.0,0.0,0.0,0.0,0.0,0.0,0.0,0.0,0.0,0.0,0.0,0.0,0.0,0.0,0.0,0.0,0.0,0.0,0.0,0.0,0.0,0.0,0.0,0.0,0.0,0.0,0.0,0.0,0.0,0.0,0.0,0.0,0.0,0.0,0.0,0.0,0.0,0.0,0.0,0.0,0.0,0.0,0.0,0.0,0.0,0.0,0.0,0.0,0.0,0.0,0.0,0.0,0.0,0.0,0.0,0.0,0.0,0.0,0.0,0.0,0.0,0.0,0.0,0.0,0.0,0.0,0.0,0.0,-4.0238,-4.0113,-4.0113,-4.0113,0.0,0.0,0.0,0.0,0.0,0.0,0.0,0.0,0.0,0.0,0.0,0.0,0.0,0.0,0.0,0.0,0.0,0.0,0.0,0.0,0.0,0.0,0.0,0.0,0.0,0.0,0.0,0.0,0.0,0.0,0.0,0.0,0.0,0.0,0.0,0.0,0.0,0.0,0.0,0.0,0.0,0.0,0.0,0.0,0.0,0.0,0.0,0.0,0.0,0.0,0.0,0.0,0.0,0.0,0.0,0.0,0.0,0.0,0.0,0.0,0.0,0.0,0.0,0.0,0.0,0.0,0.0,0.0,0.0,0.0,0.0,0.0,0.0,0.0,0.0,0.0,0.0,0.0,0.0,0.0,0.0,0.0,0.0,0.0,0.0,0.0,0.0,0.0,0.0,0.0,0.0,0.0,0.0,0.0,0.0,0.0,0.0,0.0,0.0,0.0,0.0,0.0,0.0,0.0,0.0,0.0,0.0,0.0,0.0,0.0,-4.0337,-4.0213,-4.0079,-4.0113,-4.0011,-3.9808,0.0,0.0,0.0,0.0,0.0,0.0,0.0,0.0,0.0,0.0,0.0,0.0,0.0,0.0,0.0,0.0,0.0,0.0,0.0,0.0,0.0,0.0,0.0,0.0,0.0,0.0,0.0,0.0,0.0,0.0,0.0,0.0,0.0,0.0,0.0,0.0,0.0,0.0,0.0,0.0,0.0,0.0,0.0,0.0,0.0,0.0,0.0,0.0,0.0,0.0,0.0,0.0,0.0,0.0,0.0,0.0,0.0,0.0,0.0,0.0,0.0,0.0,0.0,0.0,0.0,0.0,0.0,0.0,0.0,0.0,0.0,0.0,0.0,0.0,0.0,0.0,0.0,0.0,0.0,0.0,0.0,0.0,0.0,0.0,0.0,0.0,0.0,0.0,0.0,0.0,0.0,0.0,0.0,0.0,0.0,0.0,0.0,0.0,0.0,0.0,0.0,0.0,0.0,0.0,0.0,0.0,0.0,0.0,-4.051,-4.0263,-4.0113,-4.0113,-4.0113,-3.9774,0.0,0.0,0.0,0.0,0.0,0.0,0.0,0.0,0.0,0.0,0.0,0.0,0.0,0.0,0.0,0.0,0.0,0.0,0.0,0.0,0.0,0.0,0.0,0.0,0.0,0.0,0.0,0.0,0.0,0.0,0.0,0.0,0.0,0.0,0.0,0.0,0.0,0.0,0.0,0.0,0.0,0.0,0.0,0.0,0.0,0.0,0.0,0.0,0.0,0.0,0.0,0.0,0.0,0.0,0.0,0.0,0.0,0.0,0.0,0.0,0.0,0.0,0.0,0.0,0.0,0.0,0.0,0.0,0.0,0.0,0.0,0.0,0.0,0.0,0.0,0.0,0.0,0.0,0.0,0.0,0.0,0.0,0.0,0.0,0.0,0.0,0.0,0.0,0.0,0.0,0.0,0.0,0.0,0.0,0.0,0.0,0.0,0.0,0.0,0.0,0.0,0.0,0.0,0.0,0.0,0.0,0.0,0.0,0.0,-4.0451,-4.0263,-4.0113,-4.0113,-4.0113,-3.974,0.0,0.0,0.0,0.0,0.0,0.0,0.0,0.0,0.0,0.0,0.0,0.0,0.0,0.0,0.0,0.0,0.0,0.0,0.0,0.0,0.0,0.0,0.0,0.0,0.0,0.0,0.0,0.0,0.0,0.0,0.0,0.0,0.0,0.0,0.0,0.0,0.0,0.0,0.0,0.0,0.0,0.0,0.0,0.0,0.0,0.0,0.0,0.0,0.0,0.0,0.0,0.0,0.0,0.0,0.0,0.0,0.0,0.0,0.0,0.0,0.0,0.0,0.0,0.0,0.0,0.0,0.0,0.0,0.0,0.0,0.0,0.0,0.0,0.0,0.0,0.0,0.0,0.0,0.0,0.0,0.0,0.0,0.0,0.0,0.0,0.0,0.0,0.0,0.0,0.0,0.0,0.0,0.0,0.0,0.0,0.0,0.0,0.0,0.0,0.0,0.0,0.0,0.0,0.0,0.0,0.0,0.0,0.0,0.0,-4.0353,0.0,-4.0113,-4.0113,-4.0113,-3.9614,0.0,0.0,0.0,0.0,0.0,0.0,0.0,0.0,0.0,0.0,0.0,0.0,0.0,0.0,0.0,0.0,0.0,0.0,0.0,0.0,0.0,0.0,0.0,0.0,0.0,0.0,0.0,0.0,0.0,0.0,0.0,0.0,0.0,0.0,0.0,0.0,0.0,0.0,0.0,0.0,0.0,0.0,0.0,0.0,0.0,0.0,0.0,0.0,0.0,0.0,0.0,0.0,0.0,0.0,0.0,0.0,0.0,0.0,0.0,0.0,0.0,0.0,0.0,0.0,0.0,0.0,0.0,0.0,0.0,0.0,0.0,0.0,0.0,0.0,0.0,0.0,0.0,0.0,0.0,0.0,0.0,0.0,0.0,0.0,0.0,0.0,0.0,0.0,0.0,0.0,0.0,0.0,0.0,0.0,0.0,0.0,0.0,0.0,0.0,0.0,0.0,0.0,0.0,0.0,0.0,0.0,0.0,0.0,-4.0485,-4.0138,-4.0113,-4.0113,-4.0113,-4.0113,-3.9377,0.0,0.0,0.0,0.0,0.0,0.0,0.0,0.0,0.0,0.0,0.0,0.0,0.0,0.0,0.0,0.0,0.0,0.0,0.0,0.0,0.0,0.0,0.0,0.0,0.0,0.0,0.0,0.0,0.0,0.0,0.0,0.0,0.0,0.0,0.0,0.0,0.0,0.0,0.0,0.0,0.0,0.0,0.0,0.0,0.0,0.0,0.0,0.0,0.0,0.0,0.0,0.0,0.0,0.0,0.0,0.0,0.0,0.0,0.0,0.0,0.0,0.0,0.0,0.0,0.0,0.0,0.0,0.0,0.0,0.0,0.0,0.0,0.0,0.0,0.0,0.0,0.0,0.0,0.0,0.0,0.0,0.0,0.0,0.0,0.0,0.0,0.0,0.0,0.0,0.0,0.0,0.0,0.0,0.0,0.0,0.0,0.0,0.0,0.0,0.0,0.0,0.0,0.0,0.0,0.0,0.0,0.0,0.0,0.0,-4.0113,-4.0113,-4.0113,-4.0113,-4.0113,-3.9436,0.0,0.0,0.0,0.0,0.0,0.0,0.0,0.0,0.0,0.0,0.0,0.0,0.0,0.0,0.0,0.0,0.0,0.0,0.0,0.0,0.0,0.0,0.0,0.0,0.0,0.0,0.0,0.0,0.0,0.0,0.0,0.0,0.0,0.0,0.0,0.0,0.0,0.0,0.0,0.0,0.0,0.0,0.0,0.0,0.0,0.0,0.0,0.0,0.0,0.0,0.0,0.0,0.0,0.0,0.0,0.0,0.0,0.0,0.0,0.0,0.0,0.0,0.0,0.0,0.0,0.0,0.0,0.0,0.0,0.0,0.0,0.0,0.0,0.0,0.0,0.0,0.0,0.0,0.0,0.0,0.0,0.0,0.0,0.0,0.0,0.0,0.0,0.0,0.0,0.0,0.0,0.0,0.0,0.0,0.0,0.0,0.0,0.0,0.0,0.0,0.0,0.0,0.0,0.0,0.0,0.0,0.0,0.0,0.0,-4.0519,-4.0248,-4.0248,-4.0493,-4.0248,-3.9537,-3.8362,0.0,0.0,0.0,0.0,0.0,0.0,0.0,0.0,0.0,0.0,0.0,0.0,0.0,0.0,0.0,0.0,0.0,0.0,0.0,0.0,0.0,0.0,0.0,0.0,0.0,0.0,0.0,0.0,0.0,0.0,0.0,0.0,0.0,0.0,0.0,0.0,0.0,0.0,0.0,0.0,0.0,0.0,0.0,0.0,0.0,0.0,0.0,0.0,0.0,0.0,0.0,0.0,0.0,0.0,0.0,0.0,0.0,0.0,0.0,0.0,0.0,0.0,0.0,0.0,0.0,0.0,0.0,0.0,0.0,0.0,0.0,0.0,0.0,0.0,0.0,0.0,0.0,0.0,0.0,0.0,0.0,0.0,0.0,0.0,0.0,0.0,0.0,0.0,0.0,0.0,0.0,0.0,0.0,0.0,0.0,0.0,0.0,0.0,0.0,0.0,0.0,0.0,0.0,0.0,0.0,0.0,0.0,0.0,-4.1339,-4.062,-4.0553,-4.117,-4.0493,-3.9808,0.0,0.0,0.0,0.0,0.0,0.0,0.0,0.0,0.0,0.0,0.0,0.0,0.0,0.0,0.0,0.0,0.0,0.0,0.0,0.0,0.0,0.0,0.0,0.0,0.0,0.0,0.0,0.0,0.0,0.0,0.0,0.0,0.0,0.0,0.0,0.0,0.0,0.0,0.0,0.0,0.0,0.0,0.0,0.0,0.0,0.0,0.0,0.0,0.0,0.0,0.0,0.0,0.0,0.0,0.0,0.0,0.0,0.0,0.0,0.0,0.0,0.0,0.0,0.0,0.0,0.0,0.0,0.0,0.0,0.0,0.0,0.0,0.0,0.0,0.0,0.0,0.0,0.0,0.0,0.0,0.0,0.0,0.0,0.0,0.0,0.0,0.0,0.0,0.0,0.0,0.0,0.0,0.0,0.0,0.0,0.0,0.0,0.0,0.0,0.0,0.0,0.0,0.0,0.0,0.0,0.0,0.0,0.0,0.0,-4.2733,-4.2083,-4.1542,-4.1238,-4.1001,-4.029,0.0,0.0,0.0,0.0,0.0,0.0,0.0,0.0,0.0,0.0,0.0,0.0,0.0,0.0,0.0,0.0,0.0,0.0,0.0,0.0,0.0,0.0,0.0,0.0,0.0,0.0,0.0,0.0,0.0,0.0,0.0,0.0,0.0,0.0,0.0,0.0,0.0,0.0,0.0,0.0,0.0,0.0,0.0,0.0,0.0,0.0,0.0,0.0,0.0,0.0,0.0,0.0,0.0,0.0,0.0,0.0,0.0,0.0,0.0,0.0,0.0,0.0,0.0,0.0,0.0,0.0,0.0,0.0,0.0,0.0,0.0,0.0,0.0,0.0,0.0,0.0,0.0,0.0,0.0,0.0,0.0,0.0,0.0,0.0,0.0,0.0,0.0,0.0,0.0,0.0,0.0,0.0,0.0,0.0,0.0,0.0,0.0,0.0,0.0,0.0,0.0,0.0,0.0,0.0,0.0,0.0,0.0,0.0,-4.2523,-4.3375,-4.3335,-4.2895,-4.2151,-4.1542,-4.0798,0.0,0.0,0.0,0.0,0.0,0.0,0.0,0.0,0.0,0.0,0.0,0.0,0.0,0.0,0.0,0.0,0.0,0.0,0.0,0.0,0.0,0.0,0.0,0.0,0.0,0.0,0.0,0.0,0.0,0.0,0.0,0.0,0.0,0.0,0.0,0.0,0.0,0.0,0.0,0.0,0.0,0.0,0.0,0.0,0.0,0.0,0.0,0.0,0.0,0.0,0.0,0.0,0.0,0.0,0.0,0.0,0.0,0.0,0.0,0.0,0.0,0.0,0.0,0.0,0.0,0.0,0.0,0.0,0.0,0.0,0.0,0.0,0.0,0.0,0.0,0.0,0.0,0.0,0.0,0.0,0.0,0.0,0.0,0.0,0.0,0.0,0.0,0.0,0.0,0.0,0.0,0.0,0.0,0.0,0.0,0.0,0.0,0.0,0.0,0.0,0.0,0.0,0.0,0.0,0.0,0.0,0.0,0.0,-4.347,-4.3511,-4.4215,-4.4276,-4.3511,-4.2083,-4.1271,0.0,0.0,0.0,0.0,0.0,0.0,0.0,0.0,0.0,0.0,0.0,0.0,0.0,0.0,0.0,0.0,0.0,0.0,0.0,0.0,0.0,0.0,0.0,0.0,0.0,0.0,0.0,0.0,0.0,0.0,0.0,0.0,0.0,0.0,0.0,0.0,0.0,0.0,0.0,0.0,0.0,0.0,0.0,0.0,0.0,0.0,0.0,0.0,0.0,0.0,0.0,0.0,0.0,0.0,0.0,0.0,0.0,0.0,0.0,0.0,0.0,0.0,0.0,0.0,0.0,0.0,0.0,0.0,0.0,0.0,0.0,0.0,0.0,0.0,0.0,0.0,0.0,0.0,0.0,0.0,0.0,0.0,0.0,0.0,0.0,0.0,0.0,0.0,0.0,0.0,0.0,0.0,0.0,0.0,0.0,0.0,0.0,0.0,0.0,0.0,0.0,0.0,0.0,0.0,0.0,0.0,0.0,0.0,-4.3707,-4.4316,-4.4513,-4.4513,-4.4344,-4.2861,-4.1779,0.0,0.0,0.0,0.0,0.0,0.0,0.0,0.0,0.0,0.0,0.0,0.0,0.0,0.0,0.0,0.0,0.0,0.0,0.0,0.0,0.0,0.0,0.0,0.0,0.0,0.0,0.0,0.0,0.0,0.0,0.0,0.0,0.0,0.0,0.0,0.0,0.0,0.0,0.0,0.0,0.0,0.0,0.0,0.0,0.0,0.0,0.0,0.0,-3.1511,0.0,0.0,0.0,0.0,0.0,0.0,0.0,0.0,0.0,0.0,0.0,0.0,0.0,0.0,0.0,0.0,0.0,0.0,0.0,0.0,0.0,0.0,0.0,0.0,0.0,0.0,0.0,0.0,0.0,0.0,0.0,0.0,0.0,0.0,0.0,0.0,0.0,0.0,0.0,0.0,0.0,0.0,0.0,0.0,0.0,0.0,0.0,0.0,0.0,0.0,0.0,0.0,0.0,0.0,0.0,0.0,0.0,0.0,0.0,-4.4147,-4.4581,-4.4581,-4.4581,-4.4547,-4.3436,-4.2489,0.0,0.0,0.0,0.0,0.0,0.0,0.0,0.0,0.0,0.0,0.0,0.0,0.0,0.0,0.0,0.0,0.0,0.0,0.0,0.0,0.0,0.0,0.0,0.0,0.0,0.0,0.0,0.0,0.0,0.0,0.0,0.0,0.0,0.0,0.0,0.0,0.0,0.0,0.0,0.0,0.0,0.0,0.0,0.0,0.0,0.0,0.0,0.0,0.0,0.0,0.0,0.0,0.0,0.0,0.0,0.0,0.0,0.0,0.0,0.0,0.0,0.0,0.0,0.0,0.0,0.0,0.0,0.0,0.0,0.0,0.0,0.0,0.0,0.0,0.0,0.0,0.0,0.0,0.0,0.0,0.0,0.0,0.0,0.0,0.0,0.0,0.0,0.0,0.0,0.0,0.0,0.0,0.0,0.0,0.0,0.0,0.0,0.0,0.0,0.0,0.0,0.0,0.0,0.0,0.0,0.0,0.0,-4.3836,-4.4581,-4.4581,-4.4581,-4.4581,-4.4581,-4.3944,-4.3166,-4.232,0.0,0.0,0.0,0.0,0.0,0.0,0.0,0.0,0.0,0.0,0.0,0.0,0.0,0.0,0.0,0.0,0.0,0.0,0.0,0.0,0.0,0.0,0.0,0.0,0.0,0.0,0.0,0.0,0.0,0.0,0.0,0.0,0.0,0.0,0.0,0.0,0.0,0.0,-3.0582,-3.1241,0.0,0.0,0.0,0.0,0.0,0.0,0.0,0.0,-3.1511,0.0,0.0,0.0,0.0,0.0,0.0,0.0,0.0,0.0,0.0,0.0,0.0,0.0,0.0,0.0,0.0,0.0,0.0,0.0,0.0,0.0,0.0,0.0,0.0,0.0,0.0,0.0,0.0,0.0,0.0,0.0,0.0,0.0,0.0,0.0,0.0,0.0,0.0,0.0,0.0,0.0,0.0,0.0,0.0,0.0,0.0,0.0,0.0,0.0,0.0,0.0,0.0,0.0,0.0,0.0,0.0,-4.2286,-4.3836,-4.4581,-4.4581,-4.4581,-4.4581,-4.4581,-4.4479,-4.3707,-4.2354,0.0,0.0,0.0,0.0,0.0,0.0,0.0,0.0,0.0,0.0,0.0,0.0,0.0,0.0,0.0,0.0,0.0,0.0,0.0,0.0,0.0,0.0,0.0,0.0,0.0,0.0,0.0,0.0,0.0,0.0,0.0,0.0,0.0,0.0,0.0,0.0,0.0,0.0,0.0,-3.1899,-3.2318,0.0,0.0,0.0,0.0,0.0,0.0,0.0,0.0,-3.1511,0.0,0.0,0.0,0.0,0.0,0.0,0.0,0.0,0.0,0.0,0.0,0.0,0.0,0.0,0.0,0.0,0.0,0.0,0.0,0.0,0.0,0.0,0.0,0.0,0.0,0.0,0.0,0.0,0.0,0.0,0.0,0.0,0.0,0.0,0.0,0.0,0.0,0.0,0.0,0.0,0.0,0.0,0.0,0.0,0.0,0.0,0.0,0.0,0.0,0.0,0.0,0.0,0.0,0.0,0.0,-4.2388,-4.3836,-4.4581,-4.4581,-4.4581,-4.4581,-4.4581,-4.4581,-4.3904,0.0,0.0,0.0,0.0,0.0,0.0,0.0,0.0,0.0,0.0,0.0,0.0,0.0,0.0,0.0,0.0,0.0,0.0,0.0,0.0,0.0,0.0,0.0,0.0,0.0,0.0,0.0,0.0,0.0,0.0,0.0,0.0,0.0,0.0,0.0,0.0,0.0,0.0,0.0,0.0,-3.2587,-3.3036,-3.3036,0.0,0.0,0.0,0.0,0.0,0.0,-3.2557,-3.2407,0.0,0.0,0.0,0.0,0.0,0.0,0.0,0.0,0.0,0.0,0.0,0.0,0.0,0.0,0.0,0.0,0.0,0.0,0.0,0.0,0.0,0.0,0.0,0.0,0.0,0.0,0.0,0.0,0.0,0.0,0.0,0.0,0.0,0.0,0.0,0.0,0.0,0.0,0.0,0.0,0.0,0.0,0.0,0.0,0.0,0.0,0.0,0.0,0.0,0.0,0.0,0.0,0.0,0.0,0.0,-4.232,-4.3639,-4.4418,-4.4581,-4.4581,-4.4581,-4.4581,-4.4418,-4.3707,0.0,0.0,0.0,0.0,0.0,0.0,0.0,0.0,0.0,0.0,0.0,0.0,0.0,0.0,0.0,0.0,0.0,0.0,0.0,0.0,0.0,0.0,0.0,0.0,0.0,0.0,0.0,0.0,0.0,0.0,0.0,0.0,0.0,0.0,0.0,0.0,0.0,0.0,0.0,0.0,0.0,-3.3694,-3.3694,-3.3694,0.0,0.0,0.0,0.0,-3.3514,-3.3514,0.0,0.0,0.0,0.0,0.0,0.0,0.0,0.0,0.0,0.0,0.0,0.0,0.0,0.0,0.0,0.0,0.0,0.0,0.0,0.0,0.0,0.0,0.0,0.0,0.0,0.0,0.0,0.0,0.0,0.0,0.0,0.0,0.0,0.0,0.0,0.0,0.0,0.0,0.0,0.0,0.0,0.0,0.0,0.0,0.0,0.0,0.0,0.0,0.0,0.0,0.0,0.0,0.0,0.0,0.0,0.0,-4.2286,-4.3132,-4.3876,-4.4547,-4.4581,-4.4581,-4.4581,-4.391,-4.3166,0.0,0.0,0.0,0.0,0.0,0.0,0.0,0.0,0.0,0.0,0.0,0.0,0.0,0.0,0.0,0.0,0.0,0.0,0.0,0.0,0.0,0.0,0.0,0.0,0.0,0.0,0.0,0.0,0.0,0.0,0.0,0.0,0.0,0.0,0.0,0.0,0.0,0.0,0.0,0.0,0.0,-3.4414,-3.4414,-3.4414,-3.4384,0.0,0.0,-3.3514,-3.3514,-3.3514,0.0,0.0,0.0,0.0,0.0,0.0,0.0,0.0,0.0,0.0,0.0,0.0,0.0,0.0,0.0,0.0,0.0,0.0,0.0,0.0,0.0,0.0,0.0,0.0,0.0,0.0,0.0,0.0,0.0,0.0,0.0,0.0,0.0,0.0,0.0,0.0,0.0,0.0,0.0,0.0,0.0,0.0,0.0,0.0,0.0,0.0,0.0,0.0,0.0,0.0,0.0,0.0,0.0,0.0,0.0,-4.1542,-4.2286,-4.3003,-4.3775,-4.4581,-4.4581,-4.4581,-4.4581,-4.3842,-4.3064,0.0,0.0,0.0,0.0,0.0,0.0,0.0,0.0,0.0,0.0,0.0,0.0,0.0,0.0,0.0,0.0,0.0,0.0,0.0,0.0,0.0,0.0,0.0,0.0,0.0,0.0,0.0,0.0,0.0,0.0,0.0,0.0,0.0,0.0,0.0,0.0,0.0,0.0,0.0,0.0,0.0,0.0,-3.5642,-3.5908,0.0,0.0,0.0,-3.5699,-3.5729,0.0,0.0,0.0,0.0,0.0,0.0,0.0,0.0,0.0,0.0,0.0,0.0,0.0,0.0,0.0,0.0,0.0,0.0,0.0,0.0,0.0,0.0,0.0,0.0,0.0,0.0,0.0,0.0,0.0,0.0,0.0,0.0,0.0,0.0,0.0,0.0,0.0,0.0,0.0,0.0,0.0,0.0,0.0,0.0,0.0,0.0,0.0,0.0,0.0,0.0,0.0,0.0,0.0,0.0,0.0,0.0,0.0,-4.2286,-4.2861,-4.3606,-4.4581,-4.4581,-4.4581,-4.4581,-4.3639,0.0,0.0,0.0,0.0,0.0,0.0,0.0,0.0,0.0,0.0,0.0,0.0,0.0,0.0,0.0,0.0,0.0,0.0,0.0,0.0,0.0,0.0,0.0,0.0,0.0,0.0,0.0,-3.1032,0.0,0.0,0.0,0.0,0.0,0.0,0.0,0.0,0.0,0.0,0.0,0.0,0.0,0.0,-3.6477,-3.6477,-3.7015,-3.7404,0.0,0.0,-3.7404,-3.7404,-3.7015,-3.6477,0.0,0.0,0.0,0.0,0.0,0.0,0.0,0.0,0.0,0.0,0.0,0.0,0.0,0.0,0.0,0.0,0.0,0.0,0.0,0.0,0.0,0.0,0.0,0.0,0.0,0.0,0.0,0.0,0.0,0.0,0.0,0.0,0.0,0.0,0.0,0.0,0.0,0.0,0.0,0.0,0.0,0.0,0.0,0.0,0.0,0.0,0.0,0.0,0.0,0.0,0.0,0.0,0.0,0.0,0.0,-4.2219,-4.2354,-4.3125,-4.4547,-4.4581,-4.4581,-4.4581,-4.3132,-4.2354,0.0,0.0,0.0,0.0,0.0,0.0,0.0,0.0,0.0,0.0,0.0,0.0,0.0,0.0,0.0,0.0,0.0,0.0,0.0,0.0,0.0,0.0,0.0,0.0,0.0,0.0,0.0,0.0,0.0,0.0,0.0,0.0,0.0,0.0,0.0,0.0,0.0,0.0,0.0,0.0,0.0,-3.6477,-3.6477,-3.7015,-3.7404,0.0,0.0,-3.7404,-3.737,-3.7375,-3.7135,-3.6537,0.0,0.0,0.0,0.0,0.0,0.0,0.0,0.0,0.0,0.0,0.0,0.0,0.0,0.0,0.0,0.0,0.0,0.0,0.0,0.0,0.0,0.0,0.0,0.0,0.0,0.0,0.0,0.0,0.0,0.0,0.0,0.0,0.0,0.0,0.0,0.0,0.0,0.0,0.0,0.0,0.0,0.0,0.0,0.0,0.0,0.0,0.0,0.0,0.0,0.0,0.0,0.0,0.0,-4.0823,-4.2252,-4.2286,-4.3031,-4.4513,-4.4581,-4.4378,-4.3876,-4.2828,-4.2083,0.0,0.0,0.0,0.0,0.0,0.0,0.0,0.0,0.0,0.0,0.0,0.0,0.0,0.0,0.0,0.0,0.0,0.0,0.0,0.0,0.0,0.0,0.0,0.0,0.0,0.0,0.0,0.0,-3.1018,-3.1281,-3.1931,0.0,0.0,0.0,0.0,0.0,0.0,0.0,0.0,0.0,0.0,-3.7195,-3.7648,-3.8212,0.0,0.0,-3.8626,-3.8661,-3.8661,-3.8302,-3.7943,-3.7704,-3.7015,0.0,0.0,0.0,0.0,0.0,0.0,0.0,0.0,0.0,0.0,0.0,0.0,0.0,0.0,0.0,0.0,0.0,0.0,0.0,0.0,0.0,0.0,0.0,0.0,0.0,0.0,0.0,0.0,0.0,0.0,0.0,0.0,0.0,0.0,0.0,0.0,0.0,0.0,0.0,0.0,0.0,0.0,0.0,0.0,0.0,0.0,0.0,0.0,0.0,0.0,0.0,0.0,-4.0823,-4.2313,-4.2286,-4.3058,-4.4553,-4.4581,-4.4215,-4.3436,-4.2692,-4.1948,0.0,0.0,0.0,0.0,0.0,0.0,0.0,0.0,0.0,0.0,0.0,0.0,0.0,0.0,0.0,0.0,0.0,0.0,0.0,0.0,0.0,0.0,0.0,0.0,0.0,0.0,0.0,0.0,-3.1294,-3.1758,-3.2882,0.0,0.0,0.0,0.0,0.0,0.0,0.0,0.0,0.0,0.0,-3.7952,-3.8367,-3.899,-3.9463,-3.9679,-3.9559,-3.9469,-3.9679,-3.914,-3.8631,-3.8422,0.0,0.0,0.0,0.0,0.0,0.0,0.0,0.0,0.0,0.0,0.0,0.0,0.0,0.0,0.0,0.0,0.0,0.0,0.0,0.0,0.0,0.0,0.0,0.0,0.0,0.0,0.0,0.0,0.0,0.0,-4.3394,0.0,0.0,0.0,0.0,0.0,0.0,0.0,0.0,0.0,0.0,0.0,0.0,0.0,0.0,0.0,0.0,0.0,0.0,0.0,0.0,0.0,0.0,-4.0857,-4.2252,-4.232,-4.3064,-4.4547,-4.4581,-4.4215,-4.3375,-4.2692,-4.1948,-4.1204,0.0,0.0,0.0,0.0,0.0,0.0,0.0,0.0,0.0,0.0,0.0,0.0,0.0,0.0,0.0,0.0,0.0,0.0,0.0,0.0,0.0,0.0,0.0,0.0,0.0,0.0,-3.1224,-3.1732,-3.2378,0.0,0.0,0.0,0.0,0.0,0.0,0.0,0.0,0.0,0.0,-3.796,-3.8602,-3.8457,-3.902,-3.9709,-4.0277,-3.9858,-3.9649,-4.0307,-3.9828,-3.917,0.0,0.0,0.0,0.0,0.0,0.0,0.0,0.0,0.0,0.0,0.0,0.0,0.0,0.0,0.0,0.0,0.0,0.0,0.0,0.0,0.0,0.0,0.0,0.0,0.0,0.0,0.0,-4.3444,-4.3451,0.0,0.0,0.0,0.0,0.0,0.0,0.0,0.0,0.0,0.0,0.0,-4.2618,-4.2629,0.0,0.0,0.0,0.0,0.0,0.0,0.0,0.0,0.0,0.0,0.0,0.0,-4.1305,-4.2252,-4.2794,-4.3538,-4.4547,-4.4581,-4.4005,-4.2692,-4.2422,-4.1711,-4.0493,0.0,0.0,0.0,0.0,0.0,0.0,0.0,0.0,0.0,0.0,0.0,0.0,0.0,0.0,0.0,0.0,0.0,0.0,0.0,0.0,0.0,0.0,0.0,0.0,0.0,-3.1393,0.0,0.0,0.0,0.0,0.0,0.0,0.0,0.0,0.0,0.0,0.0,-3.7187,-3.8333,-3.9001,-3.9444,-3.9715,-4.0277,-4.0816,0.0,0.0,0.0,0.0,0.0,0.0,0.0,0.0,0.0,0.0,0.0,0.0,0.0,0.0,-3.7404,-3.6297,-3.6088,-3.6088,-3.6088,0.0,0.0,0.0,0.0,0.0,0.0,0.0,0.0,0.0,0.0,0.0,0.0,0.0,0.0,-4.3822,0.0,-4.3676,0.0,0.0,0.0,0.0,0.0,0.0,0.0,0.0,-4.3624,-4.3627,-4.3246,-4.3284,-4.3098,0.0,-4.2185,-4.1576,0.0,0.0,0.0,0.0,0.0,0.0,0.0,0.0,-4.1576,-4.2313,-4.3031,-4.3809,-4.4547,-4.4581,-4.387,-4.2381,-4.1779,-4.0959,-3.9774,-3.8565,-3.7787,0.0,0.0,0.0,0.0,0.0,0.0,0.0,0.0,0.0,0.0,0.0,0.0,0.0,0.0,0.0,0.0,0.0,0.0,0.0,0.0,0.0,0.0,0.0,-3.1887,0.0,0.0,0.0,0.0,0.0,0.0,0.0,0.0,0.0,-3.7947,-3.8079,-3.8622,-3.9647,-3.9999,-4.0377,-4.0785,0.0,0.0,0.0,0.0,0.0,0.0,0.0,-4.1422,-4.1422,-4.1025,-4.0756,-4.0726,-4.0397,-4.0098,-4.0098,0.0,0.0,-3.8362,-3.8123,-3.8123,-3.8093,-3.8123,-3.8182,-3.8422,-3.8452,-3.8512,0.0,0.0,0.0,0.0,0.0,0.0,0.0,0.0,-4.4235,-4.4327,0.0,-4.4707,0.0,0.0,0.0,0.0,0.0,-4.4599,0.0,0.0,-4.4456,-4.4397,-4.4099,-4.4586,-4.4381,-4.3504,-4.3443,-4.3064,-4.2286,-4.0891,0.0,0.0,0.0,0.0,0.0,0.0,-4.161,-4.232,-4.3098,-4.3842,-4.4547,-4.4581,-4.387,-4.232,-4.0891,-3.9783,-3.9073,-3.8362,-3.7618,-3.6897,-3.6096,0.0,0.0,0.0,0.0,0.0,0.0,0.0,0.0,0.0,0.0,0.0,0.0,0.0,0.0,0.0,0.0,0.0,0.0,0.0,0.0,-3.1921,0.0,0.0,0.0,0.0,0.0,0.0,0.0,0.0,0.0,0.0,-3.8517,-3.9775,-4.083,-4.0854,0.0,0.0,0.0,0.0,-4.1722,-4.2381,-4.1931,-4.1713,-4.241,-4.1991,-4.1602,-4.1602,0.0,0.0,-4.1534,-4.1504,-4.1564,-4.1534,-4.1564,-4.1085,-3.9918,-3.9553,-3.9433,-3.9433,-3.9469,-3.9709,-4.0247,-4.0277,-4.0487,-4.8146,0.0,0.0,0.0,0.0,-4.6541,-4.6541,-4.6533,-4.6237,-4.618,-4.6224,-4.554,0.0,0.0,0.0,0.0,0.0,0.0,-4.5764,-4.547,-4.6456,-4.6727,-4.6494,-4.6385,-4.5937,-4.5196,-4.4541,-4.3842,-4.3064,-4.2151,-4.1407,-4.0899,0.0,0.0,0.0,0.0,-4.2895,-4.3132,-4.3842,-4.4378,-4.4581,-4.4581,-4.387,-4.232,-4.0891,-4.0011,-3.9774,-3.9097,-3.8328,-3.7618,-3.6874,0.0,0.0,0.0,0.0,0.0,0.0,0.0,0.0,0.0,0.0,0.0,0.0,0.0,0.0,0.0,0.0,0.0,0.0,0.0,-3.278,-3.3423,-3.4167,0.0,0.0,0.0,0.0,0.0,0.0,0.0,0.0,0.0,-4.2041,-4.1843,-4.1786,0.0,0.0,-4.2842,-4.2682,-4.2839,-4.3226,-4.3698,-4.3599,0.0,0.0,-4.4287,-4.4167,-4.4167,-4.4167,-4.4167,-4.4167,-4.4167,-4.4167,-4.4137,-4.4167,-4.4047,-4.3599,-4.2043,-4.0935,-4.0816,-4.0816,-4.0876,-4.1055,-4.1115,-4.1175,-4.9977,-4.8865,-4.818,-4.7717,-4.747,-4.747,-4.747,-4.7436,-4.7264,-4.728,-4.7317,-4.6796,-4.6669,-4.685,-4.6621,0.0,0.0,0.0,-4.7424,-4.7101,-4.7753,-4.7885,-4.7561,-4.7335,-4.6925,-4.6334,-4.5812,-4.5117,-4.4288,-4.3572,-4.2828,-4.2057,0.0,0.0,-4.1644,-4.2828,-4.3403,-4.3409,-4.4181,-4.4581,-4.4581,-4.4005,-4.3261,-4.2286,-4.0865,-4.0113,-4.0079,-3.9402,-3.8802,-3.8362,-3.7371,-3.6592,0.0,0.0,0.0,0.0,0.0,0.0,0.0,0.0,0.0,0.0,0.0,-3.5464,0.0,0.0,0.0,0.0,-3.366,-3.3525,-3.3795,-3.4506,0.0,0.0,0.0,0.0,0.0,0.0,0.0,-4.1842,-4.2885,-4.3667,-4.4045,-4.3999,-4.3814,-4.3663,-4.3791,-4.3963,-4.4105,0.0,-4.4467,-4.482,-4.4828,-4.4978,-4.5244,-4.5274,-4.5274,-4.5274,-4.5274,-4.5274,-4.5274,-4.5274,-4.5274,-4.5274,-4.5274,-4.5274,-4.5274,-4.3988,-4.294,-4.294,-4.294,-4.294,-4.294,-4.294,-4.294,-5.132,-5.1116,-4.9362,-4.8187,-4.7534,-4.7534,-4.7534,-4.7529,-4.7883,-4.7989,-4.7948,-4.829,-4.8452,-4.8521,-4.8901,0.0,-4.9099,-4.9206,-4.9057,-4.877,-4.8574,-4.8301,-4.7893,-4.7761,-4.7501,-4.7117,-4.7087,-4.6627,-4.5771,-4.5026,-4.4316,-4.3578,-4.2828,-4.2455,-4.2422,-4.3132,-4.3477,-4.3538,-4.4215,-4.4581,-4.4581,-4.3159,-4.2354,-4.2286,-4.0925,-4.018,-4.0079,-3.9445,-3.9039,-3.8962,-3.7709,-3.6931,-3.6795,0.0,0.0,0.0,0.0,0.0,0.0,0.0,0.0,0.0,0.0,0.0,0.0,0.0,0.0,0.0,-3.3626,0.0,-3.4709,-3.5363,0.0,0.0,0.0,-3.9411,-4.0197,-4.0933,-4.1914,-4.3308,0.0,0.0,-4.5087,-4.6013,-4.6454,-4.5885,-4.5091,-4.495,-4.5825,-4.5626,-4.5532,-4.5798,-4.5837,-4.5755,-4.5657,-4.5615,-4.5574,-4.5574,-4.5454,-4.5514,-4.5544,-4.5514,-4.5484,-4.5544,-4.5454,-4.5484,-4.5454,-4.5424,-4.5454,-4.5394,-4.5274,-4.5214,-4.5095,-4.5065,-4.5035,-5.2604,-5.1995,-5.1519,-5.0907,-5.0263,-5.0263,-5.0263,-5.026,-5.0512,-5.0359,-4.9898,-4.9637,-4.9124,-4.8521,-4.8725,-4.8851,-4.8962,-4.9488,-4.9642,-4.9495,-4.9862,-4.9896,-4.9623,-4.9418,-4.8884,-4.8109,-4.7894,-4.7373,-4.6515,-4.5805,-4.5331,-4.5128,-4.4418,-4.3741,-4.32,-4.391,-4.4282,-4.4316,-4.4513,-4.4581,-4.4581,-4.3639,-4.2861,-4.2313,-4.1407,-4.0663,-4.0113,-3.9943,-3.9605,-3.9005,-3.8667,-3.7956,-3.6863,-3.666,0.0,0.0,0.0,0.0,0.0,0.0,0.0,0.0,0.0,-3.5532,-3.5351,0.0,-3.5261,0.0,-3.5622,-3.6299,-3.7043,-3.7246,0.0,0.0,-3.9614,-4.0358,-4.161,-4.2455,-4.3267,-4.4181,-4.4811,-4.5576,-4.6797,-4.6958,-4.7304,-4.8066,-4.7338,-4.6607,-4.6435,-4.667,-4.6841,-4.6895,-4.6925,-4.6943,-4.6978,-4.6916,-4.68,-4.683,-4.68,-4.683,-4.683,-4.683,-4.683,-4.683,-4.683,-4.683,-4.68,-4.683,-4.68,-4.6741,-4.6022,-4.5274,-4.5274,-4.5304,-4.5304,-5.3247,-5.2841,-5.2841,-5.2604,-5.2198,-5.1455,-5.1217,-5.1217,-5.141,-5.1298,-5.0983,-5.097,-5.0697,-5.0327,-5.0565,-5.0664,-5.0779,-5.1317,-5.1502,-5.1341,-5.1322,-5.1109,-5.0806,-5.0345,-4.9706,-4.8919,-4.8767,-4.8243,-4.7293,-4.6887,-4.6515,-4.6177,-4.5432,-4.4857,-4.4423,-4.4519,-4.4581,-4.4581,-4.4581,-4.4581,-4.4581,-4.3809,-4.3064,-4.232,-4.1576,-4.0865,-4.0146,-4.0113,-3.991,-3.9478,-3.9174,-3.8633,-3.7845,-3.7168,-3.6626,0.0,0.0,0.0,0.0,0.0,0.0,0.0,0.0,0.0,0.0,0.0,-3.6614,-3.6614,-3.7043,-3.7584,-3.8328,-3.8667,-3.9343,-4.046,-4.0865,-4.1542,-4.2658,-4.347,-4.4248,-4.4993,-4.5949,-4.6806,-4.7494,-4.7773,-4.8155,-4.9094,-4.8918,-4.8547,-4.8068,-4.8181,-4.827,-4.8211,-4.8091,-4.7884,-4.7679,-4.7495,-4.7396,-4.7309,-4.7309,-4.7309,-4.7309,-4.7309,-4.7309,-4.7309,-4.7309,-4.7309,-4.7309,-4.7309,-4.7309,-4.7219,-4.6711,-4.6232,-4.6202,-4.6202,-4.6202,-5.3585,-5.3518,-5.3518,-5.3518,-5.3382,-5.2097,-5.1489,-5.1522,-5.1683,-5.1711,-5.1673,-5.2042,-5.2278,-5.2523,-5.2869,-5.3041,-5.307,-5.3352,-5.3407,-5.3296,-5.2592,-5.2018,-5.1517,-5.0856,-5.0161,-4.9535,-4.9471,-4.9014,-4.8041,-4.797,-4.7567,-4.6921,-4.621,-4.5805,-4.5703,-4.5026,-4.4682,-4.4615,-4.4581,-4.4581,-4.4581,-4.391,-4.3166,-4.232,-4.1677,-4.0933,-4.0146,-4.0113,-4.0113,-4.0079,-3.9503,-3.9073,-3.8971,-3.7777,-3.7032,0.0,-3.6931,0.0,0.0,0.0,0.0,0.0,0.0,0.0,0.0,-3.7898,-3.799,-3.8159,-3.8193,-3.8531,-3.9343,-4.002,-4.0671,-4.1407,-4.2049,-4.276,-4.3578,-4.4316,-4.506,-4.5906,-4.7094,-4.7845,-4.7858,-4.8464,-4.911,-4.9525,-5.0159,-5.0449,-5.0217,-4.9903,-4.9668,-4.9479,-4.9097,-4.846,-4.7922,-4.7666,-4.7538,-4.7396,-4.7309,-4.7309,-4.7309,-4.7309,-4.7309,-4.7309,-4.7309,-4.7309,-4.7309,-4.7309,-4.7309,-4.7309,-4.7249,-4.7189,-4.7219,-4.7189,-4.7309,-5.4025,-5.3518,-5.3518,-5.3518,-5.3484,-5.3179,-5.3078,-5.3078,-5.3111,-5.2904,-5.2516,-5.1996,-5.2066,-5.2493,-5.2547,-5.27,-5.2788,-5.2846,-5.2875,-5.2846,-5.2672,-5.2172,-5.1373,-5.1205,-5.0557,-4.9535,-4.9471,-4.9252,-4.8781,-4.8176,-4.7804,-4.7699,-4.6955,-4.6312,-4.5737,0.0,0.0,0.0,-4.4581,-4.4581,-4.4581,-4.4445,-4.3707,-4.2354,-4.2151,0.0,-4.0214,-4.0113,-4.0113,-4.0113,-3.9977,0.0,0.0,0.0,0.0,0.0,0.0,0.0,0.0,0.0,0.0,0.0,-3.8667,-3.8362,-3.7956,-3.7898,-3.8396,-3.9571,-3.9681,-4.0257,-4.1542,-4.1779,-4.2185,-4.2868,-4.3105,-4.3741,-4.506,-4.5399,-4.6007,-4.7327,-4.7767,-4.8108,-4.8652,-4.9393,-5.0042,-5.0555,-5.1295,-5.1831,-5.2011,-5.143,-5.079,-5.0143,-4.934,-4.8646,-4.8438,-4.7934,-4.7624,-4.7568,-4.7396,-4.7309,-4.7309,-4.7309,-4.7309,-4.7309,-4.7309,-4.7309,-4.7309,-4.7309,-4.7309,-4.7309,-4.7309,-4.7309,-4.7309,-4.7309,-4.7309,-5.4363,0.0,-5.3653,-5.3518,0.0,-5.3518,-5.3518,-5.3518,-5.3518,-5.3381,-5.3236,-5.2861,-5.2917,-5.3263,-5.3418,-5.351,-5.3602,-5.3753,-5.3843,-5.3843,-5.3396,-5.2989,-5.2389,-5.1661,-5.0873,-5.0047,-4.9706,-4.932,-4.8984,-4.8646,-4.8443,-4.8443,-4.7733,-4.6989,-4.6244,-4.55,-4.4987,-4.4615,-4.4581,-4.4581,-4.4581,-4.4581,-4.4045,-4.2895,0.0,0.0,0.0,0.0,0.0,0.0,0.0,0.0,0.0,0.0,0.0,-3.8464,-3.843,-3.843,-3.8464,-3.8768,-3.914,-3.9537,-3.9884,-3.9918,-3.9546,-3.9546,-3.9986,-4.106,-4.1204,-4.1644,-4.2726,-4.2861,-4.3301,-4.4356,-4.4553,-4.4993,-4.6041,-4.6583,-4.709,-4.7736,-4.821,-4.8612,-4.8951,-4.9627,-5.034,-5.0986,-5.1729,-5.2371,-5.277,-5.2307,-5.1549,-5.0647,-4.9789,-4.9138,-4.88,-4.8427,-4.8007,-4.7837,-4.7581,-4.7482,-4.7482,-4.7366,-4.7309,-4.7309,-4.7309,-4.7309,-4.7309,-4.7309,-4.7309,-4.7309,-4.7309,-4.7309,-4.7309,-4.7309,-4.7309,-5.4837,-5.4532,-5.3923,-5.3619,-5.3518,-5.3518,-5.3518,-5.3518,0.0,0.0,0.0,-5.3717,-5.3816,-5.4013,-5.4271,-5.4434,-5.4431,-5.4683,-5.4838,-5.4803,-5.4148,-5.3675,-5.341,-5.2166,-5.1202,-5.0564,-4.9953,-4.946,-4.9018,-4.9018,-4.9018,-4.8951,-4.8379,-4.7665,-4.6752,-4.5359,-4.4581,-4.4581,-4.4581,-4.4581,-4.4581,-4.4581,-4.4215,-4.3409,-4.2692,-4.1948,-4.1238,-4.0519,-4.0113,-4.0113,-4.0113,-4.0113,-4.0079,-3.9537,-3.9199,-3.9174,-3.9174,-3.9174,-3.9208,-3.991,-4.0383,-4.0485,-4.1035,-4.1339,-4.1238,-4.1305,-4.1711,-4.2455,-4.2489,-4.2794,-4.3538,-4.3747,-4.4316,-4.5568,-4.5805,-4.6177,-4.6887,-4.753,-4.7906,-4.8108,-4.8646,-4.9052,-4.9221,-4.9864,-5.0574,-5.1319,-5.2098,-5.2639,-5.301,-5.259,-5.1878,-5.1102,-5.0377,-4.9781,-4.93,-4.8893,-4.8604,-4.826,-4.7964,-4.7752,-4.7709,-4.7495,-4.7396,-4.7396,-4.7352,-4.7309,-4.7309,-4.7309,-4.7309,-4.7309,-4.7309,-4.7309,-4.7309,-4.7309,-4.7309,-5.575,-5.4566,-5.4499,-5.4059,-5.3518,-5.3518,-5.3518,-5.3518,-5.3518,-5.3584,-5.3717,-5.3717,-5.3816,-5.398,-5.4045,-5.4112,-5.4078,-5.411,-5.4143,-5.4143,-5.404,-5.3597,-5.2914,-5.2675,-5.1862,-5.0515,-5.0314,-4.9814,-4.9117,-4.9018,-4.9018,-4.8984,-4.8917,-4.8139,-4.6786,-4.5331,-4.4581,-4.4581,-4.4581,-4.4581,-4.4581,-4.4581,-4.4215,-4.3409,-4.2692,-4.1948,-4.1238,-4.0493,-4.0113,-4.0113,-4.0113,-4.0113,-4.0113,-3.9977,-3.9943,-3.9943,-3.9943,-3.9943,-3.9943,-4.0629,-4.1305,-4.1914,-4.211,-4.188,-4.1271,-4.1779,-4.2455,-4.3166,-4.3267,-4.3572,-4.4316,-4.4993,-4.5432,-4.5737,-4.6278,-4.6955,-4.7665,-4.7868,-4.8173,-4.8714,-4.8917,-4.9255,-4.983,-5.0541,-5.1251,-5.2029,-5.2706,-5.3281,-5.3145,-5.2555,-5.1951,-5.1549,-5.0914,-5.037,-5.0018,-4.9541,-4.9138,-4.8914,-4.851,-4.8218,-4.8187,-4.788,-4.7624,-4.7611,-4.7482,-4.7352,-4.7309,-4.7309,-4.7309,-4.7309,-4.7309,-4.7309,-4.7309,-4.7309,-4.7309,-5.6427,-5.5716,-5.4938,-5.4397,-5.4059,-5.3653,-5.3518,-5.3518,-5.3518,-5.3517,-5.3584,-5.3584,-5.3651,-5.3751,-5.3816,-5.3849,-5.3849,-5.3948,-5.398,-5.398,-5.398,-5.3809,-5.3434,-5.3024,-5.2382,-5.1575,-5.0759,-5.0088,-4.9593,-4.9187,-4.9018,-4.8984,-4.8612,-4.7868,-4.6786,-4.5737,-4.4993,-4.4615,-4.4581,-4.4581,-4.4581,-4.4581,-4.4445,-4.4045,-4.2929,-4.2151,-4.1813,-4.0696,-4.0113,-4.0113,-4.0113,-4.0113,-4.0113,-4.0113,-4.0113,-4.0113,-4.046,-4.0696,-4.0722,-4.1373,-4.1914,-4.2286,-4.2658,-4.2794,-4.2455,-4.2692,-4.3234,-4.3978,-4.4418,-4.479,-4.5162,-4.5872,-4.6447,-4.6887,-4.7225,-4.7699,-4.8342,-4.8511,-4.8646,-4.8951,-4.9018,-4.9289,-4.9999,-5.0744,-5.1455,-5.2198,-5.301,-5.345,-5.3382,-5.2972,-5.2485,-5.2092,-5.1471,-5.0946,-5.057,-5.0214,-4.986,-4.9533,-4.9128,-4.8852,-4.8811,-4.8385,-4.8049,-4.7964,-4.7709,-4.7482,-4.7482,-4.7396,-4.7309,-4.7309,-4.7309,-4.7309,-4.7309,-4.7309,-4.7309,-5.6934,-5.6664,-5.5581,-5.4905,-5.4532,-5.3822,-5.3518,-5.3518,-5.3518,-5.3518,-5.3518,-5.3518,-5.3518,-5.3518,-5.3618,-5.3651,-5.3684,-5.3816,-5.3882,-5.3916,-5.3882,-5.3916,-5.3848,-5.3236,-5.283,-5.2428,-5.1206,-5.043,-5.0065,-4.9357,-4.9018,-4.8917,-4.8274,-4.7631,-4.7022,-4.6143,-4.5432,-4.4857,-4.4682,-4.4581,-4.4581,-4.4581,-4.4581,-4.4513,-4.3267,-4.2557,-4.2489,-4.1102,-4.035,-4.035,-4.018,-4.018,-4.0324,-4.035,-4.0417,-4.062,-4.1136,-4.1542,-4.1711,-4.2219,-4.2625,-4.2794,-4.3335,-4.3747,-4.391,-4.3916,-4.4147,-4.479,-4.55,-4.594,-4.6041,-4.6616,-4.7293,-4.7838,-4.8071,-4.8376,-4.8883,-4.9018,-4.9018,-4.9018,-4.912,-4.956,-5.027,-5.098,-5.1758,-5.2536,-5.3145,-5.3484,-5.3484,-5.3348,-5.3007,-5.2589,-5.2089,-5.1614,-5.114,-5.0914,-5.064,-5.0214,-4.9821,-4.9622,-4.9461,-4.9015,-4.8593,-4.848,-4.8091,-4.7837,-4.7752,-4.7538,-4.7439,-4.7396,-4.7352,-4.7309,-4.7309,-4.7309,-4.7309,-5.7408,-5.6833,-5.663,-5.5818,-5.4566,-5.3822,-5.3518,-5.3518,-5.3518,-5.3518,-5.3518,-5.3518,-5.3518,-5.3518,-5.3551,-5.3517,-5.3551,-5.3517,-5.3585,-5.3585,-5.3551,-5.3517,-5.3551,-5.345,-5.3043,-5.2333,-5.152,-5.0809,-5.0135,-4.9357,-4.9018,-4.8917,-4.8274,-4.7872,-4.7635,-4.6413,-4.5703,-4.5602,-4.4953,-4.4581,-4.4581,-4.4581,-4.4581,-4.4581,-4.3775,-4.3301,-4.3206,-4.188,-4.1102,-4.1068,-4.0485,-4.0426,-4.1001,-4.1102,-4.1407,-4.1982,-4.2151,-4.2489,-4.3105,-4.324,-4.3606,-4.431,-4.4412,-4.4756,-4.5365,-4.5466,-4.55,-4.5737,-4.6278,-4.6684,-4.6752,-4.7361,-4.7834,-4.7973,-4.8511,-4.8951,-4.8984,-4.9018,-4.9018,-4.9018,-4.956,-5.027,-5.1014,-5.1758,-5.2503,-5.3179,-5.3382,-5.3518,-5.3484,-5.3348,-5.3213,-5.3076,-5.2731,-5.2343,-5.1951,-5.1733,-5.1401,-5.1027,-5.0679,-5.0448,-5.0253,-4.9781,-4.9219,-4.9178,-4.8646,-4.8301,-4.8175,-4.788,-4.7581,-4.7581,-4.7452,-4.7309,-4.7309,-4.7309,-4.7309,-5.7712,-5.7408,-5.6968,-5.5953,-5.4634,-5.4262,-5.389,-5.3518,-5.3518,-5.3518,-5.3518,-5.3518,-5.3518,-5.3518,-5.3518,-5.3518,-5.3518,-5.3518,-5.3518,-5.3518,-5.3518,-5.3518,-5.3518,-5.3518,-5.3315,-5.2976,-5.2232,-5.1454,-5.0676,-4.9593,-4.9018,-4.8984,-4.868,-4.8342,-4.7872,-4.7297,-4.6616,-4.5737,-4.5399,-4.5026,-4.4649,-4.4581,-4.4581,-4.4513,-4.3809,-4.3403,-4.3335,-4.2388,-4.1847,-4.1847,-4.1542,-4.1508,-4.1813,-4.1847,-4.1982,-4.2286,-4.2726,-4.3301,-4.4045,-4.4113,-4.4248,-4.4581,-4.4993,-4.5399,-4.5703,-4.6481,-4.7022,-4.7027,-4.7293,-4.7462,-4.753,-4.8139,-4.8545,-4.8612,-4.8849,-4.9018,-4.9018,-4.9018,-4.9154,-4.956,-4.9898,-5.0574,-5.1657,-5.2536,-5.3112,-5.345,-5.3518,-5.3518,-5.3518,-5.345,-5.3382,-5.3382,-5.3213,-5.2938,-5.2485,-5.2274,-5.2023,-5.1729,-5.1434,-5.121,-5.0984,-5.0486,-5.0018,-5.0018,-4.9381,-4.8934,-4.8893,-4.8427,-4.8007,-4.7922,-4.7666,-4.7409,-4.7309,-4.7309,-4.7309,-5.7954,-5.7853,-5.7139,-5.6055,-5.4905,-5.4668,-5.416,-5.3551,-5.3518,-5.3518,-5.3518,-5.3518,-5.3518,-5.3518,-5.3518,-5.3518,-5.3518,-5.3518,-5.3518,-5.3518,-5.3518,-5.3518,-5.3518,-5.3518,-5.3518,-5.3382,-5.2672,-5.1826,-5.0913,-4.9898,-4.9221,-4.9052,-4.9018,-4.8748,-4.821,-4.8041,-4.7394,-4.6413,-4.6109,-4.5635,-4.4993,-4.4891,-4.479,-4.4581,-4.4045,-4.3741,-4.3707,-4.2997,-4.2591,-4.2591,-4.2422,-4.2388,-4.2591,-4.2591,-4.2692,-4.2929,-4.3436,-4.3978,-4.4581,-4.4756,-4.4891,-4.4959,-4.5568,-4.6109,-4.6447,-4.7293,-4.7939,-4.8173,-4.8206,-4.8206,-4.8274,-4.868,-4.8984,-4.9018,-4.9018,-4.9018,-4.9018,-4.912,-4.9526,-4.9999,-5.0507,-5.115,-5.2401,-5.3112,-5.3484,-5.3484,-5.3518,-5.3518,-5.3518,-5.3518,-5.3484,-5.3518,-5.3484,-5.328,-5.2868,-5.2731,-5.259,-5.2343,-5.2056,-5.1911,-5.1762,-5.1247,-5.0838,-5.0761,-5.0097,-4.9661,-4.9582,-4.9138,-4.8438,-4.826,-4.7922,-4.7581,-4.7439,-4.7352,-4.7309,-5.8205,-5.8033,-5.7175,-5.6393,-5.558,-5.4905,-5.4194,-5.3585,-5.3518,-5.3518,-5.3518,-5.3518,-5.3518,-5.3518,-5.3518,-5.3518,-5.3518,-5.3518,-5.3518,-5.3518,-5.3518,-5.3518,-5.3518,-5.3518,-5.3518,-5.345,-5.2773,-5.1691,-5.0338,-5.0101,-4.9695,-4.9086,-4.9052,-4.9018,-4.8815,-4.8274,-4.7872,-4.7601,-4.7056,-4.638,-4.5771,-4.5669,-4.5331,-4.4784,-4.4519,-4.4513,-4.4418,-4.3775,-4.3369,-4.3341,-4.276,-4.2658,-4.3267,-4.3369,-4.3673,-4.4344,-4.4513,-4.4547,-4.4688,-4.5263,-4.5669,-4.5737,-4.6312,-4.7022,-4.75,-4.7868,-4.8274,-4.8883,-4.8883,-4.8883,-4.8883,-4.8917,-4.9018,-4.9018,-4.9018,-4.9018,-4.9052,-4.9593,-4.9999,-5.0371,-5.1352,-5.2334,-5.3281,-5.3484,-5.3518,-5.3518,-5.3518,-5.3518,-5.3518,-5.3518,-5.3518,-5.3518,-5.3484,-5.3416,-5.3213,-5.311,-5.3041,-5.2834,-5.259,-5.252,-5.231,-5.2095,-5.1806,-5.1475,-5.0876,-5.0486,-5.0331,-4.9821,-4.9056,-4.8563,-4.8049,-4.7709,-4.7538,-4.7396,-4.7309,-5.8385,-5.8171,-5.7683,-5.707,-5.6359,-5.5615,-5.4871,-5.4194,-5.3687,-5.3518,-5.3518,-5.3518,-5.3518,-5.3518,-5.3518,-5.3518,-5.3518,-5.3518,-5.3518,-5.3518,-5.3518,-5.3518,-5.3518,-5.3518,-5.3518,-5.345,-5.3213,-5.2536,-5.1555,-5.1048,-5.0439,-4.983,-4.9695,-4.9492,-4.9052,-4.8748,-4.8379,-4.7906,-4.7601,-4.7158,-4.6481,-4.6413,-4.6244,-4.6003,-4.5089,-4.4581,-4.4581,-4.4282,-4.4181,-4.4181,-4.3876,-4.3876,-4.4113,-4.4147,-4.4248,-4.4615,-4.5026,-4.5297,-4.5399,-4.6007,-4.6413,-4.6447,-4.709,-4.7597,-4.7906,-4.8342,-4.8748,-4.8951,-4.9018,-4.9018,-4.9018,-4.9018,-4.9018,-4.9018,-4.9018,-4.9221,-4.9593,-4.9965,-5.0405,-5.1386,-5.2435,-5.3179,-5.3382,-5.3518,-5.3518,-5.3518,-5.3518,-5.3518,-5.3518,-5.3518,-5.3518,-5.3518,-5.3518,-5.3484,-5.3416,-5.3382,-5.3314,-5.3178,-5.3007,-5.2903,-5.2731,-5.2555,-5.2238,-5.2131,-5.1623,-5.1215,-5.1027,-5.0377,-4.963,-4.8934,-4.8396,-4.7964,-4.7666,-4.7495,-4.7396,-5.8492,-5.8171,-5.7954,-5.7476,-5.6765,-5.6292,-5.5513,-5.46,-5.4059,-5.3721,-5.3551,-5.3518,-5.3518,-5.3518,-5.3518,-5.3518,-5.3518,-5.3518,-5.3518,-5.3518,-5.3518,-5.3518,-5.3518,-5.3518,-5.3518,-5.3518,-5.3518,-5.3078,-5.2334,-5.1826,-5.1183,-5.0507,-5.0236,-4.9864,-4.939,-4.9154,-4.8714,-4.8342,-4.8244,-4.7902,-4.7259,-4.7158,-4.7022,-4.6684,-4.5833,-4.5162,-4.4959,-4.4716,-4.4581,-4.4581,-4.4581,-4.4581,-4.4581,-4.4581,-4.4716,-4.4987,-4.5399,-4.5838,-4.6109,-4.6752,-4.7158,-4.7192,-4.7834,-4.8274,-4.8277,-4.8748,-4.8984,-4.9018,-4.9018,-4.9018,-4.9052,-4.9221,-4.9357,-4.9357,-4.9357,-4.9661,-5.0338,-5.0676,-5.1386,-5.2401,-5.3078,-5.345,-5.3518,-5.3518,-5.3518,-5.3518,-5.3518,-5.3518,-5.3518,-5.3518,-5.3518,-5.3518,-5.3518,-5.3518,-5.345,-5.3484,-5.3484,-5.3314,-5.328,-5.3178,-5.3076,-5.287,-5.2765,-5.2696,-5.2416,-5.2023,-5.1512,-5.0914,-5.0221,-4.943,-4.8852,-4.8385,-4.8007,-4.7624,-4.7482,-5.8526,-5.8207,-5.7991,-5.7509,-5.6934,-5.6765,-5.5919,-5.4803,-5.4566,-5.4126,-5.3551,-5.3518,-5.3518,-5.3518,-5.3518,-5.3518,-5.3518,-5.3518,-5.3518,-5.3518,-5.3518,-5.3518,-5.3518,-5.3518,-5.3518,-5.3518,-5.3518,-5.3112,-5.2435,-5.2334,-5.1961,-5.1217,-5.0608,-5.0236,-5.0033,-4.9424,-4.9052,-4.8917,-4.8883,-4.8612,-4.8007,-4.7872,-4.7631,-4.7022,-4.6786,-4.6413,-4.5771,-4.5094,-4.4784,-4.4682,-4.4682,-4.4649,-4.4716,-4.4716,-4.4959,-4.5602,-4.5771,-4.6143,-4.6752,-4.7496,-4.7906,-4.8003,-4.8578,-4.8883,-4.8883,-4.8951,-4.9018,-4.9018,-4.9086,-4.9086,-4.9221,-4.9695,-5.0067,-5.0067,-5.0033,-5.0439,-5.115,-5.186,-5.2604,-5.3247,-5.3484,-5.3518,-5.3518,-5.3518,-5.3518,-5.3518,-5.3518,-5.3518,-5.3518,-5.3518,-5.3518,-5.3518,-5.3518,-5.3518,-5.3518,-5.3518,-5.3518,-5.3484,-5.345,-5.3382,-5.3348,-5.3179,-5.311,-5.3041,-5.2835,-5.2449,-5.1878,-5.1327,-5.08,-5.0104,-4.947,-4.8811,-4.8385,-4.8007,-4.7624,-5.8597,-5.8384,-5.8027,-5.778,-5.7476,-5.7002,-5.6224,-5.5344,-5.4837,-5.416,-5.3585,-5.3518,-5.3518,-5.3518,-5.3518,-5.3518,-5.3518,-5.3518,-5.3518,-5.3518,-5.3518,-5.3518,-5.3518,-5.3518,-5.3518,-5.3518,-5.3518,-5.3382,-5.3179,-5.3112,-5.2739,-5.2029,-5.1725,-5.1048,-5.0168,-4.983,-4.956,-4.9052,-4.9018,-4.8883,-4.868,-4.868,-4.8545,-4.8308,-4.7834,-4.7398,-4.7196,-4.6515,-4.5872,-4.5399,-4.5365,-4.5365,-4.5365,-4.5365,-4.5703,-4.6413,-4.6955,-4.7293,-4.7567,-4.8206,-4.8646,-4.868,-4.8883,-4.8984,-4.9018,-4.9018,-4.9018,-4.9086,-4.9424,-4.9729,-4.9864,-5.0439,-5.0642,-5.0135,-5.0541,-5.115,-5.1894,-5.2604,-5.3179,-5.3416,-5.3518,-5.3518,-5.3518,-5.3518,-5.3518,-5.3518,-5.3518,-5.3518,-5.3518,-5.3518,-5.3518,-5.3518,-5.3518,-5.3518,-5.3518,-5.3518,-5.3518,-5.3518,-5.3518,-5.3518,-5.345,-5.3416,-5.3382,-5.3314,-5.311,-5.2765,-5.2272,-5.1769,-5.129,-5.0761,-5.0104,-4.943,-4.8852,-4.8396,-4.8091,-5.8702,-5.8455,-5.8063,-5.7881,-5.7848,-5.7374,-5.6765,-5.6089,-5.5344,-5.46,-5.3991,-5.3619,-5.3518,-5.3518,-5.3518,-5.3518,-5.3518,-5.3518,-5.3518,-5.3518,-5.3518,-5.3518,-5.3518,-5.3518,-5.3518,-5.3518,-5.3518,-5.3518,-5.3518,-5.3484,-5.3247,-5.2807,-5.2469,-5.1894,-5.0947,-5.0642,-5.0135,-4.9526,-4.9424,-4.9289,-4.9052,-4.9018,-4.9018,-4.8951,-4.8545,-4.8342,-4.8274,-4.7834,-4.7158,-4.6312,-4.6109,-4.6109,-4.6109,-4.6143,-4.6447,-4.7124,-4.7601,-4.7973,-4.8308,-4.8714,-4.9018,-4.9018,-4.9018,-4.9018,-4.9052,-4.9187,-4.939,-4.9492,-5.0067,-5.0507,-5.0608,-5.1183,-5.1352,-5.098,-5.1319,-5.1961,-5.2638,-5.3179,-5.345,-5.3518,-5.3518,-5.3518,-5.3518,-5.3518,-5.3518,-5.3518,-5.3518,-5.3518,-5.3518,-5.3518,-5.3518,-5.3518,-5.3518,-5.3518,-5.3518,-5.3518,-5.3518,-5.3518,-5.3518,-5.3518,-5.3484,-5.3484,-5.345,-5.3382,-5.3213,-5.311,-5.2626,-5.2238,-5.1806,-5.1252,-5.0685,-5.0065,-4.947,-4.9015,-4.8635,-5.8771,-5.8455,-5.8063,-5.7881,-5.7881,-5.7814,-5.7374,-5.6731,-5.6089,-5.5344,-5.4634,-5.3957,-5.3619,-5.3585,-5.3585,-5.3518,-5.3518,-5.3518,-5.3518,-5.3518,-5.3518,-5.3518,-5.3518,-5.3518,-5.3518,-5.3518,-5.3518,-5.3518,-5.3518,-5.3518,-5.3484,-5.3348,-5.2773,-5.2334,-5.2029,-5.1555,-5.0913,-5.027,-5.0168,-4.983,-4.9187,-4.912,-4.9052,-4.9018,-4.8951,-4.8917,-4.8883,-4.8781,-4.8206,-4.7056,-4.6786,-4.6718,-4.6819,-4.6853,-4.7192,-4.7872,-4.7939,-4.8311,-4.8815,-4.8951,-4.9086,-4.9154,-4.9187,-4.912,-4.9357,-4.9864,-5.0135,-5.0202,-5.0811,-5.1252,-5.1386,-5.1928,-5.2266,-5.2367,-5.2334,-5.2706,-5.3348,-5.3484,-5.3518,-5.3518,-5.3518,-5.3518,-5.3518,-5.3518,-5.3518,-5.3518,-5.3518,-5.3518,-5.3518,-5.3518,-5.3518,-5.3518,-5.3518,-5.3518,-5.3518,-5.3518,-5.3518,-5.3518,-5.3518,-5.3518,-5.3518,-5.3518,-5.3518,-5.3416,-5.3382,-5.3247,-5.3076,-5.2661,-5.2307,-5.1842,-5.129,-5.0685,-5.0143,-4.9701,-4.9178,-5.8667,-5.8455,-5.8063,-5.7881,-5.7881,-5.7881,-5.7476,-5.6833,-5.6596,-5.6055,-5.5378,-5.4634,-5.4296,-5.4262,-5.3754,-5.3518,-5.3551,-5.3518,-5.3518,-5.3518,-5.3518,-5.3518,-5.3518,-5.3518,-5.3518,-5.3518,-5.3518,-5.3518,-5.3518,-5.3518,-5.3518,-5.3484,-5.3281,-5.2875,-5.2334,-5.2131,-5.1657,-5.1048,-5.0913,-5.0574,-4.9932,-4.9796,-4.9526,-4.9052,-4.9052,-4.9052,-4.9018,-4.9018,-4.8612,-4.7699,-4.7056,-4.7056,-4.7564,-4.7631,-4.7936,-4.8511,-4.8714,-4.8781,-4.8951,-4.9086,-4.9289,-4.9729,-4.9796,-5.0033,-5.0576,-5.0811,-5.0913,-5.1048,-5.1589,-5.2029,-5.2164,-5.2706,-5.3078,-5.3179,-5.3112,-5.3213,-5.3416,-5.3518,-5.3518,-5.3518,-5.3518,-5.3518,-5.3518,-5.3518,-5.3518,-5.3518,-5.3518,-5.3518,-5.3518,-5.3518,-5.3518,-5.3518,-5.3518,-5.3518,-5.3518,-5.3518,-5.3518,-5.3518,-5.3518,-5.3518,-5.3518,-5.3518,-5.3518,-5.3484,-5.345,-5.3348,-5.3247,-5.2973,-5.2661,-5.2343,-5.1915,-5.1327,-5.08,-5.0299,-4.986,-5.8597,-5.8348,-5.8027,-5.7881,-5.7881,-5.7881,-5.7645,-5.7239,-5.69,-5.6596,-5.6055,-5.5378,-5.5074,-5.4972,-5.4296,-5.3957,-5.3923,-5.3653,-5.3518,-5.3518,-5.3518,-5.3518,-5.3518,-5.3518,-5.3518,-5.3518,-5.3518,-5.3518,-5.3518,-5.3518,-5.3518,-5.3518,-5.3518,-5.3247,-5.2909,-5.2773,-5.2435,-5.1826,-5.1657,-5.1319,-5.0642,-5.0574,-5.0371,-4.9999,-4.9932,-4.983,-4.956,-4.9492,-4.912,-4.8443,-4.797,-4.7936,-4.8308,-4.8345,-4.8578,-4.9018,-4.9255,-4.9458,-4.9526,-4.9729,-5.0135,-5.0473,-5.0574,-5.0777,-5.1117,-5.1454,-5.1691,-5.1725,-5.2367,-5.2739,-5.2875,-5.3247,-5.3484,-5.3484,-5.3518,-5.3518,-5.3518,-5.3518,-5.3518,-5.3518,-5.3518,-5.3518,-5.3518,-5.3518,-5.3518,-5.3518,-5.3518,-5.3518,-5.3518,-5.3518,-5.3518,-5.3518,-5.3518,-5.3518,-5.3518,-5.3518,-5.3518,-5.3518,-5.3518,-5.3518,-5.3518,-5.3518,-5.3518,-5.3518,-5.3518,-5.3484,-5.3348,-5.3247,-5.3008,-5.2696,-5.2345,-5.1987,-5.1475,-5.1027,-5.0563,-5.8526,-5.8241,-5.7991,-5.7918,-5.7918,-5.7881,-5.7848,-5.7746,-5.7239,-5.6968,-5.6765,-5.6156,-5.5852,-5.5749,-5.5074,-5.4702,-5.4668,-5.4025,-5.3653,-5.3551,-5.3518,-5.3518,-5.3518,-5.3518,-5.3518,-5.3518,-5.3518,-5.3518,-5.3518,-5.3518,-5.3518,-5.3518,-5.3518,-5.3518,-5.3382,-5.3416,-5.3078,-5.257,-5.2435,-5.2063,-5.1454,-5.1319,-5.1183,-5.098,-5.0914,-5.071,-5.0371,-5.0168,-4.9898,-4.9289,-4.912,-4.8951,-4.9052,-4.912,-4.9255,-4.9424,-4.9932,-5.0202,-5.027,-5.0744,-5.1183,-5.1285,-5.1319,-5.1388,-5.1658,-5.2131,-5.2435,-5.2435,-5.3078,-5.3348,-5.3416,-5.3518,-5.3518,-5.3518,-5.3518,-5.3518,-5.3518,-5.3518,-5.3518,-5.3518,-5.3518,-5.3518,-5.3518,-5.3518,-5.3518,-5.3518,-5.3518,-5.3518,-5.3518,-5.3518,-5.3518,-5.3518,-5.3518,-5.3518,-5.3518,-5.3518,-5.3518,-5.3518,-5.3518,-5.3518,-5.3518,-5.3518,-5.3518,-5.3518,-5.3518,-5.3518,-5.3484,-5.3348,-5.3213,-5.3076,-5.2731,-5.2414,-5.2059,-5.1729,-5.1285,-5.8736,-5.8419,-5.8241,-5.8027,-5.7918,-5.7881,-5.7881,-5.7848,-5.7712,-5.7577,-5.7476,-5.6867,-5.6596,-5.6528,-5.5852,-5.548,-5.5378,-5.4702,-5.4093,-5.3518,-5.3518,-5.3518,-5.3518,-5.3518,-5.3518,-5.3518,-5.3518,-5.3518,-5.3518,-5.3518,-5.3518,-5.3518,-5.3518,-5.3518,-5.3518,-5.3484,-5.345,-5.3247,-5.3213,-5.2807,-5.2232,-5.2063,-5.186,-5.142,-5.1286,-5.1217,-5.1048,-5.098,-5.0879,-5.0507,-4.9763,-4.939,-4.9763,-4.9864,-5.0067,-5.0507,-5.0777,-5.098,-5.1014,-5.1217,-5.1488,-5.2029,-5.2097,-5.2334,-5.2976,-5.3044,-5.3213,-5.3247,-5.3416,-5.3518,-5.3518,-5.3518,-5.3518,-5.3518,-5.3518,-5.3518,-5.3518,-5.3518,-5.3518,-5.3518,-5.3518,-5.3518,-5.3518,-5.3518,-5.3518,-5.3518,-5.3518,-5.3518,-5.3518,-5.3518,-5.3518,-5.3518,-5.3518,-5.3518,-5.3518,-5.3518,-5.3518,-5.3518,-5.3518,-5.3518,-5.3518,-5.3518,-5.3518,-5.3518,-5.3518,-5.3518,-5.3518,-5.3484,-5.3382,-5.3213,-5.3076,-5.28,-5.252,-5.2269,-5.1984,-5.8736,-5.8384,-5.8207,-5.8063,-5.7918,-5.7881,-5.7881,-5.7881,-5.7881,-5.7881,-5.7814,-5.7442,-5.7306,-5.7239,-5.6596,-5.6224,-5.6055,-5.548,-5.4938,-5.4532,-5.4262,-5.4025,-5.389,-5.3653,-5.3518,-5.3518,-5.3518,-5.3518,-5.3518,-5.3518,-5.3518,-5.3518,-5.3518,-5.3518,-5.3518,-5.3518,-5.3518,-5.3484,-5.3518,-5.3281,-5.2942,-5.2875,-5.2773,-5.2367,-5.2266,-5.2164,-5.1758,-5.1725,-5.1522,-5.1083,-5.0507,-5.0202,-5.0507,-5.0608,-5.0845,-5.1116,-5.1589,-5.1691,-5.1758,-5.2097,-5.2503,-5.2807,-5.2875,-5.3078,-5.3382,-5.3518,-5.3518,-5.3518,-5.3518,-5.3518,-5.3518,-5.3518,-5.3518,-5.3518,-5.3518,-5.3518,-5.3518,-5.3518,-5.3518,-5.3518,-5.3518,-5.3518,-5.3518,-5.3518,-5.3518,-5.3518,-5.3518,-5.3518,-5.3518,-5.3518,-5.3518,-5.3518,-5.3518,-5.3518,-5.3518,-5.3518,-5.3518,-5.3518,-5.3518,-5.3518,-5.3518,-5.3518,-5.3518,-5.3518,-5.3518,-5.3518,-5.3518,-5.3518,-5.3518,-5.3382,-5.3246,-5.3076,-5.2938,-5.2694,-5.2449,-5.8806,-5.8278,-5.8277,-5.8133,-5.7918,-5.7881,-5.7881,-5.7881,-5.7881,-5.7881,-5.7881,-5.7881,-5.778,-5.7712,-5.7273,-5.6934,-5.663,-5.6224,-5.575,-5.5412,-5.4972,-5.4803,-5.4634,-5.4296,-5.3923,-5.3721,-5.3551,-5.3518,-5.3518,-5.3518,-5.3518,-5.3518,-5.3518,-5.3518,-5.3518,-5.3518,-5.3518,-5.3518,-5.3518,-5.3484,-5.3416,-5.3416,-5.3382,-5.3315,-5.3281,-5.3044,-5.2604,-5.2469,-5.2232,-5.1623,-5.1555,-5.1557,-5.1555,-5.1386,-5.1489,-5.1589,-5.2232,-5.2469,-5.257,-5.2976,-5.3382,-5.3518,-5.3484,-5.3484,-5.3518,-5.3518,-5.3518,-5.3518,-5.3518,-5.3518,-5.3518,-5.3518,-5.3518,-5.3518,-5.3518,-5.3518,-5.3518,-5.3518,-5.3518,-5.3518,-5.3518,-5.3518,-5.3518,-5.3518,-5.3518,-5.3518,-5.3518,-5.3518,-5.3518,-5.3518,-5.3518,-5.3518,-5.3518,-5.3518,-5.3518,-5.3518,-5.3518,-5.3518,-5.3518,-5.3518,-5.3518,-5.3518,-5.3518,-5.3518,-5.3518,-5.3518,-5.3518,-5.3518,-5.3484,-5.3484,-5.3416,-5.328,-5.3144,-5.3076,-5.2868,-5.9249,-5.8597,-5.8491,-5.8207,-5.7918,-5.7881,-5.7881,-5.7881,-5.7881,-5.7881,-5.7881,-5.7881,-5.7881,-5.7814,-5.7814,-5.7408,-5.6934,-5.6664,-5.6359,-5.5953,-5.5615,-5.5513,-5.5446,-5.5209,-5.4905,-5.4363,-5.3957,-5.3687,-5.3518,-5.3518,-5.3518,-5.3518,-5.3518,-5.3518,-5.3518,-5.3518,-5.3518,-5.3518,-5.3518,-5.3518,-5.3518,-5.3518,-5.3518,-5.3518,-5.3518,-5.3416,-5.3348,-5.3281,-5.3247,-5.3145,-5.3112,-5.3078,-5.2875,-5.2401,-5.2435,-5.2807,-5.3044,-5.3145,-5.3213,-5.3348,-5.3518,-5.3518,-5.3518,-5.3518,-5.3518,-5.3518,-5.3518,-5.3518,-5.3518,-5.3518,-5.3518,-5.3518,-5.3518,-5.3518,-5.3518,-5.3518,-5.3518,-5.3518,-5.3518,-5.3518,-5.3518,-5.3518,-5.3518,-5.3518,-5.3518,-5.3518,-5.3518,-5.3518,-5.3518,-5.3518,-5.3518,-5.3518,-5.3518,-5.3518,-5.3518,-5.3518,-5.3518,-5.3518,-5.3518,-5.3518,-5.3518,-5.3518,-5.3518,-5.3518,-5.3518,-5.3518,-5.3518,-5.3518,-5.3518,-5.3484,-5.345,-5.3416,-5.3348,-5.3246,-5.3179,-5.9318,-5.8702,-5.8526,-5.8277,-5.7918,-5.7881,-5.7881,-5.7881,-5.7881,-5.7881,-5.7881,-5.7881,-5.7881,-5.7881,-5.7881,-5.7645,-5.7442,-5.734,-5.7137,-5.6833,-5.6494,-5.6292,-5.619,-5.5953,-5.5547,-5.5175,-5.4803,-5.416,-5.3551,-5.3518,-5.3518,-5.3518,-5.3518,-5.3518,-5.3518,-5.3518,-5.3518,-5.3518,-5.3518,-5.3518,-5.3518,-5.3518,-5.3518,-5.3518,-5.3518,-5.3518,-5.3518,-5.3518,-5.3518,-5.3484,-5.3484,-5.3518,-5.3382,-5.3247,-5.3078,-5.3416,-5.3518,-5.3518,-5.3518,-5.3518,-5.3518,-5.3518,-5.3518,-5.3518,-5.3518,-5.3518,-5.3518,-5.3518,-5.3518,-5.3518,-5.3518,-5.3518,-5.3518,-5.3518,-5.3518,-5.3518,-5.3518,-5.3518,-5.3518,-5.3518,-5.3518,-5.3518,-5.3518,-5.3518,-5.3518,-5.3518,-5.3518,-5.3551,-5.3585,-5.3721,-5.3822,-5.3788,-5.3822,-5.3822,-5.3856,-5.3856,-5.389,-5.3822,-5.3788,-5.3788,-5.3653,-5.3721,-5.3619,-5.3518,-5.3518,-5.3518,-5.3518,-5.3518,-5.3518,-5.3518,-5.3484,-5.3484,-5.345,-5.3416,-5.3348,-5.9284,-5.8771,-5.8562,-5.8277,-5.7918,-5.7881,-5.7881,-5.7881,-5.7881,-5.7881,-5.7881,-5.7881,-5.7881,-5.7881,-5.7881,-5.7848,-5.7881,-5.7848,-5.778,-5.7679,-5.7273,-5.7036,-5.6833,-5.6494,-5.6156,-5.5953,-5.5852,-5.5141,-5.4059,-5.3822,-5.3687,-5.3551,-5.3518,-5.3518,-5.3518,-5.3518,-5.3518,-5.3518,-5.3518,-5.3518,-5.3518,-5.3518,-5.3518,-5.3518,-5.3518,-5.3518,-5.3518,-5.3518,-5.3518,-5.3518,-5.3518,-5.3518,-5.3518,-5.3518,-5.3518,-5.3518,-5.3518,-5.3518,-5.3518,-5.3518,-5.3518,-5.3518,-5.3518,-5.3518,-5.3518,-5.3518,-5.3518,-5.3518,-5.3518,-5.3518,-5.3518,-5.3518,-5.3518,-5.3518,-5.3518,-5.3518,-5.3518,-5.3518,-5.3518,-5.3518,-5.3518,-5.3551,-5.3619,-5.3518,-5.3518,-5.3687,-5.3721,-5.3957,-5.4059,-5.4329,-5.4397,-5.4262,-5.4228,-5.4262,-5.4296,-5.4397,-5.4465,-5.4532,-5.4499,-5.4499,-5.4228,-5.4025,-5.3923,-5.3856,-5.3518,-5.3518,-5.3518,-5.3518,-5.3518,-5.3518,-5.3518,-5.3518,-5.3484,-5.3484,-5.3416,-5.9485,-5.8944,-5.8631,-5.8277,-5.7918,-5.7881,-5.7881,-5.7881,-5.7881,-5.7881,-5.7881,-5.7881,-5.7881,-5.7881,-5.7881,-5.7881,-5.7881,-5.7881,-5.7881,-5.7848,-5.7712,-5.7611,-5.7712,-5.7712,-5.7103,-5.6765,-5.6664,-5.5818,-5.4837,-5.4532,-5.416,-5.3788,-5.3687,-5.3551,-5.3653,-5.3551,-5.3518,-5.3518,-5.3518,-5.3518,-5.3518,-5.3518,-5.3518,-5.3518,-5.3518,-5.3518,-5.3518,-5.3518,-5.3518,-5.3518,-5.3518,-5.3518,-5.3518,-5.3518,-5.3518,-5.3518,-5.3518,-5.3518,-5.3518,-5.3518,-5.3518,-5.3518,-5.3518,-5.3518,-5.3518,-5.3518,-5.3518,-5.3518,-5.3518,-5.3518,-5.3518,-5.3551,-5.3518,-5.3653,-5.3788,-5.3721,-5.3687,-5.4126,-5.4059,-5.3957,-5.4126,-5.389,-5.3788,-5.3619,-5.3518,-5.3754,-5.3991,-5.4296,-5.4532,-5.4803,-5.5006,-5.4871,-5.4802,-5.4837,-5.4803,-5.4905,-5.5006,-5.5108,-5.5108,-5.5108,-5.4905,-5.4634,-5.4532,-5.4397,-5.4025,-5.3721,-5.3721,-5.3721,-5.3585,-5.3518,-5.3518,-5.3518,-5.3518,-5.3518,-5.3518,-5.9114,-5.8806,-5.8456,-5.8169,-5.7918,-5.7881,-5.7881,-5.7881,-5.7881,-5.7881,-5.7881,-5.7881,-5.7881,-5.7881,-5.7881,-5.7881,-5.7881,-5.7881,-5.7881,-5.7881,-5.7881,-5.7881,-5.7848,-5.7881,-5.7645,-5.7476,-5.734,-5.6934,-5.6021,-5.5412,-5.5006,-5.4735,-5.4329,-5.416,-5.4059,-5.3687,-5.3551,-5.3518,-5.3518,-5.3518,-5.3518,-5.3518,-5.3518,-5.3518,-5.3518,-5.3518,-5.3518,-5.3518,-5.3518,-5.3518,-5.3518,-5.3518,-5.3518,-5.3518,-5.3518,-5.3518,-5.3518,-5.3518,-5.3518,-5.3518,-5.3518,-5.3518,-5.3518,-5.3518,-5.3518,-5.3518,-5.3518,-5.3518,-5.3518,-5.3518,-5.3653,-5.389,-5.4059,-5.4194,-5.4363,-5.4532,-5.46,-5.4735,-5.4905,-5.4803,-5.4735,-5.46,-5.4465,-5.4397,-5.4431,-5.4668,-5.4905,-5.5141,-5.5277,-5.5344,-5.548,-5.5547,-5.5478,-5.5513,-5.548,-5.548,-5.548,-5.5581,-5.5547,-5.5547,-5.5512,-5.5378,-5.5277,-5.5209,-5.504,-5.4702,-5.4228,-5.3822,-5.3653,-5.3551,-5.3518,-5.3518,-5.3518,-5.3518,-5.3518,-5.8702,-5.8527,-5.8314,-5.8063,-5.7881,-5.7881,-5.7881,-5.7881,-5.7881,-5.7881,-5.7881,-5.7881,-5.7881,-5.7881,-5.7881,-5.7881,-5.7881,-5.7881,-5.7881,-5.7881,-5.7881,-5.7881,-5.7881,-5.7881,-5.7881,-5.7881,-5.778,-5.7476,-5.707,-5.6562,-5.6156,-5.5716,-5.5108,-5.4905,-5.4735,-5.4465,-5.416,-5.3856,-5.3619,-5.3518,-5.3518,-5.3518,-5.3518,-5.3518,-5.3518,-5.3518,-5.3518,-5.3518,-5.3518,-5.3518,-5.3518,-5.3518,-5.3518,-5.3518,-5.3518,-5.3518,-5.3518,-5.3518,-5.3518,-5.3518,-5.3518,-5.3518,-5.3518,-5.3518,-5.3518,-5.3518,-5.3518,-5.3518,-5.3788,-5.3788,-5.3923,-5.4465,-5.4769,-5.504,-5.5277,-5.5547,-5.5716,-5.5615,-5.548,-5.531,-5.5344,-5.5649,-5.5513,-5.5344,-5.5412,-5.558,-5.5852,-5.6021,-5.6122,-5.6156,-5.6292,-5.6461,-5.6494,-5.6494,-5.6461,-5.6359,-5.6258,-5.6122,-5.6122,-5.6224,-5.6359,-5.6224,-5.6021,-5.5987,-5.5919,-5.548,-5.4905,-5.4262,-5.3687,-5.3585,-5.3518,-5.3518,-5.3518,-5.3518,-5.3518,-5.8277,-5.8241,-5.8241,-5.8097,-5.7881,-5.7881,-5.7881,-5.7881,-5.7881,-5.7881,-5.7881,-5.7881,-5.7881,-5.7881,-5.7881,-5.7881,-5.7881,-5.7881,-5.7881,-5.7881,-5.7881,-5.7881,-5.7881,-5.7881,-5.7881,-5.7881,-5.7881,-5.7848,-5.778,-5.7509,-5.6765,-5.5886,-5.5784,-5.5683,-5.5547,-5.531,-5.4938,-5.4532,-5.4093,-5.3788,-5.3721,-5.3653,-5.3585,-5.3551,-5.3551,-5.3518,-5.3518,-5.3518,-5.3518,-5.3518,-5.3518,-5.3518,-5.3518,-5.3518,-5.3518,-5.3518,-5.3653,-5.3687,-5.3687,-5.3585,-5.3518,-5.3518,-5.3518,-5.3551,-5.3687,-5.3585,-5.3551,-5.3788,-5.4296,-5.4499,-5.4735,-5.5141,-5.5547,-5.575,-5.5987,-5.6156,-5.6258,-5.6122,-5.5987,-5.5784,-5.5953,-5.6393,-5.6562,-5.6393,-5.6258,-5.6427,-5.6596,-5.6799,-5.7137,-5.7239,-5.7374,-5.7509,-5.7577,-5.7611,-5.7611,-5.7476,-5.7137,-5.707,-5.7103,-5.7273,-5.7476,-5.7205,-5.6731,-5.663,-5.6528,-5.6055,-5.558,-5.5175,-5.4634,-5.3856,-5.3551,-5.3687,-5.3585,-5.3518,-5.3518,-5.8099,-5.8027,-5.7991,-5.7954,-5.7881,-5.7881,-5.7881,-5.7881,-5.7881,-5.7881,-5.7881,-5.7881,-5.7881,-5.7881,-5.7881,-5.7881,-5.7881,-5.7881,-5.7881,-5.7881,-5.7881,-5.7881,-5.7881,-5.7881,-5.7881,-5.7881,-5.7881,-5.7881,-5.7848,-5.7881,-5.7679,-5.707,-5.6596,-5.6427,-5.6325,-5.5987,-5.5581,-5.5378,-5.5006,-5.4837,-5.4769,-5.4363,-5.416,-5.416,-5.3619,-5.3551,-5.3518,-5.3518,-5.3518,-5.3551,-5.3585,-5.3619,-5.3653,-5.3653,-5.3653,-5.3721,-5.3957,-5.416,-5.4059,-5.3822,-5.3518,-5.3518,-5.3551,-5.3721,-5.4126,-5.416,-5.4465,-5.4769,-5.504,-5.5243,-5.5378,-5.5919,-5.6427,-5.6494,-5.663,-5.6833,-5.6833,-5.6731,-5.6731,-5.6664,-5.6934,-5.7306,-5.7408,-5.7442,-5.7273,-5.7205,-5.7374,-5.7543,-5.7746,-5.7881,-5.7881,-5.7881,-5.7881,-5.7881,-5.7881,-5.7881,-5.7881,-5.7881,-5.7881,-5.7881,-5.7881,-5.7814,-5.7442,-5.7306,-5.7171,-5.6833,-5.6494,-5.619,-5.5615,-5.4803,-5.4296,-5.4025,-5.3856,-5.3619,-5.3551,-5.8027,-5.7918,-5.7881,-5.7881,-5.7881,-5.7881,-5.7881,-5.7881,-5.7881,-5.7881,-5.7881,-5.7881,-5.7881,-5.7881,-5.7881,-5.7881,-5.7881,-5.7881,-5.7881,-5.7881,-5.7881,-5.7881,-5.7881,-5.7881,-5.7881,-5.7881,-5.7881,-5.7881,-5.7881,-5.7881,-5.778,-5.7611,-5.7442,-5.7171,-5.6968,-5.6461,-5.6021,-5.6021,-5.5784,-5.5716,-5.5547,-5.5209,-5.4938,-5.4905,-5.4499,-5.4363,-5.4363,-5.4397,-5.4329,-5.4329,-5.4296,-5.4228,-5.4194,-5.416,-5.416,-5.4329,-5.4566,-5.4905,-5.4769,-5.4532,-5.4194,-5.4329,-5.4329,-5.4566,-5.4769,-5.4938,-5.5141,-5.5513,-5.5818,-5.6055,-5.6089,-5.6664,-5.7103,-5.7205,-5.734,-5.7476,-5.7509,-5.7476,-5.7577,-5.7611,-5.778,-5.7712,-5.7712,-5.7712,-5.7645,-5.7543,-5.7611,-5.7679,-5.778,-5.7881,-5.7881,-5.7881,-5.7881,-5.7881,-5.7881,-5.7881,-5.7881,-5.7881,-5.7881,-5.7881,-5.7881,-5.7881,-5.7881,-5.7679,-5.7543,-5.7543,-5.734,-5.7002,-5.6427,-5.575,-5.5243,-5.4735,-5.4262,-5.4025,-5.3754,-5.7918,-5.7881,-5.7881,-5.7881,-5.7881,-5.7881,-5.7881,-5.7881,-5.7881,-5.7881,-5.7881,-5.7881,-5.7881,-5.7881,-5.7881,-5.7881,-5.7881,-5.7881,-5.7881,-5.7881,-5.7881,-5.7881,-5.7881,-5.7881,-5.7881,-5.7881,-5.7881,-5.7881,-5.7881,-5.7881,-5.7881,-5.7881,-5.7746,-5.7679,-5.7746,-5.7137,-5.6799,-5.6697,-5.6156,-5.6021,-5.5953,-5.5818,-5.5716,-5.5649,-5.5412,-5.5243,-5.5209,-5.5209,-5.5209,-5.5209,-5.5208,-5.5277,-5.531,-5.5344,-5.5378,-5.5446,-5.5581,-5.5716,-5.5681,-5.5683,-5.5581,-5.5343,-5.5141,-5.5412,-5.5615,-5.5716,-5.5818,-5.6224,-5.6461,-5.6731,-5.7002,-5.7306,-5.7577,-5.7746,-5.7848,-5.7881,-5.7881,-5.7881,-5.7881,-5.7881,-5.7881,-5.7881,-5.7848,-5.7848,-5.7848,-5.7814,-5.7848,-5.7881,-5.7881,-5.7881,-5.7881,-5.7881,-5.7881,-5.7881,-5.7881,-5.7881,-5.7881,-5.7881,-5.7881,-5.7881,-5.7881,-5.7881,-5.7881,-5.7881,-5.7814,-5.7712,-5.778,-5.778,-5.7137,-5.6528,-5.5986,-5.5513,-5.4938,-5.4499,-5.4296,-5.7881,-5.7881,-5.7881,-5.7881,-5.7881,-5.7881,-5.7881,-5.7881,-5.7881,-5.7881,-5.7881,-5.7881,-5.7881,-5.7881,-5.7881,-5.7881,-5.7881,-5.7881,-5.7881,-5.7881,-5.7881,-5.7881,-5.7881,-5.7881,-5.7881,-5.7881,-5.7881,-5.7881,-5.7881,-5.7881,-5.7881,-5.7881,-5.7881,-5.7881,-5.7848,-5.7577,-5.7509,-5.7509,-5.7273,-5.7171,-5.707,-5.6697,-5.6427,-5.6393,-5.6055,-5.5852,-5.5886,-5.5919,-5.5919,-5.5886,-5.5919,-5.5886,-5.5852,-5.5852,-5.5783,-5.5919,-5.6055,-5.6697,-5.6968,-5.707,-5.663,-5.619,-5.5852,-5.6089,-5.6325,-5.6427,-5.6664,-5.6968,-5.7205,-5.7442,-5.7645,-5.7679,-5.7814,-5.7814,-5.7881,-5.7881,-5.7881,-5.7881,-5.7881,-5.7881,-5.7881,-5.8017,-5.8084,-5.8321,-5.8355,-5.8254,-5.8287,-5.8017,-5.7915,-5.7881,-5.7881,-5.7881,-5.7881,-5.7881,-5.7881,-5.7881,-5.7881,-5.7881,-5.7881,-5.7881,-5.7881,-5.7881,-5.7881,-5.7881,-5.7881,-5.7881,-5.7881,-5.7848,-5.7712,-5.7273,-5.6765,-5.619,-5.5581,-5.5209,-5.504,-5.7881,-5.7881,-5.7881,-5.7881,-5.7881,-5.7881,-5.7881,-5.7881,-5.7881,-5.7881,-5.7881,-5.7881,-5.7881,-5.7881,-5.7881,-5.7881,-5.7881,-5.7881,-5.7881,-5.7881,-5.7881,-5.7881,-5.7881,-5.7915,-5.7881,-5.7881,-5.7881,-5.7881,-5.7881,-5.7881,-5.7881,-5.7881,-5.7881,-5.7881,-5.7881,-5.7848,-5.7814,-5.778,-5.7679,-5.7712,-5.7645,-5.7442,-5.7171,-5.707,-5.6833,-5.6528,-5.6494,-5.6461,-5.6461,-5.6427,-5.6427,-5.6427,-5.6427,-5.6427,-5.6461,-5.6664,-5.6867,-5.7408,-5.7679,-5.778,-5.7273,-5.6731,-5.6494,-5.6697,-5.707,-5.7171,-5.7374,-5.7645,-5.7848,-5.7881,-5.7848,-5.7881,-5.7881,-5.7915,-5.7949,-5.7949,-5.8051,-5.8084,-5.8355,-5.8287,-5.849,-5.8524,-5.8558,-5.8727,-5.8964,-5.8829,-5.8727,-5.8389,-5.8084,-5.8084,-5.8084,-5.8084,-5.8017,-5.8017,-5.7949,-5.7881,-5.7881,-5.7881,-5.7983,-5.8084,-5.7881,-5.7881,-5.7881,-5.7881,-5.7881,-5.7881,-5.7881,-5.7814,-5.7746,-5.7679,-5.7442,-5.6833,-5.6224,-5.5987,-5.5818,-5.7881,-5.7881,-5.7881,-5.7881,-5.7881,-5.7881,-5.7881,-5.7881,-5.7881,-5.7881,-5.7881,-5.7881,-5.7881,-5.7881,-5.7881,-5.7881,-5.7983,-5.7949,-5.8051,-5.8084,-5.8287,-5.8186,-5.822,-5.822,-5.8389,-5.8186,-5.8186,-5.8457,-5.8051,-5.8321,-5.8287,-5.8152,-5.8355,-5.8254,-5.8186,-5.8118,-5.8051,-5.7949,-5.7881,-5.7881,-5.7814,-5.7814,-5.7679,-5.7611,-5.7543,-5.7509,-5.7509,-5.7543,-5.7611,-5.7645,-5.7712,-5.7746,-5.7814,-5.7848,-5.7848,-5.7848,-5.778,-5.7814,-5.7848,-5.7881,-5.7848,-5.7476,-5.7611,-5.7814,-5.778,-5.7679,-5.7746,-5.7814,-5.7881,-5.7881,-5.7881,-5.7915,-5.7949,-5.7983,-5.8051,-5.8186,-5.8321,-5.8558,-5.893,-5.9167,-5.9539,-5.9641,-5.9607,-5.9708,-5.9573,-5.9505,-5.937,-5.9099,-5.8795,-5.8558,-5.8558,-5.8524,-5.8423,-5.822,-5.8186,-5.8423,-5.8524,-5.8727,-5.849,-5.849,-5.822,-5.8017,-5.8017,-5.8051,-5.7915,-5.7881,-5.7881,-5.7881,-5.7848,-5.778,-5.7679,-5.7509,-5.6867,-5.6833,-5.663,-5.7881,-5.7881,-5.7881,-5.7881,-5.7881,-5.7881,-5.7881,-5.7881,-5.7881,-5.7881,-5.7881,-5.7881,-5.7881,-5.7881,-5.7881,-5.7881,-5.8118,-5.8389,-5.866,-5.8829,-5.9066,-5.9336,-5.9404,-5.9336,-5.9404,-5.9404,-5.937,-5.9268,-5.9404,-5.9404,-5.937,-5.9505,-5.9235,-5.9066,-5.8795,-5.8693,-5.8389,-5.8084,-5.8017,-5.7881,-5.7881,-5.7881,-5.7881,-5.7881,-5.7881,-5.7881,-5.7881,-5.7881,-5.7881,-5.7881,-5.7881,-5.7881,-5.7881,-5.7881,-5.7881,-5.7881,-5.7848,-5.7881,-5.7881,-5.7881,-5.7915,-5.7983,-5.7983,-5.7881,-5.7881,-5.7949,-5.7949,-5.7881,-5.8017,-5.8084,-5.8152,-5.8186,-5.8389,-5.8592,-5.8693,-5.8829,-5.9032,-5.9404,-5.9776,-6.008,-6.0452,-6.0452,-6.0452,-6.0351,-6.025,-6.0148,-6.0047,-5.9877,-5.9573,-5.9302,-5.9099,-5.9066,-5.9066,-5.8964,-5.9235,-5.9471,-5.9505,-5.9539,-5.9268,-5.8998,-5.8863,-5.866,-5.8389,-5.8186,-5.8017,-5.7949,-5.7881,-5.7881,-5.7881,-5.7881,-5.7814,-5.7746,-5.7645,-5.7476,-5.7273,-5.7881,-5.7881,-5.7881,-5.7881,-5.7881,-5.7881,-5.7881,-5.7881,-5.7881,-5.7881,-5.7881,-5.7881,-5.7881,-5.7881,-5.7881,-5.8051,-5.8423,-5.8761,-5.9099,-5.9573,-5.9945,-5.9911,-6.008,-6.0148,-5.9979,-6.0114,-6.0114,-5.9911,-6.0148,-6.0114,-6.0047,-6.0013,-6.008,-5.9877,-5.9573,-5.9404,-5.9235,-5.8761,-5.8321,-5.7983,-5.7915,-5.7949,-5.7881,-5.7949,-5.7949,-5.7915,-5.7915,-5.7915,-5.7881,-5.7881,-5.7881,-5.7881,-5.7881,-5.7881,-5.7881,-5.7881,-5.7881,-5.7881,-5.7915,-5.8254,-5.8287,-5.8423,-5.8558,-5.8795,-5.8524,-5.8389,-5.8118,-5.7881,-5.8152,-5.8389,-5.849,-5.8626,-5.8998,-5.937,-5.9505,-5.9641,-5.9979,-6.0351,-6.0655,-6.096,-6.1095,-6.1129,-6.1095,-6.0994,-6.1028,-6.1197,-6.1264,-6.1197,-6.0723,-6.0148,-5.9877,-5.9708,-5.981,-5.9844,-6.0148,-6.0283,-6.0182,-6.0047,-5.9844,-5.9607,-5.9471,-5.9302,-5.9099,-5.8626,-5.8118,-5.8051,-5.8017,-5.7915,-5.7881,-5.7881,-5.7881,-5.7814,-5.778,-5.7746,-5.7543,-5.7881,-5.7881,-5.7881,-5.7881,-5.7881,-5.7881,-5.7881,-5.7881,-5.7881,-5.7881,-5.7881,-5.7881,-5.7881,-5.7881,-5.7881,-5.8321,-5.8727,-5.9133,-5.9674,-6.0182,-6.0554,-6.0622,-6.0588,-6.0351,-6.0689,-6.0452,-6.0419,-6.0757,-6.0452,-6.0554,-6.0655,-6.0283,-6.0452,-6.0419,-6.0283,-6.0216,-6.0013,-5.9607,-5.893,-5.8423,-5.8321,-5.8186,-5.8051,-5.8152,-5.8118,-5.8051,-5.8017,-5.7949,-5.7881,-5.7881,-5.7881,-5.7881,-5.7881,-5.7881,-5.7881,-5.8084,-5.8152,-5.8287,-5.849,-5.8863,-5.9032,-5.9302,-5.9708,-5.9742,-5.937,-5.8964,-5.866,-5.8626,-5.893,-5.9066,-5.9167,-5.937,-5.9708,-6.0047,-6.0283,-6.052,-6.0858,-6.1163,-6.1434,-6.1704,-6.1772,-6.1806,-6.1806,-6.1704,-6.167,-6.2076,-6.2144,-6.211,-6.1806,-6.1061,-6.0757,-6.0486,-6.0689,-6.0825,-6.0791,-6.0858,-6.0655,-6.0486,-6.0452,-6.0317,-6.0283,-6.008,-5.981,-5.9268,-5.8693,-5.8321,-5.8152,-5.8051,-5.7949,-5.7881,-5.7881,-5.7881,-5.7881,-5.7881,-5.7814,-5.7881,-5.7881,-5.7881,-5.7881,-5.7881,-5.7881,-5.7881,-5.7881,-5.7881,-5.7881,-5.7881,-5.7881,-5.7881,-5.7881,-5.7881,-5.8321,-5.9032,-5.9573,-6.0283,-6.0994,-6.14,-6.1501,-6.1738,-6.1569,-6.1704,-6.1839,-6.1839,-6.167,-6.1603,-6.167,-6.1772,-6.1772,-6.167,-6.1434,-6.1028,-6.0994,-6.0791,-6.0385,-5.9979,-5.9573,-5.9573,-5.9573,-5.9573,-5.9336,-5.9167,-5.8795,-5.8592,-5.822,-5.8017,-5.7881,-5.7881,-5.7881,-5.7881,-5.7915,-5.822,-5.8626,-5.8761,-5.8964,-5.9302,-5.9607,-5.981,-5.9877,-6.008,-6.008,-5.9945,-5.9674,-5.9573,-5.9607,-5.9674,-5.9776,-5.9945,-6.0148,-6.0385,-6.0723,-6.1028,-6.1366,-6.1704,-6.1907,-6.2178,-6.2279,-6.2381,-6.2415,-6.2415,-6.2415,-6.2415,-6.2381,-6.2347,-6.2313,-6.2279,-6.1873,-6.1772,-6.1603,-6.1806,-6.1873,-6.167,-6.1501,-6.1332,-6.1467,-6.1535,-6.1366,-6.1061,-6.0622,-6.0216,-5.9844,-5.937,-5.8964,-5.8558,-5.8152,-5.8051,-5.8051,-5.7881,-5.7881,-5.7881,-5.7881,-5.7881,-5.7881,-5.7881,-5.7881,-5.7881,-5.7881,-5.7881,-5.7881,-5.7881,-5.7881,-5.7881,-5.7881,-5.7881,-5.7881,-5.7881,-5.7881,-5.8558,-5.937,-5.9877,-6.0791,-6.1637,-6.2076,-6.2245,-6.2415,-6.2415,-6.2279,-6.2381,-6.2381,-6.2347,-6.2415,-6.2381,-6.2313,-6.2415,-6.2347,-6.2178,-6.1772,-6.1738,-6.1535,-6.1163,-6.1028,-6.1028,-6.0892,-6.0588,-6.0182,-5.9911,-5.9776,-5.9505,-5.9404,-5.9066,-5.8964,-5.8896,-5.8964,-5.8964,-5.8998,-5.8998,-5.9133,-5.937,-5.9539,-5.9674,-6.008,-6.0419,-6.0622,-6.0655,-6.1028,-6.1231,-6.1298,-6.1061,-6.0452,-6.0452,-6.052,-6.0622,-6.0825,-6.1028,-6.1366,-6.1704,-6.1772,-6.1941,-6.2076,-6.2212,-6.2313,-6.2347,-6.2415,-6.2415,-6.2415,-6.2415,-6.2415,-6.2415,-6.2415,-6.2415,-6.2415,-6.2415,-6.2415,-6.2415,-6.2415,-6.2415,-6.2144,-6.2076,-6.211,-6.2313,-6.2415,-6.211,-6.167,-6.1061,-6.0588,-6.0419,-6.0114,-5.9674,-5.9235,-5.8795,-5.8524,-5.8558,-5.822,-5.7881,-5.7881,-5.7915,-5.7881,-5.7881,-5.7881,-5.7881,-5.7881,-5.7881,-5.7881,-5.7881,-5.7881,-5.7881,-5.7881,-5.7881,-5.7881,-5.7881,-5.7881,-5.7949,-5.8964,-5.9708,-5.9979,-6.0994,-6.1975,-6.2347,-6.2415,-6.2415,-6.2415,-6.2415,-6.2415,-6.2415,-6.2415,-6.2415,-6.2415,-6.2415,-6.2415,-6.2415,-6.2381,-6.2415,-6.2381,-6.2178,-6.2076,-6.2076,-6.2245,-6.1806,-6.1163,-6.0757,-6.0486,-6.0317,-6.025,-6.025,-6.0114,-6.0114,-5.9979,-5.9844,-5.981,-5.981,-5.9776,-6.0013,-6.0148,-6.0283,-6.0385,-6.0655,-6.1129,-6.1332,-6.1569,-6.2144,-6.2313,-6.2313,-6.2009,-6.14,-6.1264,-6.1332,-6.1434,-6.1637,-6.1772,-6.211,-6.2313,-6.2347,-6.2347,-6.2381,-6.2415,-6.2415,-6.2415,-6.2415,-6.2415,-6.2415,-6.2415,-6.2415,-6.2415,-6.2415,-6.2415,-6.2415,-6.2415,-6.2415,-6.2415,-6.2415,-6.2415,-6.2415,-6.2415,-6.2415,-6.2415,-6.2415,-6.2415,-6.2245,-6.1738,-6.1366,-6.1298,-6.096,-6.0419,-6.0013,-5.9607,-5.937,-5.9167,-5.8693,-5.8321,-5.8186,-5.8152,-5.7949,-5.7881,-5.7881,-5.7881,-5.7881,-5.7881,-5.7881,-5.7881,-5.7881,-5.7881,-5.7881,-5.7881,-5.7881,-5.7881,-5.7881,-5.7881,-5.8693,-5.9911,-6.0114,-6.1061,-6.2178,-6.2381,-6.2415,-6.2415,-6.2415,-6.2415,-6.2415,-6.2415,-6.2415,-6.2415,-6.2415,-6.2415,-6.2415,-6.2415,-6.2415,-6.2415,-6.2415,-6.2415,-6.2415,-6.2415,-6.2415,-6.2415,-6.2042,-6.2076,-6.1738,-6.1366,-6.1197,-6.0926,-6.0419,-6.0182,-6.008,-6.0216,-6.0283,-6.0351,-6.0419,-6.0622,-6.096,-6.1061,-6.1264,-6.1569,-6.1839,-6.2009,-6.2042,-6.2381,-6.2381,-6.2347,-6.2347,-6.1975,-6.1975,-6.2042,-6.2042,-6.2144,-6.2144,-6.2381,-6.2381,-6.2381,-6.2381,-6.2381,-6.2415,-6.2415,-6.2415,-6.2415,-6.2415,-6.2415,-6.2415,-6.2415,-6.2415,-6.2415,-6.2415,-6.2415,-6.2415,-6.2415,-6.2415,-6.2415,-6.2415,-6.2415,-6.2415,-6.2415,-6.2415,-6.2415,-6.2415,-6.2381,-6.2381,-6.211,-6.1873,-6.1603,-6.1163,-6.0757,-6.0419,-6.0114,-5.9844,-5.9235,-5.8829,-5.8693,-5.8524,-5.8423]},{"header":{"parameterUnit":"m.s-1","parameterCategory":1,"la1":31.0,"la2":29.5877,"lo1":-88.7671,"lo2":-86.6584,"dy":0.0162,"dx":0.0185,"nx":115,"ny":88,"refTime":"2024-03-10T18:00:00:Z","depth":0,"parameterNumber":3,"parameterNumberName":"V-component_of_WINDS"},"data":[0.0,0.0,0.0,0.0,0.0,0.0,0.0,0.0,0.0,0.0,0.0,0.0,0.0,0.0,0.0,0.0,0.0,0.0,0.0,0.0,0.0,0.0,0.0,0.0,0.0,0.0,0.0,0.0,0.0,0.0,0.0,0.0,0.0,0.0,0.0,0.0,0.0,0.0,0.0,0.0,0.0,0.0,0.0,0.0,0.0,0.0,0.0,0.0,0.0,0.0,0.0,0.0,0.0,0.0,0.0,0.0,0.0,0.0,0.0,0.0,0.0,0.0,0.0,0.0,0.0,0.0,0.0,0.0,0.0,0.0,0.0,0.0,0.0,0.0,0.0,0.0,0.0,0.0,0.0,0.0,0.0,0.0,0.0,0.0,0.0,0.0,0.0,0.0,0.0,0.0,0.0,0.0,0.0,0.0,0.0,0.0,0.0,0.0,0.0,0.0,0.0,0.0,0.0,0.0,0.0,0.0,0.0,0.0,0.0,0.0,0.0,0.0,0.0,0.0,0.0,0.0,0.0,0.0,0.0,0.0,0.0,0.0,0.0,0.0,0.0,0.0,0.0,0.0,0.0,0.0,0.0,0.0,0.0,0.0,0.0,0.0,0.0,0.0,0.0,0.0,0.0,0.0,0.0,0.0,0.0,0.0,0.0,0.0,0.0,0.0,0.0,0.0,0.0,0.0,0.0,0.0,0.0,0.0,0.0,0.0,0.0,0.0,0.0,0.0,0.0,0.0,0.0,0.0,0.0,0.0,0.0,0.0,0.0,0.0,0.0,0.0,0.0,0.0,0.0,0.0,0.0,0.0,0.0,0.0,0.0,0.0,0.0,0.0,0.0,0.0,0.0,0.0,0.0,0.0,0.0,0.0,0.0,0.0,0.0,0.0,0.0,0.0,0.0,0.0,0.0,0.0,0.0,0.0,0.0,0.0,0.0,0.0,0.0,0.0,0.0,0.0,0.0,0.0,0.0,0.0,0.0,0.0,0.0,0.0,0.0,0.0,0.0,0.0,0.0,0.0,0.0,0.0,0.0,0.0,0.0,0.0,0.0,0.0,0.0,0.0,0.0,0.0,0.0,0.0,0.0,0.0,0.0,0.0,0.0,0.0,0.0,0.0,0.0,0.0,0.0,0.0,0.0,0.0,0.0,0.0,0.0,0.0,0.0,0.0,0.0,0.0,0.0,0.0,0.0,0.0,0.0,0.0,0.0,0.0,0.0,0.0,0.0,0.0,0.0,0.0,0.0,0.0,0.0,0.0,0.0,0.0,0.0,0.0,0.0,0.0,0.0,0.0,0.0,0.0,0.0,0.0,0.0,0.0,0.0,0.0,0.0,0.0,0.0,0.0,0.0,0.0,0.0,0.0,0.0,0.0,0.0,0.0,0.0,0.0,0.0,0.0,0.0,0.0,0.0,0.0,0.0,0.0,0.0,0.0,0.0,0.0,0.0,0.0,0.0,0.0,0.0,0.0,0.0,0.0,0.0,0.0,0.0,0.0,0.0,0.0,0.0,0.0,0.0,0.0,0.0,0.0,0.0,0.0,0.0,0.0,0.0,0.0,0.0,0.0,0.0,0.0,0.0,0.0,0.0,0.0,0.0,0.0,0.0,0.0,0.0,0.0,0.0,0.0,0.0,0.0,0.0,0.0,0.0,0.0,0.0,0.0,0.0,0.0,0.0,0.0,0.0,0.0,0.0,0.0,0.0,0.0,0.0,0.0,0.0,0.0,0.0,0.0,0.0,0.0,0.0,0.0,0.0,0.0,0.0,0.0,0.0,0.0,0.0,0.0,0.0,0.0,0.0,0.0,0.0,0.0,0.0,0.0,0.0,0.0,0.0,0.0,0.0,0.0,0.0,0.0,0.0,0.0,0.0,0.0,0.0,0.0,0.0,0.0,0.0,0.0,0.0,0.0,0.0,0.0,0.0,0.0,0.0,0.0,0.0,0.0,0.0,0.0,0.0,0.0,0.0,0.0,0.0,0.0,0.0,0.0,0.0,0.0,0.0,0.0,0.0,0.0,0.0,0.0,0.0,0.0,0.0,0.0,0.0,0.0,0.0,0.0,0.0,0.0,0.0,0.0,0.0,0.0,0.0,0.0,0.0,0.0,0.0,0.0,0.0,0.0,0.0,0.0,0.0,0.0,0.0,0.0,0.0,0.0,0.0,0.0,0.0,0.0,0.0,0.0,0.0,0.0,0.0,0.0,0.0,0.0,0.0,0.0,0.0,0.0,0.0,0.0,0.0,0.0,0.0,0.0,0.0,0.0,0.0,0.0,0.0,0.0,0.0,0.0,0.0,0.0,0.0,0.0,0.0,0.0,0.0,0.0,0.0,0.0,0.0,0.0,0.0,0.0,0.0,0.0,0.0,0.0,0.0,0.0,0.0,0.0,0.0,0.0,0.0,0.0,0.0,0.0,0.0,0.0,0.0,0.0,0.0,0.0,0.0,0.0,0.0,0.0,0.0,0.0,0.0,0.0,0.0,0.0,0.0,0.0,0.0,0.0,0.0,0.0,0.0,0.0,0.0,0.0,0.0,0.0,0.0,0.0,0.0,0.0,0.0,0.0,0.0,0.0,0.0,0.0,0.0,0.0,0.0,0.0,0.0,0.0,0.0,0.0,0.0,0.0,0.0,0.0,0.0,0.0,0.0,0.0,0.0,0.0,0.0,0.0,0.0,0.0,0.0,0.0,0.0,0.0,0.0,0.0,0.0,0.0,0.0,0.0,0.0,0.0,0.0,0.0,0.0,0.0,0.0,0.0,0.0,0.0,0.0,0.0,0.0,0.0,0.0,0.0,0.0,0.0,0.0,0.0,0.0,0.0,0.0,0.0,0.0,0.0,0.0,0.0,0.0,0.0,0.0,0.0,0.0,0.0,0.0,0.0,0.0,0.0,0.0,0.0,0.0,0.0,0.0,0.0,0.0,0.0,0.0,0.0,0.0,0.0,0.0,0.0,0.0,0.0,0.0,0.0,0.0,0.0,0.0,0.0,0.0,0.0,0.0,0.0,0.0,0.0,0.0,0.0,0.0,0.0,0.0,0.0,0.0,0.0,0.0,0.0,0.0,0.0,0.0,0.0,0.0,0.0,0.0,0.0,0.0,0.0,0.0,0.0,0.0,0.0,0.0,0.0,0.0,0.0,0.0,0.0,0.0,0.0,0.0,0.0,0.0,0.0,0.0,0.0,0.0,0.0,0.0,0.0,0.0,0.0,0.0,0.0,0.0,0.0,0.0,0.0,0.0,0.0,0.0,0.0,0.0,0.0,0.0,0.0,0.0,0.0,0.0,0.0,0.0,0.0,0.0,0.0,0.0,0.0,0.0,0.0,0.0,0.0,0.0,0.0,0.0,0.0,0.0,0.0,0.0,0.0,0.0,0.0,0.0,0.0,0.0,0.0,0.0,0.0,0.0,0.0,0.0,0.0,0.0,0.0,0.0,0.0,0.0,0.0,0.0,0.0,0.0,0.0,0.0,0.0,0.0,0.0,0.0,0.0,0.0,0.0,0.0,0.0,0.0,0.0,0.0,0.0,0.0,0.0,0.0,0.0,0.0,0.0,0.0,0.0,0.0,0.0,0.0,0.0,0.0,0.0,0.0,0.0,0.0,0.0,0.0,0.0,0.0,0.0,0.0,0.0,0.0,0.0,0.0,0.0,0.0,0.0,0.0,0.0,0.0,0.0,0.0,0.0,0.0,0.0,0.0,0.0,0.0,0.0,0.0,0.0,0.0,0.0,0.0,0.0,0.0,0.0,0.0,0.0,0.0,0.0,0.0,0.0,0.0,0.0,0.0,0.0,0.0,0.0,0.0,0.0,0.0,0.0,0.0,0.0,0.0,0.0,0.0,0.0,0.0,0.0,0.0,0.0,0.0,0.0,0.0,0.0,0.0,0.0,0.0,0.0,0.0,0.0,0.0,0.0,0.0,0.0,0.0,0.0,0.0,0.0,0.0,0.0,0.0,0.0,0.0,0.0,0.0,0.0,0.0,0.0,0.0,0.0,0.0,0.0,0.0,0.0,0.0,0.0,0.0,0.0,0.0,0.0,0.0,0.0,0.0,0.0,0.0,0.0,0.0,0.0,0.0,0.0,0.0,0.0,0.0,0.0,0.0,0.0,0.0,0.0,0.0,0.0,0.0,0.0,0.0,0.0,0.0,0.0,0.0,0.0,0.0,0.0,0.0,0.0,0.0,0.0,0.0,0.0,0.0,0.0,0.0,0.0,0.0,0.0,0.0,0.0,0.0,0.0,0.0,0.0,0.0,0.0,0.0,0.0,2.174,0.0,0.0,0.0,0.0,0.0,0.0,0.0,0.0,0.0,0.0,0.0,0.0,0.0,0.0,0.0,0.0,0.0,0.0,0.0,0.0,0.0,0.0,0.0,0.0,0.0,0.0,0.0,0.0,0.0,0.0,0.0,0.0,0.0,0.0,0.0,0.0,0.0,0.0,0.0,0.0,0.0,0.0,0.0,0.0,0.0,0.0,0.0,0.0,0.0,0.0,0.0,0.0,0.0,0.0,0.0,0.0,0.0,0.0,0.0,0.0,0.0,0.0,0.0,0.0,0.0,0.0,0.0,0.0,0.0,0.0,0.0,0.0,0.0,0.0,0.0,0.0,0.0,0.0,0.0,0.0,0.0,0.0,0.0,0.0,0.0,0.0,0.0,0.0,0.0,0.0,0.0,0.0,0.0,0.0,0.0,0.0,0.0,0.0,0.0,0.0,0.0,0.0,0.0,0.0,0.0,0.0,0.0,0.0,0.0,0.0,2.2178,2.25,2.2109,2.1936,2.1894,0.0,0.0,0.0,0.0,0.0,0.0,0.0,0.0,0.0,0.0,0.0,0.0,0.0,0.0,0.0,0.0,0.0,0.0,0.0,0.0,0.0,0.0,0.0,0.0,0.0,0.0,0.0,0.0,0.0,0.0,0.0,0.0,0.0,0.0,0.0,0.0,0.0,0.0,0.0,0.0,0.0,0.0,0.0,0.0,0.0,0.0,0.0,0.0,0.0,0.0,0.0,0.0,0.0,0.0,0.0,0.0,0.0,0.0,0.0,0.0,0.0,0.0,0.0,0.0,0.0,0.0,0.0,0.0,0.0,0.0,0.0,0.0,0.0,0.0,0.0,0.0,0.0,0.0,0.0,0.0,0.0,0.0,0.0,0.0,0.0,0.0,0.0,0.0,0.0,0.0,0.0,0.0,0.0,0.0,0.0,0.0,0.0,0.0,0.0,0.0,0.0,0.0,0.0,0.0,0.0,0.0,0.0,0.0,0.0,0.0,0.0,0.0,2.2344,2.2168,2.2168,0.0,0.0,0.0,0.0,0.0,0.0,0.0,0.0,0.0,0.0,0.0,0.0,0.0,0.0,0.0,0.0,0.0,0.0,0.0,0.0,0.0,0.0,0.0,0.0,0.0,0.0,0.0,0.0,0.0,0.0,0.0,0.0,0.0,0.0,0.0,0.0,0.0,0.0,0.0,0.0,0.0,0.0,0.0,0.0,0.0,0.0,0.0,0.0,0.0,0.0,0.0,0.0,0.0,0.0,0.0,0.0,0.0,0.0,0.0,0.0,0.0,0.0,0.0,0.0,0.0,0.0,0.0,0.0,0.0,0.0,0.0,0.0,0.0,0.0,0.0,0.0,0.0,0.0,0.0,0.0,0.0,0.0,0.0,0.0,0.0,0.0,0.0,0.0,0.0,0.0,0.0,0.0,0.0,0.0,0.0,0.0,0.0,0.0,0.0,0.0,0.0,0.0,0.0,0.0,0.0,0.0,0.0,0.0,0.0,0.0,2.2824,2.3042,2.3003,0.0,2.2964,0.0,0.0,0.0,0.0,0.0,0.0,0.0,0.0,0.0,0.0,0.0,0.0,0.0,0.0,0.0,0.0,0.0,0.0,0.0,0.0,0.0,0.0,0.0,0.0,0.0,0.0,0.0,0.0,0.0,0.0,0.0,0.0,0.0,0.0,0.0,0.0,0.0,0.0,0.0,0.0,0.0,0.0,0.0,0.0,0.0,0.0,0.0,0.0,0.0,0.0,0.0,0.0,0.0,0.0,0.0,0.0,0.0,0.0,0.0,0.0,0.0,0.0,0.0,0.0,0.0,0.0,0.0,0.0,0.0,0.0,0.0,0.0,0.0,0.0,0.0,0.0,0.0,0.0,0.0,0.0,0.0,0.0,0.0,0.0,0.0,0.0,0.0,0.0,0.0,0.0,0.0,0.0,0.0,0.0,0.0,0.0,0.0,0.0,0.0,0.0,0.0,0.0,0.0,0.0,0.0,0.0,0.0,0.0,0.0,0.0,2.2882,2.3101,2.3101,2.3101,0.0,0.0,0.0,0.0,0.0,0.0,0.0,0.0,0.0,0.0,0.0,0.0,0.0,0.0,0.0,0.0,0.0,0.0,0.0,0.0,0.0,0.0,0.0,0.0,0.0,0.0,0.0,0.0,0.0,0.0,0.0,0.0,0.0,0.0,0.0,0.0,0.0,0.0,0.0,0.0,0.0,0.0,0.0,0.0,0.0,0.0,0.0,0.0,0.0,0.0,0.0,0.0,0.0,0.0,0.0,0.0,0.0,0.0,0.0,0.0,0.0,0.0,0.0,0.0,0.0,0.0,0.0,0.0,0.0,0.0,0.0,0.0,0.0,0.0,0.0,0.0,0.0,0.0,0.0,0.0,0.0,0.0,0.0,0.0,0.0,0.0,0.0,0.0,0.0,0.0,0.0,0.0,0.0,0.0,0.0,0.0,0.0,0.0,0.0,0.0,0.0,0.0,0.0,0.0,0.0,0.0,0.0,0.0,0.0,0.0,2.2706,2.2925,2.3081,2.3101,2.3042,2.2925,0.0,0.0,0.0,0.0,0.0,0.0,0.0,0.0,0.0,0.0,0.0,0.0,0.0,0.0,0.0,0.0,0.0,0.0,0.0,0.0,0.0,0.0,0.0,0.0,0.0,0.0,0.0,0.0,0.0,0.0,0.0,0.0,0.0,0.0,0.0,0.0,0.0,0.0,0.0,0.0,0.0,0.0,0.0,0.0,0.0,0.0,0.0,0.0,0.0,0.0,0.0,0.0,0.0,0.0,0.0,0.0,0.0,0.0,0.0,0.0,0.0,0.0,0.0,0.0,0.0,0.0,0.0,0.0,0.0,0.0,0.0,0.0,0.0,0.0,0.0,0.0,0.0,0.0,0.0,0.0,0.0,0.0,0.0,0.0,0.0,0.0,0.0,0.0,0.0,0.0,0.0,0.0,0.0,0.0,0.0,0.0,0.0,0.0,0.0,0.0,0.0,0.0,0.0,0.0,0.0,0.0,0.0,0.0,2.2397,2.2838,2.3101,2.3101,2.3101,2.2906,0.0,0.0,0.0,0.0,0.0,0.0,0.0,0.0,0.0,0.0,0.0,0.0,0.0,0.0,0.0,0.0,0.0,0.0,0.0,0.0,0.0,0.0,0.0,0.0,0.0,0.0,0.0,0.0,0.0,0.0,0.0,0.0,0.0,0.0,0.0,0.0,0.0,0.0,0.0,0.0,0.0,0.0,0.0,0.0,0.0,0.0,0.0,0.0,0.0,0.0,0.0,0.0,0.0,0.0,0.0,0.0,0.0,0.0,0.0,0.0,0.0,0.0,0.0,0.0,0.0,0.0,0.0,0.0,0.0,0.0,0.0,0.0,0.0,0.0,0.0,0.0,0.0,0.0,0.0,0.0,0.0,0.0,0.0,0.0,0.0,0.0,0.0,0.0,0.0,0.0,0.0,0.0,0.0,0.0,0.0,0.0,0.0,0.0,0.0,0.0,0.0,0.0,0.0,0.0,0.0,0.0,0.0,0.0,0.0,2.2422,2.2838,2.3101,2.3101,2.3101,2.2886,0.0,0.0,0.0,0.0,0.0,0.0,0.0,0.0,0.0,0.0,0.0,0.0,0.0,0.0,0.0,0.0,0.0,0.0,0.0,0.0,0.0,0.0,0.0,0.0,0.0,0.0,0.0,0.0,0.0,0.0,0.0,0.0,0.0,0.0,0.0,0.0,0.0,0.0,0.0,0.0,0.0,0.0,0.0,0.0,0.0,0.0,0.0,0.0,0.0,0.0,0.0,0.0,0.0,0.0,0.0,0.0,0.0,0.0,0.0,0.0,0.0,0.0,0.0,0.0,0.0,0.0,0.0,0.0,0.0,0.0,0.0,0.0,0.0,0.0,0.0,0.0,0.0,0.0,0.0,0.0,0.0,0.0,0.0,0.0,0.0,0.0,0.0,0.0,0.0,0.0,0.0,0.0,0.0,0.0,0.0,0.0,0.0,0.0,0.0,0.0,0.0,0.0,0.0,0.0,0.0,0.0,0.0,0.0,0.0,2.2599,0.0,2.3101,2.3101,2.3101,2.2871,0.0,0.0,0.0,0.0,0.0,0.0,0.0,0.0,0.0,0.0,0.0,0.0,0.0,0.0,0.0,0.0,0.0,0.0,0.0,0.0,0.0,0.0,0.0,0.0,0.0,0.0,0.0,0.0,0.0,0.0,0.0,0.0,0.0,0.0,0.0,0.0,0.0,0.0,0.0,0.0,0.0,0.0,0.0,0.0,0.0,0.0,0.0,0.0,0.0,0.0,0.0,0.0,0.0,0.0,0.0,0.0,0.0,0.0,0.0,0.0,0.0,0.0,0.0,0.0,0.0,0.0,0.0,0.0,0.0,0.0,0.0,0.0,0.0,0.0,0.0,0.0,0.0,0.0,0.0,0.0,0.0,0.0,0.0,0.0,0.0,0.0,0.0,0.0,0.0,0.0,0.0,0.0,0.0,0.0,0.0,0.0,0.0,0.0,0.0,0.0,0.0,0.0,0.0,0.0,0.0,0.0,0.0,0.0,2.2441,2.3057,2.3101,2.3101,2.3101,2.3101,2.2734,0.0,0.0,0.0,0.0,0.0,0.0,0.0,0.0,0.0,0.0,0.0,0.0,0.0,0.0,0.0,0.0,0.0,0.0,0.0,0.0,0.0,0.0,0.0,0.0,0.0,0.0,0.0,0.0,0.0,0.0,0.0,0.0,0.0,0.0,0.0,0.0,0.0,0.0,0.0,0.0,0.0,0.0,0.0,0.0,0.0,0.0,0.0,0.0,0.0,0.0,0.0,0.0,0.0,0.0,0.0,0.0,0.0,0.0,0.0,0.0,0.0,0.0,0.0,0.0,0.0,0.0,0.0,0.0,0.0,0.0,0.0,0.0,0.0,0.0,0.0,0.0,0.0,0.0,0.0,0.0,0.0,0.0,0.0,0.0,0.0,0.0,0.0,0.0,0.0,0.0,0.0,0.0,0.0,0.0,0.0,0.0,0.0,0.0,0.0,0.0,0.0,0.0,0.0,0.0,0.0,0.0,0.0,0.0,0.0,2.3101,2.3101,2.3101,2.3101,2.3101,2.2711,0.0,0.0,0.0,0.0,0.0,0.0,0.0,0.0,0.0,0.0,0.0,0.0,0.0,0.0,0.0,0.0,0.0,0.0,0.0,0.0,0.0,0.0,0.0,0.0,0.0,0.0,0.0,0.0,0.0,0.0,0.0,0.0,0.0,0.0,0.0,0.0,0.0,0.0,0.0,0.0,0.0,0.0,0.0,0.0,0.0,0.0,0.0,0.0,0.0,0.0,0.0,0.0,0.0,0.0,0.0,0.0,0.0,0.0,0.0,0.0,0.0,0.0,0.0,0.0,0.0,0.0,0.0,0.0,0.0,0.0,0.0,0.0,0.0,0.0,0.0,0.0,0.0,0.0,0.0,0.0,0.0,0.0,0.0,0.0,0.0,0.0,0.0,0.0,0.0,0.0,0.0,0.0,0.0,0.0,0.0,0.0,0.0,0.0,0.0,0.0,0.0,0.0,0.0,0.0,0.0,0.0,0.0,0.0,0.0,2.3335,2.3179,2.3179,2.3379,2.3179,2.2769,2.2148,0.0,0.0,0.0,0.0,0.0,0.0,0.0,0.0,0.0,0.0,0.0,0.0,0.0,0.0,0.0,0.0,0.0,0.0,0.0,0.0,0.0,0.0,0.0,0.0,0.0,0.0,0.0,0.0,0.0,0.0,0.0,0.0,0.0,0.0,0.0,0.0,0.0,0.0,0.0,0.0,0.0,0.0,0.0,0.0,0.0,0.0,0.0,0.0,0.0,0.0,0.0,0.0,0.0,0.0,0.0,0.0,0.0,0.0,0.0,0.0,0.0,0.0,0.0,0.0,0.0,0.0,0.0,0.0,0.0,0.0,0.0,0.0,0.0,0.0,0.0,0.0,0.0,0.0,0.0,0.0,0.0,0.0,0.0,0.0,0.0,0.0,0.0,0.0,0.0,0.0,0.0,0.0,0.0,0.0,0.0,0.0,0.0,0.0,0.0,0.0,0.0,0.0,0.0,0.0,0.0,0.0,0.0,0.0,2.3867,2.3393,2.3354,2.3769,2.3379,2.2925,0.0,0.0,0.0,0.0,0.0,0.0,0.0,0.0,0.0,0.0,0.0,0.0,0.0,0.0,0.0,0.0,0.0,0.0,0.0,0.0,0.0,0.0,0.0,0.0,0.0,0.0,0.0,0.0,0.0,0.0,0.0,0.0,0.0,0.0,0.0,0.0,0.0,0.0,0.0,0.0,0.0,0.0,0.0,0.0,0.0,0.0,0.0,0.0,0.0,0.0,0.0,0.0,0.0,0.0,0.0,0.0,0.0,0.0,0.0,0.0,0.0,0.0,0.0,0.0,0.0,0.0,0.0,0.0,0.0,0.0,0.0,0.0,0.0,0.0,0.0,0.0,0.0,0.0,0.0,0.0,0.0,0.0,0.0,0.0,0.0,0.0,0.0,0.0,0.0,0.0,0.0,0.0,0.0,0.0,0.0,0.0,0.0,0.0,0.0,0.0,0.0,0.0,0.0,0.0,0.0,0.0,0.0,0.0,0.0,2.4734,2.4297,2.3984,2.3809,2.3672,2.3262,0.0,0.0,0.0,0.0,0.0,0.0,0.0,0.0,0.0,0.0,0.0,0.0,0.0,0.0,0.0,0.0,0.0,0.0,0.0,0.0,0.0,0.0,0.0,0.0,0.0,0.0,0.0,0.0,0.0,0.0,0.0,0.0,0.0,0.0,0.0,0.0,0.0,0.0,0.0,0.0,0.0,0.0,0.0,0.0,0.0,0.0,0.0,0.0,0.0,0.0,0.0,0.0,0.0,0.0,0.0,0.0,0.0,0.0,0.0,0.0,0.0,0.0,0.0,0.0,0.0,0.0,0.0,0.0,0.0,0.0,0.0,0.0,0.0,0.0,0.0,0.0,0.0,0.0,0.0,0.0,0.0,0.0,0.0,0.0,0.0,0.0,0.0,0.0,0.0,0.0,0.0,0.0,0.0,0.0,0.0,0.0,0.0,0.0,0.0,0.0,0.0,0.0,0.0,0.0,0.0,0.0,0.0,0.0,2.4551,2.5106,2.5019,2.4766,2.4336,2.3984,2.3555,0.0,0.0,0.0,0.0,0.0,0.0,0.0,0.0,0.0,0.0,0.0,0.0,0.0,0.0,0.0,0.0,0.0,0.0,0.0,0.0,0.0,0.0,0.0,0.0,0.0,0.0,0.0,0.0,0.0,0.0,0.0,0.0,0.0,0.0,0.0,0.0,0.0,0.0,0.0,0.0,0.0,0.0,0.0,0.0,0.0,0.0,0.0,0.0,0.0,0.0,0.0,0.0,0.0,0.0,0.0,0.0,0.0,0.0,0.0,0.0,0.0,0.0,0.0,0.0,0.0,0.0,0.0,0.0,0.0,0.0,0.0,0.0,0.0,0.0,0.0,0.0,0.0,0.0,0.0,0.0,0.0,0.0,0.0,0.0,0.0,0.0,0.0,0.0,0.0,0.0,0.0,0.0,0.0,0.0,0.0,0.0,0.0,0.0,0.0,0.0,0.0,0.0,0.0,0.0,0.0,0.0,0.0,0.0,2.5098,2.5184,2.5527,2.5499,2.5184,2.4297,2.3828,0.0,0.0,0.0,0.0,0.0,0.0,0.0,0.0,0.0,0.0,0.0,0.0,0.0,0.0,0.0,0.0,0.0,0.0,0.0,0.0,0.0,0.0,0.0,0.0,0.0,0.0,0.0,0.0,0.0,0.0,0.0,0.0,0.0,0.0,0.0,0.0,0.0,0.0,0.0,0.0,0.0,0.0,0.0,0.0,0.0,0.0,0.0,0.0,0.0,0.0,0.0,0.0,0.0,0.0,0.0,0.0,0.0,0.0,0.0,0.0,0.0,0.0,0.0,0.0,0.0,0.0,0.0,0.0,0.0,0.0,0.0,0.0,0.0,0.0,0.0,0.0,0.0,0.0,0.0,0.0,0.0,0.0,0.0,0.0,0.0,0.0,0.0,0.0,0.0,0.0,0.0,0.0,0.0,0.0,0.0,0.0,0.0,0.0,0.0,0.0,0.0,0.0,0.0,0.0,0.0,0.0,0.0,0.0,2.5234,2.5586,2.5635,2.5635,2.5538,2.4746,2.4121,0.0,0.0,0.0,0.0,0.0,0.0,0.0,0.0,0.0,0.0,0.0,0.0,0.0,0.0,0.0,0.0,0.0,0.0,0.0,0.0,0.0,0.0,0.0,0.0,0.0,0.0,0.0,0.0,0.0,0.0,0.0,0.0,0.0,0.0,0.0,0.0,0.0,0.0,0.0,0.0,0.0,0.0,0.0,0.0,0.0,0.0,0.0,0.0,2.6499,0.0,0.0,0.0,0.0,0.0,0.0,0.0,0.0,0.0,0.0,0.0,0.0,0.0,0.0,0.0,0.0,0.0,0.0,0.0,0.0,0.0,0.0,0.0,0.0,0.0,0.0,0.0,0.0,0.0,0.0,0.0,0.0,0.0,0.0,0.0,0.0,0.0,0.0,0.0,0.0,0.0,0.0,0.0,0.0,0.0,0.0,0.0,0.0,0.0,0.0,0.0,0.0,0.0,0.0,0.0,0.0,0.0,0.0,0.0,2.5488,2.5674,2.5674,2.5674,2.5654,2.5078,2.4531,0.0,0.0,0.0,0.0,0.0,0.0,0.0,0.0,0.0,0.0,0.0,0.0,0.0,0.0,0.0,0.0,0.0,0.0,0.0,0.0,0.0,0.0,0.0,0.0,0.0,0.0,0.0,0.0,0.0,0.0,0.0,0.0,0.0,0.0,0.0,0.0,0.0,0.0,0.0,0.0,0.0,0.0,0.0,0.0,0.0,0.0,0.0,0.0,0.0,0.0,0.0,0.0,0.0,0.0,0.0,0.0,0.0,0.0,0.0,0.0,0.0,0.0,0.0,0.0,0.0,0.0,0.0,0.0,0.0,0.0,0.0,0.0,0.0,0.0,0.0,0.0,0.0,0.0,0.0,0.0,0.0,0.0,0.0,0.0,0.0,0.0,0.0,0.0,0.0,0.0,0.0,0.0,0.0,0.0,0.0,0.0,0.0,0.0,0.0,0.0,0.0,0.0,0.0,0.0,0.0,0.0,0.0,2.5245,2.5674,2.5674,2.5674,2.5674,2.5674,2.5371,2.4922,2.4434,0.0,0.0,0.0,0.0,0.0,0.0,0.0,0.0,0.0,0.0,0.0,0.0,0.0,0.0,0.0,0.0,0.0,0.0,0.0,0.0,0.0,0.0,0.0,0.0,0.0,0.0,0.0,0.0,0.0,0.0,0.0,0.0,0.0,0.0,0.0,0.0,0.0,0.0,2.5661,2.6273,0.0,0.0,0.0,0.0,0.0,0.0,0.0,0.0,2.6499,0.0,0.0,0.0,0.0,0.0,0.0,0.0,0.0,0.0,0.0,0.0,0.0,0.0,0.0,0.0,0.0,0.0,0.0,0.0,0.0,0.0,0.0,0.0,0.0,0.0,0.0,0.0,0.0,0.0,0.0,0.0,0.0,0.0,0.0,0.0,0.0,0.0,0.0,0.0,0.0,0.0,0.0,0.0,0.0,0.0,0.0,0.0,0.0,0.0,0.0,0.0,0.0,0.0,0.0,0.0,0.0,2.4414,2.5245,2.5674,2.5674,2.5674,2.5674,2.5674,2.5615,2.5234,2.4453,0.0,0.0,0.0,0.0,0.0,0.0,0.0,0.0,0.0,0.0,0.0,0.0,0.0,0.0,0.0,0.0,0.0,0.0,0.0,0.0,0.0,0.0,0.0,0.0,0.0,0.0,0.0,0.0,0.0,0.0,0.0,0.0,0.0,0.0,0.0,0.0,0.0,0.0,0.0,2.6826,2.7178,0.0,0.0,0.0,0.0,0.0,0.0,0.0,0.0,2.6499,0.0,0.0,0.0,0.0,0.0,0.0,0.0,0.0,0.0,0.0,0.0,0.0,0.0,0.0,0.0,0.0,0.0,0.0,0.0,0.0,0.0,0.0,0.0,0.0,0.0,0.0,0.0,0.0,0.0,0.0,0.0,0.0,0.0,0.0,0.0,0.0,0.0,0.0,0.0,0.0,0.0,0.0,0.0,0.0,0.0,0.0,0.0,0.0,0.0,0.0,0.0,0.0,0.0,0.0,0.0,2.4473,2.5245,2.5674,2.5674,2.5674,2.5674,2.5674,2.5674,2.5284,0.0,0.0,0.0,0.0,0.0,0.0,0.0,0.0,0.0,0.0,0.0,0.0,0.0,0.0,0.0,0.0,0.0,0.0,0.0,0.0,0.0,0.0,0.0,0.0,0.0,0.0,0.0,0.0,0.0,0.0,0.0,0.0,0.0,0.0,0.0,0.0,0.0,0.0,0.0,0.0,2.7404,2.772,2.772,0.0,0.0,0.0,0.0,0.0,0.0,2.7318,2.7253,0.0,0.0,0.0,0.0,0.0,0.0,0.0,0.0,0.0,0.0,0.0,0.0,0.0,0.0,0.0,0.0,0.0,0.0,0.0,0.0,0.0,0.0,0.0,0.0,0.0,0.0,0.0,0.0,0.0,0.0,0.0,0.0,0.0,0.0,0.0,0.0,0.0,0.0,0.0,0.0,0.0,0.0,0.0,0.0,0.0,0.0,0.0,0.0,0.0,0.0,0.0,0.0,0.0,0.0,0.0,2.4434,2.5195,2.5644,2.5674,2.5674,2.5674,2.5674,2.5644,2.5234,0.0,0.0,0.0,0.0,0.0,0.0,0.0,0.0,0.0,0.0,0.0,0.0,0.0,0.0,0.0,0.0,0.0,0.0,0.0,0.0,0.0,0.0,0.0,0.0,0.0,0.0,0.0,0.0,0.0,0.0,0.0,0.0,0.0,0.0,0.0,0.0,0.0,0.0,0.0,0.0,0.0,2.8273,2.8273,2.8273,0.0,0.0,0.0,0.0,2.8122,2.8122,0.0,0.0,0.0,0.0,0.0,0.0,0.0,0.0,0.0,0.0,0.0,0.0,0.0,0.0,0.0,0.0,0.0,0.0,0.0,0.0,0.0,0.0,0.0,0.0,0.0,0.0,0.0,0.0,0.0,0.0,0.0,0.0,0.0,0.0,0.0,0.0,0.0,0.0,0.0,0.0,0.0,0.0,0.0,0.0,0.0,0.0,0.0,0.0,0.0,0.0,0.0,0.0,0.0,0.0,0.0,0.0,2.4414,2.4902,2.5332,2.5654,2.5674,2.5674,2.5674,2.5352,2.4922,0.0,0.0,0.0,0.0,0.0,0.0,0.0,0.0,0.0,0.0,0.0,0.0,0.0,0.0,0.0,0.0,0.0,0.0,0.0,0.0,0.0,0.0,0.0,0.0,0.0,0.0,0.0,0.0,0.0,0.0,0.0,0.0,0.0,0.0,0.0,0.0,0.0,0.0,0.0,0.0,0.0,2.8813,2.8813,2.8813,2.8787,0.0,0.0,2.8122,2.8122,2.8122,0.0,0.0,0.0,0.0,0.0,0.0,0.0,0.0,0.0,0.0,0.0,0.0,0.0,0.0,0.0,0.0,0.0,0.0,0.0,0.0,0.0,0.0,0.0,0.0,0.0,0.0,0.0,0.0,0.0,0.0,0.0,0.0,0.0,0.0,0.0,0.0,0.0,0.0,0.0,0.0,0.0,0.0,0.0,0.0,0.0,0.0,0.0,0.0,0.0,0.0,0.0,0.0,0.0,0.0,0.0,2.3984,2.4414,2.4891,2.5273,2.5674,2.5674,2.5674,2.5674,2.5312,2.4863,0.0,0.0,0.0,0.0,0.0,0.0,0.0,0.0,0.0,0.0,0.0,0.0,0.0,0.0,0.0,0.0,0.0,0.0,0.0,0.0,0.0,0.0,0.0,0.0,0.0,0.0,0.0,0.0,0.0,0.0,0.0,0.0,0.0,0.0,0.0,0.0,0.0,0.0,0.0,0.0,0.0,0.0,2.9841,3.0131,0.0,0.0,0.0,2.9955,2.998,0.0,0.0,0.0,0.0,0.0,0.0,0.0,0.0,0.0,0.0,0.0,0.0,0.0,0.0,0.0,0.0,0.0,0.0,0.0,0.0,0.0,0.0,0.0,0.0,0.0,0.0,0.0,0.0,0.0,0.0,0.0,0.0,0.0,0.0,0.0,0.0,0.0,0.0,0.0,0.0,0.0,0.0,0.0,0.0,0.0,0.0,0.0,0.0,0.0,0.0,0.0,0.0,0.0,0.0,0.0,0.0,0.0,2.4414,2.4746,2.5176,2.5674,2.5674,2.5674,2.5674,2.5195,0.0,0.0,0.0,0.0,0.0,0.0,0.0,0.0,0.0,0.0,0.0,0.0,0.0,0.0,0.0,0.0,0.0,0.0,0.0,0.0,0.0,0.0,0.0,0.0,0.0,0.0,0.0,1.8279,0.0,0.0,0.0,0.0,0.0,0.0,0.0,0.0,0.0,0.0,0.0,0.0,0.0,0.0,3.0608,3.0608,3.106,3.1386,0.0,0.0,3.1386,3.1386,3.106,3.0608,0.0,0.0,0.0,0.0,0.0,0.0,0.0,0.0,0.0,0.0,0.0,0.0,0.0,0.0,0.0,0.0,0.0,0.0,0.0,0.0,0.0,0.0,0.0,0.0,0.0,0.0,0.0,0.0,0.0,0.0,0.0,0.0,0.0,0.0,0.0,0.0,0.0,0.0,0.0,0.0,0.0,0.0,0.0,0.0,0.0,0.0,0.0,0.0,0.0,0.0,0.0,0.0,0.0,0.0,0.0,2.4375,2.4453,2.4836,2.5654,2.5674,2.5674,2.5674,2.4902,2.4453,0.0,0.0,0.0,0.0,0.0,0.0,0.0,0.0,0.0,0.0,0.0,0.0,0.0,0.0,0.0,0.0,0.0,0.0,0.0,0.0,0.0,0.0,0.0,0.0,0.0,0.0,0.0,0.0,0.0,0.0,0.0,0.0,0.0,0.0,0.0,0.0,0.0,0.0,0.0,0.0,0.0,3.0608,3.0608,3.106,3.1386,0.0,0.0,3.1386,3.1427,3.1361,3.116,3.0658,0.0,0.0,0.0,0.0,0.0,0.0,0.0,0.0,0.0,0.0,0.0,0.0,0.0,0.0,0.0,0.0,0.0,0.0,0.0,0.0,0.0,0.0,0.0,0.0,0.0,0.0,0.0,0.0,0.0,0.0,0.0,0.0,0.0,0.0,0.0,0.0,0.0,0.0,0.0,0.0,0.0,0.0,0.0,0.0,0.0,0.0,0.0,0.0,0.0,0.0,0.0,0.0,0.0,2.351,2.4394,2.4414,2.4844,2.5635,2.5674,2.5557,2.5332,2.4727,2.4297,0.0,0.0,0.0,0.0,0.0,0.0,0.0,0.0,0.0,0.0,0.0,0.0,0.0,0.0,0.0,0.0,0.0,0.0,0.0,0.0,0.0,0.0,0.0,0.0,0.0,0.0,0.0,0.0,1.8226,1.8702,1.9663,0.0,0.0,0.0,0.0,0.0,0.0,0.0,0.0,0.0,0.0,3.121,3.1521,3.2064,0.0,0.0,3.2483,3.2441,3.2441,3.2139,3.1838,3.1637,3.106,0.0,0.0,0.0,0.0,0.0,0.0,0.0,0.0,0.0,0.0,0.0,0.0,0.0,0.0,0.0,0.0,0.0,0.0,0.0,0.0,0.0,0.0,0.0,0.0,0.0,0.0,0.0,0.0,0.0,0.0,0.0,0.0,0.0,0.0,0.0,0.0,0.0,0.0,0.0,0.0,0.0,0.0,0.0,0.0,0.0,0.0,0.0,0.0,0.0,0.0,0.0,0.0,2.351,2.4368,2.4414,2.4797,2.5723,2.5674,2.5527,2.5078,2.4648,2.4219,0.0,0.0,0.0,0.0,0.0,0.0,0.0,0.0,0.0,0.0,0.0,0.0,0.0,0.0,0.0,0.0,0.0,0.0,0.0,0.0,0.0,0.0,0.0,0.0,0.0,0.0,0.0,0.0,1.8296,1.8894,1.9904,0.0,0.0,0.0,0.0,0.0,0.0,0.0,0.0,0.0,0.0,3.1705,3.2123,3.2717,3.3187,3.3294,3.3194,3.3119,3.3294,3.2842,3.2416,3.224,0.0,0.0,0.0,0.0,0.0,0.0,0.0,0.0,0.0,0.0,0.0,0.0,0.0,0.0,0.0,0.0,0.0,0.0,0.0,0.0,0.0,0.0,0.0,0.0,0.0,0.0,0.0,0.0,0.0,0.0,1.6224,0.0,0.0,0.0,0.0,0.0,0.0,0.0,0.0,0.0,0.0,0.0,0.0,0.0,0.0,0.0,0.0,0.0,0.0,0.0,0.0,0.0,0.0,2.353,2.4394,2.4434,2.4863,2.5654,2.5674,2.5527,2.5106,2.4648,2.4219,2.3789,0.0,0.0,0.0,0.0,0.0,0.0,0.0,0.0,0.0,0.0,0.0,0.0,0.0,0.0,0.0,0.0,0.0,0.0,0.0,0.0,0.0,0.0,0.0,0.0,0.0,0.0,1.8027,1.8552,1.9072,0.0,0.0,0.0,0.0,0.0,0.0,0.0,0.0,0.0,0.0,3.1083,3.1963,3.2198,3.2742,3.3319,3.3796,3.3445,3.3269,3.3822,3.342,3.2867,0.0,0.0,0.0,0.0,0.0,0.0,0.0,0.0,0.0,0.0,0.0,0.0,0.0,0.0,0.0,0.0,0.0,0.0,0.0,0.0,0.0,0.0,0.0,0.0,0.0,0.0,0.0,1.8218,1.7998,0.0,0.0,0.0,0.0,0.0,0.0,0.0,0.0,0.0,0.0,0.0,2.3019,2.3569,0.0,0.0,0.0,0.0,0.0,0.0,0.0,0.0,0.0,0.0,0.0,0.0,2.3848,2.4394,2.4707,2.5137,2.5654,2.5674,2.5343,2.4648,2.4492,2.4082,2.3379,0.0,0.0,0.0,0.0,0.0,0.0,0.0,0.0,0.0,0.0,0.0,0.0,0.0,0.0,0.0,0.0,0.0,0.0,0.0,0.0,0.0,0.0,0.0,0.0,0.0,1.8125,0.0,0.0,0.0,0.0,0.0,0.0,0.0,0.0,0.0,0.0,0.0,2.8793,3.056,3.1723,3.266,3.3251,3.3796,3.4248,0.0,0.0,0.0,0.0,0.0,0.0,0.0,0.0,0.0,0.0,0.0,0.0,0.0,0.0,3.1386,3.0457,3.0281,3.0281,3.0281,0.0,0.0,0.0,0.0,0.0,0.0,0.0,0.0,0.0,0.0,0.0,0.0,0.0,0.0,1.9511,0.0,1.8371,0.0,0.0,0.0,0.0,0.0,0.0,0.0,0.0,2.2108,2.2953,2.3664,2.424,2.457,0.0,2.4355,2.4004,0.0,0.0,0.0,0.0,0.0,0.0,0.0,0.0,2.4004,2.4368,2.4844,2.5293,2.5654,2.5674,2.5265,2.4407,2.4121,2.3588,2.2906,2.2266,2.1816,0.0,0.0,0.0,0.0,0.0,0.0,0.0,0.0,0.0,0.0,0.0,0.0,0.0,0.0,0.0,0.0,0.0,0.0,0.0,0.0,0.0,0.0,0.0,1.8364,0.0,0.0,0.0,0.0,0.0,0.0,0.0,0.0,0.0,2.6509,2.7603,2.9038,3.0975,3.2103,3.3063,3.392,0.0,0.0,0.0,0.0,0.0,0.0,0.0,3.468,3.468,3.4424,3.4198,3.4173,3.3897,3.3646,3.3646,0.0,0.0,3.219,3.1989,3.1989,3.1964,3.1989,3.2039,3.224,3.2265,3.2315,0.0,0.0,0.0,0.0,0.0,0.0,0.0,0.0,2.104,2.0847,0.0,1.973,0.0,0.0,0.0,0.0,0.0,1.9973,0.0,0.0,2.2713,2.3669,2.4382,2.5033,2.5237,2.5117,2.5145,2.4863,2.4414,2.3549,0.0,0.0,0.0,0.0,0.0,0.0,2.4023,2.4434,2.4883,2.5312,2.5654,2.5674,2.5265,2.4434,2.3549,2.2969,2.2559,2.2148,2.1719,2.1249,2.084,0.0,0.0,0.0,0.0,0.0,0.0,0.0,0.0,0.0,0.0,0.0,0.0,0.0,0.0,0.0,0.0,0.0,0.0,0.0,0.0,1.8383,0.0,0.0,0.0,0.0,0.0,0.0,0.0,0.0,0.0,0.0,2.6164,2.7916,2.9665,3.1137,0.0,0.0,0.0,0.0,3.4931,3.5483,3.5107,3.5002,3.5508,3.5157,3.4831,3.4831,0.0,0.0,3.4851,3.4826,3.4876,3.4851,3.4876,3.4474,3.3495,3.3262,3.3162,3.3162,3.3119,3.3319,3.3771,3.3796,3.3972,2.6345,0.0,0.0,0.0,0.0,2.4293,2.4293,2.4224,2.3432,2.3024,2.267,2.1296,0.0,0.0,0.0,0.0,0.0,0.0,2.1828,2.2609,2.3862,2.478,2.5376,2.5977,2.6056,2.5701,2.5586,2.5312,2.4863,2.4336,2.3906,2.3613,0.0,0.0,0.0,0.0,2.4766,2.4902,2.5312,2.5557,2.5674,2.5674,2.5265,2.4434,2.3549,2.3042,2.2906,2.2516,2.2129,2.1719,2.1289,0.0,0.0,0.0,0.0,0.0,0.0,0.0,0.0,0.0,0.0,0.0,0.0,0.0,0.0,0.0,0.0,0.0,0.0,0.0,1.8926,1.9297,1.9727,0.0,0.0,0.0,0.0,0.0,0.0,0.0,0.0,0.0,2.6848,2.8357,2.9875,0.0,0.0,3.3926,3.4563,3.5236,3.5871,3.6586,3.6584,0.0,0.0,3.7161,3.7061,3.7061,3.7061,3.7061,3.7061,3.7061,3.7061,3.7036,3.7061,3.696,3.6584,3.5278,3.4349,3.4248,3.4248,3.4299,3.4449,3.45,3.455,2.8276,2.7226,2.6364,2.5908,2.5707,2.5707,2.5707,2.5689,2.4933,2.4481,2.4239,2.3014,2.2198,2.1722,2.1001,0.0,0.0,0.0,2.243,2.31,2.407,2.4927,2.5622,2.6036,2.6212,2.6148,2.6118,2.5917,2.5634,2.5156,2.4727,2.4343,0.0,0.0,2.4043,2.4727,2.5059,2.5125,2.5508,2.5674,2.5674,2.5343,2.4914,2.4414,2.3594,2.3101,2.3081,2.2691,2.2402,2.2148,2.1522,2.1073,0.0,0.0,0.0,0.0,0.0,0.0,0.0,0.0,0.0,0.0,0.0,2.0527,0.0,0.0,0.0,0.0,1.9434,1.9355,1.9512,1.9922,0.0,0.0,0.0,0.0,0.0,0.0,0.0,2.4401,2.5325,2.6302,2.7256,2.8641,3.0042,3.1145,3.2626,3.3887,3.4848,0.0,3.6331,3.7193,3.7366,3.7491,3.7965,3.799,3.799,3.799,3.799,3.799,3.799,3.799,3.799,3.799,3.799,3.799,3.799,3.691,3.6031,3.6031,3.6031,3.6031,3.6031,3.6031,3.6031,2.9704,2.9512,2.7857,2.6917,2.6484,2.6484,2.6484,2.6413,2.5931,2.5651,2.5561,2.4738,2.4157,2.3665,2.2868,0.0,2.244,2.2489,2.2811,2.3328,2.3823,2.4544,2.5331,2.5663,2.606,2.6589,2.6641,2.6582,2.6426,2.5996,2.5586,2.5223,2.4727,2.4512,2.4492,2.4902,2.5165,2.5137,2.5527,2.5674,2.5674,2.4855,2.4453,2.4414,2.3569,2.314,2.3081,2.2773,2.2539,2.2438,2.1717,2.1268,2.119,0.0,0.0,0.0,0.0,0.0,0.0,0.0,0.0,0.0,0.0,0.0,0.0,0.0,0.0,0.0,1.9414,0.0,2.0039,2.0468,0.0,0.0,0.0,2.2754,2.3266,2.3633,2.4199,2.5067,0.0,0.0,2.7427,2.8752,3.0024,3.1096,3.2237,3.349,3.4925,3.5567,3.638,3.7419,3.7617,3.7717,3.8141,3.8191,3.8241,3.8241,3.814,3.8191,3.8216,3.8191,3.8165,3.8216,3.814,3.8165,3.814,3.8115,3.814,3.809,3.799,3.7939,3.7839,3.7814,3.7789,3.0371,3.0019,2.9595,2.9169,2.88,2.88,2.88,2.8726,2.8361,2.7914,2.7375,2.6462,2.5165,2.3665,2.3241,2.2975,2.2831,2.3274,2.3678,2.4074,2.4657,2.5286,2.5901,2.6207,2.6542,2.6736,2.696,2.7008,2.6855,2.6445,2.6172,2.6055,2.5644,2.5254,2.4941,2.5352,2.5566,2.5586,2.5635,2.5674,2.5674,2.5195,2.4746,2.4368,2.3906,2.3477,2.3101,2.3003,2.2808,2.2519,2.2324,2.1914,2.1229,2.1112,0.0,0.0,0.0,0.0,0.0,0.0,0.0,0.0,0.0,2.0566,2.041,0.0,2.041,0.0,2.0566,2.0957,2.1387,2.1504,0.0,0.0,2.2871,2.3301,2.4023,2.4512,2.498,2.5508,2.6133,2.6914,2.7841,2.8635,2.9487,3.0695,3.2156,3.3475,3.4439,3.5168,3.6105,3.7302,3.7578,3.7929,3.8812,3.9193,3.927,3.9295,3.927,3.9295,3.9295,3.9295,3.9295,3.9295,3.9295,3.9295,3.927,3.9295,3.927,3.922,3.8617,3.799,3.799,3.8015,3.8015,3.0742,3.0508,3.0508,3.0371,3.0137,2.9783,2.957,2.957,2.9234,2.8876,2.8479,2.753,2.6462,2.5298,2.4731,2.4437,2.4288,2.434,2.4496,2.4833,2.4962,2.5482,2.6167,2.6208,2.6499,2.7047,2.7241,2.7295,2.7305,2.707,2.6855,2.666,2.623,2.5898,2.5712,2.5703,2.5674,2.5674,2.5674,2.5674,2.5674,2.5293,2.4863,2.4434,2.4004,2.3594,2.312,2.3101,2.2984,2.2793,2.2617,2.2305,2.1795,2.1405,2.1093,0.0,0.0,0.0,0.0,0.0,0.0,0.0,0.0,0.0,0.0,0.0,2.1192,2.1192,2.1387,2.1699,2.2129,2.2324,2.2715,2.3359,2.3594,2.3984,2.4629,2.5098,2.5547,2.5977,2.6663,2.7365,2.8046,2.8493,2.9221,3.0306,3.1465,3.2669,3.405,3.4765,3.5637,3.7078,3.7488,3.8004,3.9129,3.9413,3.9594,3.9697,3.9697,3.9697,3.9697,3.9697,3.9697,3.9697,3.9697,3.9697,3.9697,3.9697,3.9697,3.9622,3.9195,3.8793,3.8768,3.8768,3.8768,3.0937,3.0898,3.0898,3.0898,3.082,3.0078,2.9802,2.9746,2.9465,2.9257,2.9086,2.8257,2.7651,2.7269,2.6504,2.6157,2.6099,2.5519,2.5402,2.5635,2.5297,2.5582,2.632,2.5983,2.6391,2.7387,2.7422,2.7519,2.7806,2.7695,2.7532,2.709,2.668,2.6445,2.6387,2.5996,2.5732,2.5693,2.5674,2.5674,2.5674,2.5352,2.4922,2.4434,2.4062,2.3633,2.312,2.3101,2.3101,2.3081,2.275,2.2559,2.25,2.1756,2.1327,0.0,2.1268,0.0,0.0,0.0,0.0,0.0,0.0,0.0,0.0,2.1936,2.1934,2.2031,2.2051,2.2246,2.2715,2.3105,2.354,2.3906,2.4277,2.4687,2.5223,2.5586,2.6016,2.6504,2.7258,2.7832,2.812,2.8476,2.9073,3.0052,3.0662,3.1678,3.3475,3.4218,3.5102,3.6696,3.7334,3.8031,3.8893,3.9206,3.9362,3.9594,3.9697,3.9697,3.9697,3.9697,3.9697,3.9697,3.9697,3.9697,3.9697,3.9697,3.9697,3.9697,3.9647,3.9597,3.9622,3.9597,3.9697,3.1191,3.0898,3.0898,3.0898,3.0879,3.0703,3.0644,3.0644,3.0587,3.0084,2.926,2.8748,2.8049,2.7326,2.7136,2.6924,2.6752,2.6637,2.6579,2.6637,2.6549,2.6583,2.6601,2.6585,2.6811,2.7387,2.7422,2.7653,2.8164,2.7885,2.7669,2.7539,2.7109,2.6738,2.6406,0.0,0.0,0.0,2.5674,2.5674,2.5674,2.5596,2.5234,2.4453,2.4336,0.0,2.3159,2.3101,2.3101,2.3101,2.3023,0.0,0.0,0.0,0.0,0.0,0.0,0.0,0.0,0.0,0.0,0.0,2.2324,2.2148,2.1914,2.1936,2.2168,2.2789,2.291,2.3242,2.3984,2.4121,2.4355,2.4812,2.4949,2.5254,2.6016,2.6211,2.6562,2.7324,2.7578,2.7845,2.8231,2.8589,2.9183,2.9928,3.0442,3.122,3.2421,3.3479,3.4582,3.585,3.7012,3.7921,3.8185,3.8816,3.9258,3.9387,3.9594,3.9697,3.9697,3.9697,3.9697,3.9697,3.9697,3.9697,3.9697,3.9697,3.9697,3.9697,3.9697,3.9697,3.9697,3.9697,3.9697,3.1387,0.0,3.0976,3.0898,0.0,3.0898,3.0898,3.0898,3.0898,3.0509,2.9813,2.9604,2.9181,2.8544,2.8253,2.8079,2.7903,2.761,2.7434,2.7434,2.728,2.7218,2.7272,2.6893,2.705,2.767,2.7481,2.7691,2.8281,2.8086,2.7969,2.7969,2.7559,2.7129,2.6699,2.6269,2.5908,2.5693,2.5674,2.5674,2.5674,2.5674,2.543,2.4766,0.0,0.0,0.0,0.0,0.0,0.0,0.0,0.0,0.0,0.0,0.0,2.2207,2.2187,2.2187,2.2207,2.2383,2.2598,2.2769,2.3027,2.3047,2.2832,2.2832,2.3086,2.3647,2.3789,2.4043,2.4668,2.4746,2.5,2.5673,2.5723,2.5977,2.6582,2.6894,2.7187,2.763,2.7904,2.8066,2.8262,2.8652,2.9137,2.9734,3.0167,3.0772,3.1629,3.2685,3.3797,3.5135,3.634,3.7281,3.7785,3.8262,3.8788,3.8998,3.931,3.949,3.949,3.9569,3.9697,3.9697,3.9697,3.9697,3.9697,3.9697,3.9697,3.9697,3.9697,3.9697,3.9697,3.9697,3.9697,3.166,3.1484,3.1133,3.0957,3.0898,3.0898,3.0898,3.0898,0.0,0.0,0.0,3.0392,3.0216,2.9863,2.939,2.9172,2.9094,2.8618,2.8319,2.8301,2.8038,2.8016,2.8101,2.7446,2.7512,2.8028,2.7761,2.7841,2.8301,2.8301,2.8301,2.8262,2.8002,2.7519,2.6992,2.6122,2.5674,2.5674,2.5674,2.5674,2.5674,2.5674,2.5527,2.5125,2.4648,2.4219,2.3809,2.3335,2.3101,2.3101,2.3101,2.3101,2.3081,2.2769,2.2574,2.2617,2.2617,2.2617,2.2637,2.2984,2.3257,2.3315,2.3691,2.3867,2.3809,2.3848,2.4082,2.4512,2.4531,2.4707,2.5137,2.5321,2.5586,2.6309,2.6445,2.666,2.707,2.7441,2.7728,2.7845,2.8086,2.832,2.8418,2.8789,2.9199,2.9629,3.0154,3.0545,3.1225,3.2227,3.3289,3.4469,3.5521,3.6417,3.7066,3.7601,3.7974,3.8473,3.8841,3.9102,3.9154,3.9413,3.9594,3.9594,3.9645,3.9697,3.9697,3.9697,3.9697,3.9697,3.9697,3.9697,3.9697,3.9697,3.9697,3.2187,3.1504,3.1465,3.1211,3.0898,3.0898,3.0898,3.0898,3.0898,3.0704,3.0392,3.0392,3.0216,2.9922,2.9804,2.9764,2.9745,2.9686,2.9627,2.9627,2.9571,2.9404,2.9105,2.8973,2.8748,2.8435,2.8394,2.8327,2.8286,2.8301,2.8301,2.8281,2.8242,2.7793,2.7012,2.6172,2.5674,2.5674,2.5674,2.5674,2.5674,2.5674,2.5527,2.5125,2.4648,2.4219,2.3809,2.3379,2.3101,2.3101,2.3101,2.3101,2.3101,2.3023,2.3003,2.3003,2.3003,2.3003,2.3003,2.3457,2.3848,2.4199,2.4251,2.418,2.3828,2.4121,2.4512,2.4922,2.498,2.5156,2.5586,2.5977,2.623,2.6406,2.6719,2.7109,2.7519,2.7637,2.7812,2.8125,2.8242,2.8437,2.8769,2.918,2.959,3.0039,3.043,3.0917,3.1305,3.2285,3.3176,3.3797,3.4747,3.5598,3.6091,3.6742,3.7281,3.7702,3.8157,3.8526,3.8502,3.8945,3.9258,3.9335,3.949,3.9645,3.9697,3.9697,3.9697,3.9697,3.9697,3.9697,3.9697,3.9697,3.9697,3.2578,3.2168,3.1719,3.1406,3.1211,3.0976,3.0898,3.0898,3.0898,3.082,3.0704,3.0704,3.0587,3.0411,3.0216,3.0157,3.0157,2.9981,2.9922,2.9922,2.9922,2.9827,2.9619,2.9392,2.926,2.918,2.8718,2.8555,2.8633,2.8398,2.8301,2.8281,2.8066,2.7637,2.7012,2.6406,2.5977,2.5693,2.5674,2.5674,2.5674,2.5674,2.5596,2.543,2.4785,2.4336,2.4141,2.3496,2.3101,2.3101,2.3101,2.3101,2.3101,2.3101,2.3101,2.3101,2.3359,2.3496,2.3452,2.3887,2.4199,2.4414,2.4629,2.4707,2.4512,2.4648,2.4961,2.5391,2.5644,2.5859,2.6074,2.6484,2.6816,2.707,2.7266,2.7539,2.791,2.8008,2.8086,2.8262,2.8301,2.8457,2.8867,2.9297,2.9783,3.0137,3.0605,3.0937,3.1054,3.1672,3.2399,3.3027,3.3987,3.4769,3.5245,3.5817,3.6309,3.682,3.7358,3.7655,3.7708,3.8315,3.8736,3.8841,3.9154,3.949,3.949,3.9594,3.9697,3.9697,3.9697,3.9697,3.9697,3.9697,3.9697,3.2871,3.2715,3.209,3.1699,3.1484,3.1074,3.0898,3.0898,3.0898,3.0898,3.0898,3.0898,3.0898,3.0898,3.0645,3.0509,3.045,3.0216,3.0098,3.0117,3.0098,3.0117,3.0079,2.9813,2.9738,2.9814,2.9119,2.8823,2.8832,2.8496,2.8301,2.8242,2.7871,2.75,2.7148,2.6641,2.623,2.5898,2.5732,2.5674,2.5674,2.5674,2.5674,2.5635,2.498,2.457,2.4531,2.373,2.3237,2.3237,2.314,2.314,2.3281,2.3237,2.3276,2.3393,2.375,2.3984,2.4082,2.4375,2.4609,2.4707,2.5019,2.5321,2.5352,2.5419,2.5488,2.5859,2.6269,2.6523,2.6582,2.6914,2.7305,2.7689,2.7754,2.793,2.8223,2.8301,2.8301,2.8301,2.8359,2.8613,2.9023,2.9434,2.9883,3.0332,3.0684,3.0879,3.0957,3.1112,3.1614,3.2305,3.3105,3.384,3.4413,3.4747,3.5212,3.5817,3.6363,3.6634,3.685,3.7441,3.8051,3.8133,3.8684,3.8998,3.9102,3.9362,3.9542,3.9594,3.9645,3.9697,3.9697,3.9697,3.9697,3.3144,3.2812,3.2695,3.2226,3.1504,3.1074,3.0898,3.0898,3.0898,3.0898,3.0898,3.0898,3.0898,3.0898,3.084,3.082,3.084,3.082,3.0782,3.0782,3.084,3.082,3.0762,3.0781,3.0548,3.0138,2.967,2.9261,2.8945,2.8496,2.8301,2.8242,2.7871,2.7708,2.7571,2.6797,2.6387,2.6328,2.5888,2.5674,2.5674,2.5674,2.5674,2.5674,2.5273,2.5,2.5008,2.418,2.373,2.3711,2.3315,2.334,2.3672,2.373,2.3906,2.4238,2.4336,2.4531,2.4949,2.5028,2.5176,2.5518,2.5577,2.584,2.6191,2.625,2.6269,2.6406,2.6719,2.6953,2.6992,2.7344,2.7617,2.7767,2.8008,2.8262,2.8281,2.8301,2.8301,2.8301,2.8613,2.9023,2.9453,2.9883,3.0312,3.0703,3.082,3.0898,3.0957,3.1112,3.1267,3.1498,3.1998,3.2628,3.3176,3.3515,3.4022,3.458,3.5157,3.5488,3.5763,3.6417,3.7173,3.7227,3.7921,3.8421,3.8579,3.8945,3.931,3.931,3.9465,3.9697,3.9697,3.9697,3.9697,3.332,3.3144,3.2891,3.2305,3.1543,3.1328,3.1113,3.0898,3.0898,3.0898,3.0898,3.0898,3.0898,3.0898,3.0898,3.0898,3.0898,3.0898,3.0898,3.0898,3.0898,3.0898,3.0898,3.0898,3.0781,3.0586,3.0156,2.9707,2.9258,2.8633,2.8301,2.8281,2.8105,2.791,2.7708,2.7376,2.6914,2.6406,2.6211,2.5996,2.5713,2.5674,2.5674,2.5635,2.5293,2.5059,2.5019,2.4473,2.416,2.416,2.3984,2.3965,2.4141,2.416,2.4238,2.4414,2.4668,2.5,2.543,2.5469,2.5547,2.5674,2.5977,2.6211,2.6387,2.6836,2.7148,2.7219,2.7305,2.7402,2.7441,2.7793,2.8027,2.8066,2.8203,2.8301,2.8301,2.8301,2.8379,2.8613,2.8809,2.9199,2.9824,3.0332,3.0664,3.0859,3.0898,3.0898,3.0898,3.1015,3.1054,3.1054,3.1267,3.173,3.2399,3.2664,3.3063,3.3593,3.4043,3.4379,3.4714,3.5433,3.6091,3.6091,3.6958,3.7548,3.7601,3.8262,3.8788,3.8893,3.9206,3.9517,3.9697,3.9697,3.9697,3.3292,3.3233,3.2906,3.2363,3.1699,3.1562,3.1269,3.0918,3.0898,3.0898,3.0898,3.0898,3.0898,3.0898,3.0898,3.0898,3.0898,3.0898,3.0898,3.0898,3.0898,3.0898,3.0898,3.0898,3.0898,3.082,3.041,2.9922,2.9394,2.8809,2.8418,2.832,2.8301,2.8144,2.7904,2.7806,2.7363,2.6797,2.6621,2.6348,2.5977,2.5918,2.5859,2.5674,2.543,2.5254,2.5234,2.4824,2.459,2.459,2.4492,2.4473,2.459,2.459,2.4648,2.4785,2.5078,2.5391,2.5674,2.584,2.5918,2.5957,2.6309,2.6621,2.6816,2.7305,2.7748,2.7812,2.7832,2.7832,2.7871,2.8105,2.8281,2.8301,2.8301,2.8301,2.8301,2.8359,2.8594,2.8867,2.916,2.9531,3.0254,3.0664,3.0879,3.0879,3.0898,3.0898,3.0898,3.0898,3.0957,3.0898,3.0879,3.1228,3.1845,3.1998,3.2227,3.2628,3.3084,3.331,3.3614,3.4323,3.4858,3.4969,3.5982,3.658,3.6688,3.7281,3.8185,3.8473,3.8893,3.931,3.9542,3.9645,3.9697,3.2931,3.2917,3.2844,3.2559,3.217,3.1699,3.1289,3.0937,3.0898,3.0898,3.0898,3.0898,3.0898,3.0898,3.0898,3.0898,3.0898,3.0898,3.0898,3.0898,3.0898,3.0898,3.0898,3.0898,3.0898,3.0859,3.0469,2.9844,2.9062,2.8926,2.8691,2.834,2.832,2.8301,2.8184,2.7871,2.7708,2.7552,2.7168,2.6777,2.6426,2.6367,2.6172,2.5791,2.5703,2.5635,2.5644,2.5273,2.5039,2.5086,2.4687,2.4629,2.498,2.5039,2.5215,2.5538,2.5635,2.5654,2.5801,2.6133,2.6367,2.6406,2.6738,2.7148,2.7493,2.7637,2.7871,2.8223,2.8223,2.8223,2.8223,2.8242,2.8301,2.8301,2.8301,2.8301,2.832,2.8633,2.8867,2.9082,2.9648,3.0215,3.0762,3.0879,3.0898,3.0898,3.0898,3.0898,3.0898,3.0898,3.0898,3.0898,3.0957,3.0995,3.1267,3.1441,3.1556,3.1903,3.2227,3.2342,3.2607,3.2949,3.3402,3.3909,3.4803,3.5433,3.5653,3.6363,3.7388,3.8027,3.8736,3.9154,3.9362,3.9594,3.9697,3.253,3.2912,3.3136,3.2949,3.2539,3.2109,3.168,3.1289,3.0996,3.0898,3.0898,3.0898,3.0898,3.0898,3.0898,3.0898,3.0898,3.0898,3.0898,3.0898,3.0898,3.0898,3.0898,3.0898,3.0898,3.0859,3.0723,3.0332,2.9766,2.9473,2.9121,2.8769,2.8691,2.8574,2.832,2.8144,2.8002,2.7728,2.7552,2.7226,2.6836,2.6797,2.6699,2.6493,2.5966,2.5674,2.5674,2.5566,2.5508,2.5508,2.5332,2.5332,2.5469,2.5488,2.5547,2.5693,2.5996,2.6152,2.6211,2.6562,2.6797,2.6816,2.7187,2.748,2.7728,2.791,2.8144,2.8262,2.8301,2.8301,2.8301,2.8301,2.8301,2.8301,2.8301,2.8418,2.8633,2.8848,2.9101,2.9668,3.0273,3.0703,3.082,3.0898,3.0898,3.0898,3.0898,3.0898,3.0898,3.0898,3.0898,3.0898,3.0898,3.0957,3.0995,3.1054,3.117,3.1402,3.1614,3.1787,3.1998,3.2285,3.2721,3.2892,3.3685,3.4302,3.458,3.5521,3.6557,3.7548,3.8238,3.8841,3.9206,3.9413,3.9594,3.2256,3.2912,3.3292,3.3184,3.2773,3.25,3.2051,3.1523,3.1211,3.1016,3.0918,3.0898,3.0898,3.0898,3.0898,3.0898,3.0898,3.0898,3.0898,3.0898,3.0898,3.0898,3.0898,3.0898,3.0898,3.0898,3.0898,3.0644,3.0215,2.9922,2.9551,2.916,2.9004,2.8789,2.8516,2.8379,2.8125,2.791,2.7924,2.7656,2.7285,2.7226,2.7148,2.6953,2.6395,2.6074,2.5957,2.5752,2.5674,2.5674,2.5674,2.5674,2.5674,2.5674,2.5752,2.5908,2.6211,2.6465,2.6621,2.6992,2.7226,2.7246,2.7617,2.7871,2.7943,2.8144,2.8281,2.8301,2.8301,2.8301,2.832,2.8418,2.8496,2.8496,2.8496,2.8672,2.9062,2.9258,2.9668,3.0254,3.0644,3.0859,3.0898,3.0898,3.0898,3.0898,3.0898,3.0898,3.0898,3.0898,3.0898,3.0898,3.0898,3.0898,3.0937,3.0957,3.0957,3.117,3.1228,3.1402,3.1498,3.1767,3.194,3.2055,3.2436,3.3063,3.3853,3.4747,3.574,3.6827,3.7655,3.8315,3.8788,3.9258,3.949,3.2275,3.2848,3.3228,3.3203,3.2871,3.2773,3.2285,3.1641,3.1504,3.125,3.0918,3.0898,3.0898,3.0898,3.0898,3.0898,3.0898,3.0898,3.0898,3.0898,3.0898,3.0898,3.0898,3.0898,3.0898,3.0898,3.0898,3.0664,3.0273,3.0215,3.0,2.957,2.9219,2.9004,2.8887,2.8535,2.832,2.8242,2.8223,2.8066,2.7787,2.7708,2.75,2.7148,2.7012,2.6797,2.6426,2.6035,2.5791,2.5732,2.5732,2.5713,2.5752,2.5752,2.5957,2.6328,2.6426,2.6641,2.6992,2.7422,2.7728,2.7715,2.8047,2.8223,2.8223,2.8262,2.8301,2.8301,2.834,2.834,2.8418,2.8691,2.8906,2.8906,2.8887,2.9121,2.9531,2.9941,3.0371,3.0742,3.0879,3.0898,3.0898,3.0898,3.0898,3.0898,3.0898,3.0898,3.0898,3.0898,3.0898,3.0898,3.0898,3.0898,3.0898,3.0898,3.0898,3.0957,3.1015,3.1054,3.1112,3.1325,3.1441,3.1556,3.1825,3.2457,3.3289,3.4134,3.4914,3.5904,3.6773,3.7708,3.8315,3.8788,3.9258,3.2147,3.2613,3.3165,3.3359,3.3184,3.291,3.2461,3.1953,3.166,3.1269,3.0937,3.0898,3.0898,3.0898,3.0898,3.0898,3.0898,3.0898,3.0898,3.0898,3.0898,3.0898,3.0898,3.0898,3.0898,3.0898,3.0898,3.082,3.0703,3.0664,3.0449,3.0039,2.9863,2.9473,2.8965,2.8769,2.8613,2.832,2.8301,2.8223,2.8105,2.8105,2.8027,2.7891,2.7617,2.7434,2.7317,2.6855,2.6484,2.6211,2.6191,2.6191,2.6191,2.6191,2.6387,2.6797,2.7109,2.7305,2.7532,2.7832,2.8086,2.8105,2.8223,2.8281,2.8301,2.8301,2.8301,2.834,2.8535,2.8711,2.8789,2.9121,2.9238,2.8945,2.918,2.9531,2.9961,3.0371,3.0703,3.084,3.0898,3.0898,3.0898,3.0898,3.0898,3.0898,3.0898,3.0898,3.0898,3.0898,3.0898,3.0898,3.0898,3.0898,3.0898,3.0898,3.0898,3.0898,3.0898,3.0898,3.0937,3.0995,3.1054,3.117,3.1441,3.194,3.2742,3.3459,3.419,3.4969,3.5904,3.6827,3.7655,3.8238,3.8684,3.1955,3.2485,3.3102,3.3418,3.3398,3.3125,3.2773,3.2383,3.1953,3.1523,3.1172,3.0957,3.0898,3.0898,3.0898,3.0898,3.0898,3.0898,3.0898,3.0898,3.0898,3.0898,3.0898,3.0898,3.0898,3.0898,3.0898,3.0898,3.0898,3.0879,3.0742,3.0488,3.0293,2.9961,2.9414,2.9238,2.8945,2.8594,2.8535,2.8457,2.832,2.8301,2.8301,2.8262,2.8027,2.791,2.7871,2.7617,2.7226,2.6738,2.6621,2.6621,2.6621,2.6641,2.6816,2.7207,2.7552,2.7767,2.7891,2.8125,2.8301,2.8301,2.8301,2.8301,2.832,2.8398,2.8516,2.8574,2.8906,2.916,2.9219,2.9551,2.9648,2.9434,2.9629,3.0,3.0391,3.0703,3.0859,3.0898,3.0898,3.0898,3.0898,3.0898,3.0898,3.0898,3.0898,3.0898,3.0898,3.0898,3.0898,3.0898,3.0898,3.0898,3.0898,3.0898,3.0898,3.0898,3.0898,3.0898,3.0957,3.0957,3.0937,3.1054,3.1267,3.1441,3.217,3.2721,3.3402,3.4246,3.508,3.5959,3.6773,3.7441,3.7998,3.1827,3.2485,3.3102,3.3418,3.3418,3.3379,3.3125,3.2754,3.2383,3.1953,3.1543,3.1152,3.0957,3.0937,3.0937,3.0898,3.0898,3.0898,3.0898,3.0898,3.0898,3.0898,3.0898,3.0898,3.0898,3.0898,3.0898,3.0898,3.0898,3.0898,3.0879,3.0801,3.0469,3.0215,3.0039,2.9766,2.9394,2.9023,2.8965,2.8769,2.8398,2.8359,2.832,2.8301,2.8262,2.8242,2.8223,2.8164,2.7832,2.7168,2.7012,2.6973,2.7031,2.7051,2.7246,2.7708,2.7748,2.7963,2.8184,2.8262,2.834,2.8379,2.8398,2.8359,2.8496,2.8789,2.8945,2.8984,2.9336,2.9665,2.9668,2.998,3.0176,3.0234,3.0215,3.043,3.0801,3.0879,3.0898,3.0898,3.0898,3.0898,3.0898,3.0898,3.0898,3.0898,3.0898,3.0898,3.0898,3.0898,3.0898,3.0898,3.0898,3.0898,3.0898,3.0898,3.0898,3.0898,3.0898,3.0898,3.0898,3.0898,3.0898,3.0995,3.1054,3.1208,3.1498,3.2113,3.2685,3.3346,3.419,3.508,3.585,3.6526,3.7227,3.2019,3.2485,3.3102,3.3418,3.3418,3.3418,3.3184,3.2812,3.2676,3.2363,3.1973,3.1543,3.1348,3.1328,3.1035,3.0898,3.0918,3.0898,3.0898,3.0898,3.0898,3.0898,3.0898,3.0898,3.0898,3.0898,3.0898,3.0898,3.0898,3.0898,3.0898,3.0879,3.0762,3.0527,3.0215,3.0098,2.9824,2.9473,2.9394,2.9199,2.8828,2.875,2.8594,2.832,2.832,2.832,2.8301,2.8301,2.8066,2.7539,2.7168,2.7168,2.7461,2.75,2.7676,2.8008,2.8125,2.8164,2.8262,2.834,2.8457,2.8711,2.875,2.8887,2.9274,2.9336,2.9394,2.9473,2.9785,3.0039,3.0117,3.043,3.0644,3.0703,3.0664,3.0723,3.084,3.0898,3.0898,3.0898,3.0898,3.0898,3.0898,3.0898,3.0898,3.0898,3.0898,3.0898,3.0898,3.0898,3.0898,3.0898,3.0898,3.0898,3.0898,3.0898,3.0898,3.0898,3.0898,3.0898,3.0898,3.0898,3.0898,3.0957,3.0937,3.1112,3.1208,3.1594,3.2113,3.2628,3.3233,3.4134,3.4914,3.563,3.6309,3.2147,3.2676,3.3165,3.3418,3.3418,3.3418,3.3281,3.3047,3.2851,3.2676,3.2363,3.1973,3.1797,3.1738,3.1348,3.1152,3.1133,3.0976,3.0898,3.0898,3.0898,3.0898,3.0898,3.0898,3.0898,3.0898,3.0898,3.0898,3.0898,3.0898,3.0898,3.0898,3.0898,3.0742,3.0547,3.0469,3.0273,2.9922,2.9824,2.9629,2.9238,2.9199,2.9082,2.8867,2.8828,2.8769,2.8613,2.8574,2.8359,2.7969,2.7695,2.7676,2.7891,2.7982,2.8047,2.8301,2.8437,2.8555,2.8594,2.8711,2.8945,2.9141,2.9199,2.9316,2.9587,2.9707,2.9844,2.9863,3.0234,3.0449,3.0527,3.0742,3.0879,3.0879,3.0898,3.0898,3.0898,3.0898,3.0898,3.0898,3.0898,3.0898,3.0898,3.0898,3.0898,3.0898,3.0898,3.0898,3.0898,3.0898,3.0898,3.0898,3.0898,3.0898,3.0898,3.0898,3.0898,3.0898,3.0898,3.0898,3.0898,3.0898,3.0898,3.0898,3.0898,3.0957,3.1112,3.1208,3.1536,3.2055,3.255,3.3119,3.3909,3.458,3.5323,3.2275,3.2867,3.3228,3.3355,3.3355,3.3418,3.3398,3.334,3.3047,3.2891,3.2773,3.2422,3.2246,3.2268,3.1797,3.1582,3.1562,3.1191,3.0976,3.0918,3.0898,3.0898,3.0898,3.0898,3.0898,3.0898,3.0898,3.0898,3.0898,3.0898,3.0898,3.0898,3.0898,3.0898,3.082,3.084,3.0644,3.0351,3.0273,3.0059,2.9707,2.9629,2.9551,2.9434,2.947,2.9277,2.9082,2.8965,2.8809,2.8457,2.8359,2.8262,2.832,2.8359,2.8437,2.8535,2.8828,2.8984,2.9023,2.9297,2.9551,2.9609,2.9629,2.9744,2.99,3.0098,3.0273,3.0273,3.0644,3.0801,3.084,3.0898,3.0898,3.0898,3.0898,3.0898,3.0898,3.0898,3.0898,3.0898,3.0898,3.0898,3.0898,3.0898,3.0898,3.0898,3.0898,3.0898,3.0898,3.0898,3.0898,3.0898,3.0898,3.0898,3.0898,3.0898,3.0898,3.0898,3.0898,3.0898,3.0898,3.0898,3.0898,3.0898,3.0898,3.0898,3.0957,3.1112,3.1267,3.1498,3.1998,3.2514,3.3006,3.3593,3.4267,3.1891,3.2549,3.2867,3.3165,3.3355,3.3418,3.3418,3.3398,3.332,3.3242,3.3184,3.2832,3.2676,3.2637,3.2246,3.2031,3.1973,3.1582,3.123,3.0898,3.0898,3.0898,3.0898,3.0898,3.0898,3.0898,3.0898,3.0898,3.0898,3.0898,3.0898,3.0898,3.0898,3.0898,3.0898,3.0879,3.0859,3.0742,3.0723,3.0488,3.0156,3.0059,2.9941,2.9687,2.9685,2.957,2.9473,2.9434,2.9375,2.916,2.873,2.8516,2.873,2.8789,2.8906,2.916,2.9316,2.9434,2.9453,2.957,2.9726,3.0039,3.0078,3.0215,3.0586,3.0625,3.0723,3.0742,3.084,3.0898,3.0898,3.0898,3.0898,3.0898,3.0898,3.0898,3.0898,3.0898,3.0898,3.0898,3.0898,3.0898,3.0898,3.0898,3.0898,3.0898,3.0898,3.0898,3.0898,3.0898,3.0898,3.0898,3.0898,3.0898,3.0898,3.0898,3.0898,3.0898,3.0898,3.0898,3.0898,3.0898,3.0898,3.0898,3.0898,3.0898,3.0898,3.0957,3.1054,3.1267,3.1498,3.1883,3.2342,3.282,3.3197,3.1891,3.2613,3.2848,3.3102,3.3355,3.3418,3.3418,3.3418,3.3418,3.3418,3.3379,3.3164,3.3086,3.3047,3.2676,3.2461,3.2363,3.2031,3.1719,3.1484,3.1328,3.1191,3.1113,3.0976,3.0898,3.0898,3.0898,3.0898,3.0898,3.0898,3.0898,3.0898,3.0898,3.0898,3.0898,3.0898,3.0898,3.0879,3.0898,3.0762,3.0566,3.0527,3.0469,3.0234,3.0176,3.0117,2.9883,2.9863,2.9746,2.9567,2.916,2.8984,2.916,2.9219,2.9355,2.9512,2.9785,2.9844,2.9883,3.0078,3.0312,3.0488,3.0527,3.0644,3.082,3.0898,3.0898,3.0898,3.0898,3.0898,3.0898,3.0898,3.0898,3.0898,3.0898,3.0898,3.0898,3.0898,3.0898,3.0898,3.0898,3.0898,3.0898,3.0898,3.0898,3.0898,3.0898,3.0898,3.0898,3.0898,3.0898,3.0898,3.0898,3.0898,3.0898,3.0898,3.0898,3.0898,3.0898,3.0898,3.0898,3.0898,3.0898,3.0898,3.0898,3.0898,3.0898,3.0898,3.0898,3.1054,3.1286,3.1498,3.173,3.2133,3.2457,3.1763,3.2721,3.2804,3.3058,3.3355,3.3418,3.3418,3.3418,3.3418,3.3418,3.3418,3.3418,3.3359,3.332,3.3066,3.2871,3.2695,3.2461,3.2187,3.1992,3.1738,3.1641,3.1543,3.1348,3.1133,3.1016,3.0918,3.0898,3.0898,3.0898,3.0898,3.0898,3.0898,3.0898,3.0898,3.0898,3.0898,3.0898,3.0898,3.0879,3.084,3.084,3.082,3.0781,3.0762,3.0625,3.0371,3.0293,3.0156,2.9805,2.9766,2.9841,2.9766,2.9668,2.9802,2.9785,3.0156,3.0293,3.0351,3.0586,3.082,3.0898,3.0879,3.0879,3.0898,3.0898,3.0898,3.0898,3.0898,3.0898,3.0898,3.0898,3.0898,3.0898,3.0898,3.0898,3.0898,3.0898,3.0898,3.0898,3.0898,3.0898,3.0898,3.0898,3.0898,3.0898,3.0898,3.0898,3.0898,3.0898,3.0898,3.0898,3.0898,3.0898,3.0898,3.0898,3.0898,3.0898,3.0898,3.0898,3.0898,3.0898,3.0898,3.0898,3.0898,3.0898,3.0898,3.0898,3.0957,3.0957,3.0995,3.1228,3.1383,3.1498,3.1845,3.0843,3.2065,3.2339,3.2848,3.3355,3.3418,3.3418,3.3418,3.3418,3.3418,3.3418,3.3418,3.3418,3.3379,3.3379,3.3144,3.2871,3.2715,3.2539,3.2305,3.2109,3.2051,3.2012,3.1875,3.1699,3.1387,3.1152,3.0996,3.0898,3.0898,3.0898,3.0898,3.0898,3.0898,3.0898,3.0898,3.0898,3.0898,3.0898,3.0898,3.0898,3.0898,3.0898,3.0898,3.0898,3.084,3.0801,3.0762,3.0742,3.0684,3.0664,3.0644,3.0527,3.0254,3.0273,3.0488,3.0625,3.0684,3.0723,3.0801,3.0898,3.0898,3.0898,3.0898,3.0898,3.0898,3.0898,3.0898,3.0898,3.0898,3.0898,3.0898,3.0898,3.0898,3.0898,3.0898,3.0898,3.0898,3.0898,3.0898,3.0898,3.0898,3.0898,3.0898,3.0898,3.0898,3.0898,3.0898,3.0898,3.0898,3.0898,3.0898,3.0898,3.0898,3.0898,3.0898,3.0898,3.0898,3.0898,3.0898,3.0898,3.0898,3.0898,3.0898,3.0898,3.0898,3.0898,3.0898,3.0898,3.0957,3.0937,3.0995,3.1112,3.1286,3.1325,3.0797,3.1955,3.2275,3.2804,3.3355,3.3418,3.3418,3.3418,3.3418,3.3418,3.3418,3.3418,3.3418,3.3418,3.3418,3.3281,3.3164,3.3105,3.2988,3.2812,3.2617,3.25,3.2441,3.2305,3.207,3.1855,3.1641,3.1269,3.0918,3.0898,3.0898,3.0898,3.0898,3.0898,3.0898,3.0898,3.0898,3.0898,3.0898,3.0898,3.0898,3.0898,3.0898,3.0898,3.0898,3.0898,3.0898,3.0898,3.0898,3.0879,3.0879,3.0898,3.082,3.0742,3.0644,3.084,3.0898,3.0898,3.0898,3.0898,3.0898,3.0898,3.0898,3.0898,3.0898,3.0898,3.0898,3.0898,3.0898,3.0898,3.0898,3.0898,3.0898,3.0898,3.0898,3.0898,3.0898,3.0898,3.0898,3.0898,3.0898,3.0898,3.0898,3.0898,3.0898,3.0898,3.0898,3.0918,3.0937,3.1016,3.1074,3.1055,3.1074,3.1074,3.1094,3.1094,3.1113,3.1074,3.1055,3.1055,3.0976,3.1016,3.0957,3.0898,3.0898,3.0898,3.0898,3.0898,3.0898,3.0898,3.0957,3.0957,3.0937,3.0995,3.1112,3.0861,3.1827,3.2211,3.2804,3.3355,3.3418,3.3418,3.3418,3.3418,3.3418,3.3418,3.3418,3.3418,3.3418,3.3418,3.3398,3.3418,3.3398,3.3359,3.3301,3.3066,3.293,3.2812,3.2617,3.2422,3.2305,3.2246,3.1836,3.1211,3.1074,3.0996,3.0918,3.0898,3.0898,3.0898,3.0898,3.0898,3.0898,3.0898,3.0898,3.0898,3.0898,3.0898,3.0898,3.0898,3.0898,3.0898,3.0898,3.0898,3.0898,3.0898,3.0898,3.0898,3.0898,3.0898,3.0898,3.0898,3.0898,3.0898,3.0898,3.0898,3.0898,3.0898,3.0898,3.0898,3.0898,3.0898,3.0898,3.0898,3.0898,3.0898,3.0898,3.0898,3.0898,3.0898,3.0898,3.0898,3.0898,3.0898,3.0898,3.0898,3.0918,3.0957,3.0898,3.0898,3.0996,3.1016,3.1152,3.1211,3.1367,3.1406,3.1328,3.1309,3.1328,3.1348,3.1406,3.1445,3.1484,3.1465,3.1465,3.1309,3.1191,3.1133,3.1094,3.0898,3.0898,3.0898,3.0898,3.0898,3.0898,3.0898,3.0898,3.0957,3.0957,3.0995,3.0473,3.1506,3.2166,3.2804,3.3355,3.3418,3.3418,3.3418,3.3418,3.3418,3.3418,3.3418,3.3418,3.3418,3.3418,3.3418,3.3418,3.3418,3.3418,3.3398,3.332,3.3262,3.332,3.332,3.2969,3.2773,3.2715,3.2226,3.166,3.1484,3.1269,3.1055,3.0996,3.0918,3.0976,3.0918,3.0898,3.0898,3.0898,3.0898,3.0898,3.0898,3.0898,3.0898,3.0898,3.0898,3.0898,3.0898,3.0898,3.0898,3.0898,3.0898,3.0898,3.0898,3.0898,3.0898,3.0898,3.0898,3.0898,3.0898,3.0898,3.0898,3.0898,3.0898,3.0898,3.0898,3.0898,3.0898,3.0898,3.0898,3.0898,3.0918,3.0898,3.0976,3.1055,3.1016,3.0996,3.125,3.1211,3.1152,3.125,3.1113,3.1055,3.0957,3.0898,3.1035,3.1172,3.1348,3.1484,3.1641,3.1758,3.168,3.172,3.166,3.1641,3.1699,3.1758,3.1816,3.1816,3.1816,3.1699,3.1543,3.1484,3.1406,3.1191,3.1016,3.1016,3.1016,3.0937,3.0898,3.0898,3.0898,3.0898,3.0898,3.0898,3.1102,3.1763,3.2403,3.2994,3.3355,3.3418,3.3418,3.3418,3.3418,3.3418,3.3418,3.3418,3.3418,3.3418,3.3418,3.3418,3.3418,3.3418,3.3418,3.3418,3.3418,3.3418,3.3398,3.3418,3.3281,3.3184,3.3105,3.2871,3.2344,3.1992,3.1758,3.1601,3.1367,3.1269,3.1211,3.0996,3.0918,3.0898,3.0898,3.0898,3.0898,3.0898,3.0898,3.0898,3.0898,3.0898,3.0898,3.0898,3.0898,3.0898,3.0898,3.0898,3.0898,3.0898,3.0898,3.0898,3.0898,3.0898,3.0898,3.0898,3.0898,3.0898,3.0898,3.0898,3.0898,3.0898,3.0898,3.0898,3.0898,3.0898,3.0976,3.1113,3.1211,3.1289,3.1387,3.1484,3.1523,3.1601,3.1699,3.1641,3.1601,3.1523,3.1445,3.1406,3.1426,3.1562,3.1699,3.1836,3.1914,3.1953,3.2031,3.207,3.2111,3.2051,3.2031,3.2031,3.2031,3.209,3.207,3.207,3.2131,3.1973,3.1914,3.1875,3.1777,3.1582,3.1309,3.1074,3.0976,3.0918,3.0898,3.0898,3.0898,3.0898,3.0898,3.1955,3.2192,3.2657,3.3102,3.3418,3.3418,3.3418,3.3418,3.3418,3.3418,3.3418,3.3418,3.3418,3.3418,3.3418,3.3418,3.3418,3.3418,3.3418,3.3418,3.3418,3.3418,3.3418,3.3418,3.3418,3.3418,3.3359,3.3184,3.2949,3.2656,3.2422,3.2168,3.1816,3.1699,3.1601,3.1445,3.1269,3.1094,3.0957,3.0898,3.0898,3.0898,3.0898,3.0898,3.0898,3.0898,3.0898,3.0898,3.0898,3.0898,3.0898,3.0898,3.0898,3.0898,3.0898,3.0898,3.0898,3.0898,3.0898,3.0898,3.0898,3.0898,3.0898,3.0898,3.0898,3.0898,3.0898,3.0898,3.1055,3.1055,3.1133,3.1445,3.1621,3.1777,3.1914,3.207,3.2168,3.2109,3.2031,3.1934,3.1953,3.2129,3.2051,3.1953,3.1992,3.217,3.2246,3.2344,3.2402,3.2422,3.25,3.2598,3.2617,3.2617,3.2598,3.2539,3.248,3.2402,3.2402,3.2461,3.2539,3.2461,3.2344,3.2324,3.2285,3.2031,3.1699,3.1328,3.0996,3.0937,3.0898,3.0898,3.0898,3.0898,3.0898,3.2804,3.2867,3.2867,3.3121,3.3418,3.3418,3.3418,3.3418,3.3418,3.3418,3.3418,3.3418,3.3418,3.3418,3.3418,3.3418,3.3418,3.3418,3.3418,3.3418,3.3418,3.3418,3.3418,3.3418,3.3418,3.3418,3.3418,3.3398,3.3359,3.3203,3.2773,3.2266,3.2207,3.2148,3.207,3.1934,3.1719,3.1484,3.123,3.1055,3.1016,3.0976,3.0937,3.0918,3.0918,3.0898,3.0898,3.0898,3.0898,3.0898,3.0898,3.0898,3.0898,3.0898,3.0898,3.0898,3.0976,3.0996,3.0996,3.0937,3.0898,3.0898,3.0898,3.0918,3.0996,3.0937,3.0918,3.1055,3.1348,3.1465,3.1601,3.1836,3.207,3.2187,3.2324,3.2422,3.248,3.2402,3.2324,3.2207,3.2305,3.2559,3.2656,3.2559,3.248,3.2578,3.2676,3.2793,3.2988,3.3047,3.3125,3.3203,3.3242,3.3262,3.3262,3.3184,3.2988,3.2949,3.2969,3.3066,3.3184,3.3027,3.2754,3.2695,3.2637,3.2363,3.217,3.1855,3.1543,3.1094,3.0918,3.0996,3.0937,3.0898,3.0898,3.3038,3.3165,3.3228,3.3292,3.3418,3.3418,3.3418,3.3418,3.3418,3.3418,3.3418,3.3418,3.3418,3.3418,3.3418,3.3418,3.3418,3.3418,3.3418,3.3418,3.3418,3.3418,3.3418,3.3418,3.3418,3.3418,3.3418,3.3418,3.3398,3.3418,3.3301,3.2949,3.2676,3.2578,3.2519,3.2324,3.209,3.1973,3.1758,3.166,3.1621,3.1387,3.1269,3.1269,3.0957,3.0918,3.0898,3.0898,3.0898,3.0918,3.0937,3.0957,3.0976,3.0976,3.0976,3.1016,3.1152,3.1269,3.1211,3.1074,3.0898,3.0898,3.0918,3.1016,3.125,3.1269,3.1445,3.1621,3.1777,3.1894,3.1973,3.2285,3.2578,3.2617,3.2695,3.2812,3.2812,3.2754,3.2754,3.2715,3.2871,3.3086,3.3144,3.3164,3.3066,3.3027,3.3125,3.3223,3.334,3.3418,3.3418,3.3418,3.3418,3.3418,3.3418,3.3418,3.3418,3.3418,3.3418,3.3418,3.3418,3.3379,3.3164,3.3086,3.3008,3.2812,3.2617,3.2441,3.2109,3.1641,3.1348,3.1191,3.1094,3.0957,3.0918,3.3165,3.3355,3.3418,3.3418,3.3418,3.3418,3.3418,3.3418,3.3418,3.3418,3.3418,3.3418,3.3418,3.3418,3.3418,3.3418,3.3418,3.3418,3.3418,3.3418,3.3418,3.3418,3.3418,3.3418,3.3418,3.3418,3.3418,3.3418,3.3418,3.3418,3.3359,3.3262,3.3164,3.3008,3.2891,3.2598,3.2344,3.2344,3.2207,3.2168,3.207,3.1875,3.1719,3.1699,3.1465,3.1387,3.1387,3.1406,3.1367,3.1367,3.1348,3.1309,3.1289,3.1269,3.1269,3.1367,3.1504,3.1699,3.1621,3.1484,3.1289,3.1446,3.1367,3.1504,3.1621,3.1719,3.1836,3.2051,3.2226,3.2363,3.2383,3.2715,3.2969,3.3027,3.3105,3.3184,3.3203,3.3184,3.3242,3.3262,3.3359,3.332,3.332,3.332,3.3281,3.3223,3.3262,3.3301,3.3359,3.3418,3.3418,3.3418,3.3418,3.3418,3.3418,3.3418,3.3418,3.3418,3.3418,3.3418,3.3418,3.3418,3.3418,3.3301,3.3223,3.3223,3.3105,3.291,3.2578,3.2187,3.1894,3.1601,3.1328,3.1191,3.1035,3.3355,3.3418,3.3418,3.3418,3.3418,3.3418,3.3418,3.3418,3.3418,3.3418,3.3418,3.3418,3.3418,3.3418,3.3418,3.3418,3.3418,3.3418,3.3418,3.3418,3.3418,3.3418,3.3418,3.3418,3.3418,3.3418,3.3418,3.3418,3.3418,3.3418,3.3418,3.3418,3.334,3.3301,3.334,3.2988,3.2793,3.2734,3.2422,3.2344,3.2305,3.2226,3.2168,3.2129,3.1992,3.1894,3.1875,3.1875,3.1875,3.1875,3.1955,3.1914,3.1934,3.1953,3.1973,3.2012,3.209,3.2168,3.2229,3.2148,3.209,3.2033,3.1836,3.1992,3.2109,3.2168,3.2226,3.2461,3.2598,3.2754,3.291,3.3086,3.3242,3.334,3.3398,3.3418,3.3418,3.3418,3.3418,3.3418,3.3418,3.3418,3.3398,3.3398,3.3398,3.3379,3.3398,3.3418,3.3418,3.3418,3.3418,3.3418,3.3418,3.3418,3.3418,3.3418,3.3418,3.3418,3.3418,3.3418,3.3418,3.3418,3.3418,3.3418,3.3379,3.332,3.3359,3.3359,3.2988,3.2637,3.2405,3.2051,3.1719,3.1465,3.1348,3.3418,3.3418,3.3418,3.3418,3.3418,3.3418,3.3418,3.3418,3.3418,3.3418,3.3418,3.3418,3.3418,3.3418,3.3418,3.3418,3.3418,3.3418,3.3418,3.3418,3.3418,3.3418,3.3418,3.3418,3.3418,3.3418,3.3418,3.3418,3.3418,3.3418,3.3418,3.3418,3.3418,3.3418,3.3398,3.3242,3.3203,3.3203,3.3066,3.3008,3.2949,3.2734,3.2578,3.2559,3.2363,3.2246,3.2266,3.2285,3.2285,3.2266,3.2285,3.2266,3.2246,3.2246,3.2287,3.2285,3.2363,3.2734,3.2891,3.2949,3.2695,3.2441,3.2246,3.2383,3.2519,3.2578,3.2715,3.2891,3.3027,3.3164,3.3281,3.3301,3.3379,3.3379,3.3418,3.3418,3.3418,3.3418,3.3418,3.3418,3.3418,3.3496,3.3535,3.3672,3.3691,3.3633,3.3652,3.3496,3.3437,3.3418,3.3418,3.3418,3.3418,3.3418,3.3418,3.3418,3.3418,3.3418,3.3418,3.3418,3.3418,3.3418,3.3418,3.3418,3.3418,3.3418,3.3418,3.3398,3.332,3.3066,3.2773,3.2441,3.209,3.1875,3.1777,3.3418,3.3418,3.3418,3.3418,3.3418,3.3418,3.3418,3.3418,3.3418,3.3418,3.3418,3.3418,3.3418,3.3418,3.3418,3.3418,3.3418,3.3418,3.3418,3.3418,3.3418,3.3418,3.3418,3.3437,3.3418,3.3418,3.3418,3.3418,3.3418,3.3418,3.3418,3.3418,3.3418,3.3418,3.3418,3.3398,3.3379,3.3359,3.3301,3.332,3.3281,3.3164,3.3008,3.2949,3.2812,3.2637,3.2617,3.2598,3.2598,3.2578,3.2578,3.2578,3.2578,3.2578,3.2598,3.2715,3.2832,3.3144,3.3301,3.3359,3.3066,3.2754,3.2617,3.2734,3.2949,3.3008,3.3125,3.3281,3.3398,3.3418,3.3398,3.3418,3.3418,3.3437,3.3457,3.3457,3.3516,3.3535,3.3691,3.3652,3.3769,3.3789,3.3809,3.3906,3.4043,3.3965,3.3906,3.3711,3.3535,3.3535,3.3535,3.3535,3.3496,3.3496,3.3457,3.3418,3.3418,3.3418,3.3476,3.3535,3.3418,3.3418,3.3418,3.3418,3.3418,3.3418,3.3418,3.3379,3.334,3.3301,3.3164,3.2812,3.2461,3.2324,3.2226,3.3418,3.3418,3.3418,3.3418,3.3418,3.3418,3.3418,3.3418,3.3418,3.3418,3.3418,3.3418,3.3418,3.3418,3.3418,3.3418,3.3476,3.3457,3.3516,3.3535,3.3652,3.3594,3.3613,3.3613,3.3711,3.3594,3.3594,3.375,3.3516,3.3672,3.3652,3.3574,3.3691,3.3633,3.3594,3.3555,3.3516,3.3457,3.3418,3.3418,3.3379,3.3379,3.3301,3.3262,3.3223,3.3203,3.3203,3.3223,3.3262,3.3281,3.332,3.334,3.3379,3.3398,3.3398,3.3398,3.3359,3.3379,3.3398,3.3418,3.3398,3.3184,3.3262,3.3379,3.3359,3.3301,3.334,3.3379,3.3418,3.3418,3.3418,3.3437,3.3457,3.3476,3.3516,3.3594,3.3672,3.3809,3.4023,3.416,3.4375,3.4434,3.4414,3.4473,3.4394,3.4355,3.4277,3.4121,3.3945,3.3809,3.3809,3.3789,3.373,3.3613,3.3594,3.373,3.3789,3.3906,3.3769,3.3769,3.3613,3.3496,3.3496,3.3516,3.3437,3.3418,3.3418,3.3418,3.3398,3.3359,3.3301,3.3203,3.2832,3.2812,3.2695,3.3418,3.3418,3.3418,3.3418,3.3418,3.3418,3.3418,3.3418,3.3418,3.3418,3.3418,3.3418,3.3418,3.3418,3.3418,3.3418,3.3555,3.3711,3.3867,3.3965,3.4101,3.4258,3.4297,3.4258,3.4297,3.4297,3.4277,3.4219,3.4297,3.4297,3.4277,3.4355,3.4199,3.4101,3.3945,3.3887,3.3711,3.3535,3.3496,3.3418,3.3418,3.3418,3.3418,3.3418,3.3418,3.3418,3.3418,3.3418,3.3418,3.3418,3.3418,3.3418,3.3418,3.3418,3.3418,3.3418,3.3398,3.3418,3.3418,3.3418,3.3437,3.3476,3.3476,3.3418,3.3418,3.3457,3.3457,3.3418,3.3496,3.3535,3.3574,3.3594,3.3711,3.3828,3.3887,3.3965,3.4082,3.4297,3.4512,3.4687,3.4902,3.4902,3.4902,3.4844,3.4785,3.4726,3.4668,3.457,3.4394,3.4238,3.4121,3.4101,3.4101,3.4043,3.4199,3.4336,3.4355,3.4375,3.4219,3.4062,3.3984,3.3867,3.3711,3.3594,3.3496,3.3457,3.3418,3.3418,3.3418,3.3418,3.3379,3.334,3.3281,3.3184,3.3066,3.3418,3.3418,3.3418,3.3418,3.3418,3.3418,3.3418,3.3418,3.3418,3.3418,3.3418,3.3418,3.3418,3.3418,3.3418,3.3516,3.373,3.3926,3.4121,3.4394,3.4609,3.459,3.4687,3.4726,3.4629,3.4707,3.4707,3.459,3.4726,3.4707,3.4668,3.4648,3.4687,3.457,3.4394,3.4297,3.4199,3.3926,3.3672,3.3476,3.3437,3.3457,3.3418,3.3457,3.3457,3.3437,3.3437,3.3437,3.3418,3.3418,3.3418,3.3418,3.3418,3.3418,3.3418,3.3418,3.3418,3.3418,3.3437,3.3633,3.3652,3.373,3.3809,3.3945,3.3789,3.3711,3.3555,3.3418,3.3574,3.3711,3.3769,3.3848,3.4062,3.4277,3.4355,3.4434,3.4629,3.4844,3.5019,3.5195,3.5273,3.5293,3.5273,3.5215,3.5234,3.5332,3.5371,3.5332,3.5059,3.4726,3.457,3.4473,3.4531,3.4551,3.4726,3.4805,3.4746,3.4668,3.4551,3.4414,3.4336,3.4238,3.4121,3.3848,3.3555,3.3516,3.3496,3.3437,3.3418,3.3418,3.3418,3.3379,3.3359,3.334,3.3223,3.3418,3.3418,3.3418,3.3418,3.3418,3.3418,3.3418,3.3418,3.3418,3.3418,3.3418,3.3418,3.3418,3.3418,3.3418,3.3672,3.3906,3.4141,3.4453,3.4746,3.4961,3.5,3.498,3.4844,3.5039,3.4902,3.4883,3.5078,3.4902,3.4961,3.5019,3.4805,3.4902,3.4883,3.4805,3.4766,3.4648,3.4414,3.4023,3.373,3.3672,3.3594,3.3516,3.3574,3.3555,3.3516,3.3496,3.3457,3.3418,3.3418,3.3418,3.3418,3.3418,3.3418,3.3418,3.3535,3.3574,3.3652,3.3769,3.3984,3.4082,3.4238,3.4473,3.4492,3.4277,3.4043,3.3867,3.3848,3.4023,3.4101,3.416,3.4277,3.4473,3.4668,3.4805,3.4941,3.5137,3.5312,3.5469,3.5625,3.5664,3.5684,3.5684,3.5625,3.5605,3.584,3.5879,3.5859,3.5684,3.5254,3.5078,3.4922,3.5039,3.5117,3.5098,3.5137,3.5019,3.4922,3.4902,3.4824,3.4805,3.4687,3.4531,3.4219,3.3887,3.3672,3.3574,3.3516,3.3457,3.3418,3.3418,3.3418,3.3418,3.3418,3.3379,3.3418,3.3418,3.3418,3.3418,3.3418,3.3418,3.3418,3.3418,3.3418,3.3418,3.3418,3.3418,3.3418,3.3418,3.3418,3.3672,3.4082,3.4394,3.4805,3.5215,3.5449,3.5508,3.5644,3.5547,3.5625,3.5703,3.5703,3.5605,3.5566,3.5605,3.5664,3.5664,3.5605,3.5469,3.5234,3.5215,3.5098,3.4863,3.4629,3.4394,3.4394,3.4394,3.4394,3.4258,3.416,3.3945,3.3828,3.3613,3.3496,3.3418,3.3418,3.3418,3.3418,3.3437,3.3613,3.3848,3.3926,3.4043,3.4238,3.4414,3.4531,3.457,3.4687,3.4687,3.4609,3.4453,3.4394,3.4414,3.4453,3.4512,3.4609,3.4726,3.4863,3.5059,3.5234,3.543,3.5625,3.5742,3.5898,3.5957,3.6016,3.6035,3.6035,3.6035,3.6035,3.6016,3.5996,3.5976,3.5957,3.5723,3.5664,3.5566,3.5684,3.5723,3.5605,3.5508,3.541,3.5488,3.5527,3.543,3.5254,3.5,3.4766,3.4551,3.4277,3.4043,3.3809,3.3574,3.3516,3.3516,3.3418,3.3418,3.3418,3.3418,3.3418,3.3418,3.3418,3.3418,3.3418,3.3418,3.3418,3.3418,3.3418,3.3418,3.3418,3.3418,3.3418,3.3418,3.3418,3.3418,3.3809,3.4277,3.457,3.5098,3.5586,3.584,3.5937,3.6035,3.6035,3.5957,3.6016,3.6016,3.5996,3.6035,3.6016,3.5976,3.6035,3.5996,3.5898,3.5664,3.5644,3.5527,3.5312,3.5234,3.5234,3.5156,3.498,3.4746,3.459,3.4512,3.4355,3.4297,3.4101,3.4043,3.4004,3.4043,3.4043,3.4062,3.4062,3.4141,3.4277,3.4375,3.4453,3.4687,3.4883,3.5,3.5019,3.5234,3.5351,3.5391,3.5254,3.4902,3.4902,3.4941,3.5,3.5117,3.5234,3.543,3.5625,3.5664,3.5762,3.584,3.5918,3.5976,3.5996,3.6035,3.6035,3.6035,3.6035,3.6035,3.6035,3.6035,3.6035,3.6035,3.6035,3.6035,3.6035,3.6035,3.6035,3.5879,3.584,3.5859,3.5976,3.6035,3.5859,3.5605,3.5254,3.498,3.4883,3.4707,3.4453,3.4199,3.3945,3.3789,3.3809,3.3613,3.3418,3.3418,3.3437,3.3418,3.3418,3.3418,3.3418,3.3418,3.3418,3.3418,3.3418,3.3418,3.3418,3.3418,3.3418,3.3418,3.3418,3.3418,3.3457,3.4043,3.4473,3.4629,3.5215,3.5781,3.5996,3.6035,3.6035,3.6035,3.6035,3.6035,3.6035,3.6035,3.6035,3.6035,3.6035,3.6035,3.6035,3.6016,3.6035,3.6016,3.5898,3.584,3.584,3.5937,3.5684,3.5312,3.5078,3.4922,3.4824,3.4785,3.4785,3.4707,3.4707,3.4629,3.4551,3.4531,3.4531,3.4512,3.4648,3.4726,3.4805,3.4863,3.5019,3.5293,3.541,3.5547,3.5879,3.5976,3.5976,3.5801,3.5449,3.5371,3.541,3.5469,3.5586,3.5664,3.5859,3.5976,3.5996,3.5996,3.6016,3.6035,3.6035,3.6035,3.6035,3.6035,3.6035,3.6035,3.6035,3.6035,3.6035,3.6035,3.6035,3.6035,3.6035,3.6035,3.6035,3.6035,3.6035,3.6035,3.6035,3.6035,3.6035,3.6035,3.5937,3.5644,3.543,3.5391,3.5195,3.4883,3.4648,3.4414,3.4277,3.416,3.3887,3.3672,3.3594,3.3574,3.3457,3.3418,3.3418,3.3418,3.3418,3.3418,3.3418,3.3418,3.3418,3.3418,3.3418,3.3418,3.3418,3.3418,3.3418,3.3418,3.3887,3.459,3.4707,3.5254,3.5898,3.6016,3.6035,3.6035,3.6035,3.6035,3.6035,3.6035,3.6035,3.6035,3.6035,3.6035,3.6035,3.6035,3.6035,3.6035,3.6035,3.6035,3.6035,3.6035,3.6035,3.6035,3.582,3.584,3.5644,3.543,3.5332,3.5176,3.4883,3.4746,3.4687,3.4766,3.4805,3.4844,3.4883,3.5,3.5195,3.5254,3.5371,3.5547,3.5703,3.5801,3.582,3.6016,3.6016,3.5996,3.5996,3.5781,3.5781,3.582,3.582,3.5879,3.5879,3.6016,3.6016,3.6016,3.6016,3.6016,3.6035,3.6035,3.6035,3.6035,3.6035,3.6035,3.6035,3.6035,3.6035,3.6035,3.6035,3.6035,3.6035,3.6035,3.6035,3.6035,3.6035,3.6035,3.6035,3.6035,3.6035,3.6035,3.6035,3.6016,3.6016,3.5859,3.5723,3.5566,3.5312,3.5078,3.4883,3.4707,3.4551,3.4199,3.3965,3.3887,3.3789,3.373]}]]